GFSSW_prec_cthk_000.txt.gz
RH
12 12 13 12 10 8 7 7 6 6 6 9 9 7 7 7 8 7 8 12 17 20 26 30 34 41 43 48 43 45 50 45 46 52 39 34 29 27 30 34 38 42 47 54 56
11 11 11 12 12 11 9 8 7 6 6 7 10 8 7 7 7 6 7 7 12 17 25 32 36 39 43 41 41 44 51 46 42 48 43 39 36 27 28 32 37 41 43 47 51
11 11 11 11 11 11 11 10 8 7 6 5 6 9 7 7 6 7 7 5 7 14 23 28 33 36 37 35 37 39 51 44 42 41 44 39 40 34 29 32 33 35 40 42 47
11 12 12 11 10 11 11 11 11 9 7 7 5 6 8 7 8 7 7 7 7 11 18 26 30 34 32 34 34 37 36 37 41 38 42 42 37 37 28 28 31 32 33 39 42
12 11 11 12 11 11 11 10 10 11 9 7 7 6 6 9 7 7 6 7 6 8 15 23 27 30 29 34 35 34 33 34 33 34 37 40 36 34 29 27 29 33 33 35 39
12 12 11 11 11 11 10 10 10 9 10 10 8 8 7 7 7 7 7 7 8 8 13 19 27 28 28 31 34 32 30 32 28 25 28 32 32 31 29 28 29 31 32 33 36
10 10 11 12 11 10 10 9 8 8 8 9 10 10 10 8 6 6 7 8 8 8 11 17 25 26 27 31 34 34 30 34 30 27 27 31 35 32 30 30 29 31 32 32 33
10 9 9 10 11 12 11 10 9 7 7 7 8 10 12 11 7 7 8 7 6 8 10 16 20 25 26 29 31 32 33 35 31 32 29 36 40 37 34 27 31 29 29 30 29
10 10 9 9 9 10 11 11 10 8 7 6 8 11 12 10 9 9 8 7 7 8 8 13 18 23 26 29 31 33 35 35 35 32 36 39 47 43 42 37 27 30 29 29 31
12 11 10 9 9 9 9 10 10 10 9 10 11 13 11 11 13 11 9 7 8 10 8 12 17 20 23 25 25 34 33 35 34 32 37 39 46 43 45 42 33 28 30 28 26
13 12 10 10 9 8 9 9 13 15 13 11 11 9 9 10 11 12 11 8 8 9 8 10 13 18 21 22 24 31 36 36 36 43 44 45 44 43 45 44 37 30 29 29 24
16 14 11 10 10 9 9 10 11 10 9 9 8 7 8 8 8 9 10 11 9 9 8 9 11 16 20 23 24 31 33 34 35 44 44 45 44 42 45 46 45 40 36 29 30
17 16 14 11 11 11 10 12 10 10 10 8 8 8 9 9 10 9 10 10 10 8 8 9 9 15 18 20 24 27 32 35 40 41 43 46 44 41 42 47 46 47 44 38 36
21 19 16 13 13 11 13 12 11 10 11 9 9 11 13 12 11 9 9 9 10 10 9 7 9 12 16 19 23 25 25 35 39 45 44 41 42 38 41 42 43 43 45 42 45
23 21 19 17 14 13 13 11 11 14 15 11 11 12 12 11 12 12 10 10 11 11 11 9 7 9 14 16 20 22 27 29 35 41 45 48 47 39 39 38 39 39 41 42 40
26 24 23 20 17 15 14 13 16 19 17 12 12 11 12 12 12 12 11 11 12 12 12 11 9 8 10 15 21 23 30 32 33 36 40 40 44 34 35 32 33 36 39 40 41
29 26 24 23 22 17 16 17 18 17 15 13 13 13 12 11 12 13 12 12 12 15 15 11 11 7 8 13 22 24 29 33 36 35 36 38 41 31 31 30 26 29 33 38 42
33 30 26 24 23 20 19 18 19 16 15 15 15 15 15 14 12 13 15 14 12 15 16 16 13 10 8 10 20 22 24 30 34 30 31 35 37 27 25 27 25 27 28 36 40
37 34 32 28 28 26 24 19 18 17 18 15 14 15 15 16 13 14 14 16 15 15 15 18 15 14 9 10 15 22 25 26 28 27 26 23 30 23 25 27 25 25 27 31 35
42 42 39 36 33 34 29 22 18 17 18 20 18 17 16 15 16 15 14 15 15 16 17 21 21 17 14 12 11 20 22 28 28 33 31 28 28 30 25 24 24 25 25 27 31
47 46 44 40 44 43 33 26 24 20 20 21 19 18 18 17 18 18 17 18 16 18 20 21 23 19 17 12 11 14 24 26 29 28 29 31 27 26 23 25 27 26 25 26 27
48 45 44 48 50 42 37 33 31 26 22 21 19 17 18 20 20 18 18 19 19 20 24 24 26 23 14 12 11 15 20 27 29 31 30 27 23 23 25 21 20 24 25 25 24
50 45 44 47 47 44 46 43 39 34 27 25 21 20 19 19 20 19 18 17 18 22 25 27 27 34 24 16 14 14 18 23 27 28 30 31 27 24 26 19 19 23 23 21 21
62 49 49 55 53 59 57 57 50 41 36 31 28 25 20 21 21 21 21 18 21 24 29 29 27 25 25 22 17 16 12 17 21 26 27 27 27 26 22 19 17 20 22 21 25
71 66 71 56 70 74 74 69 60 50 46 39 35 33 28 26 24 23 23 25 27 30 38 41 37 39 27 23 26 23 19 15 16 19 26 25 25 26 27 20 17 18 22 23 23
72 75 84 81 67 56 54 60 63 57 59 53 44 36 32 31 28 24 23 23 25 32 32 39 47 42 43 36 32 29 26 19 17 13 18 22 24 23 24 20 17 17 20 24 24
80 83 81 65 68 73 64 61 60 72 64 52 59 53 50 43 41 38 35 31 35 34 36 42 48 52 47 41 37 36 30 26 20 15 15 16 14 16 18 20 17 16 18 22 24

GFSSW_prec_cthk_006.txt.gz
RH
11 10 10 10 10 10 10 9 8 7 7 6 5 5 6 7 6 5 5 9 18 19 23 32 33 36 40 40 53 56 52 54 53 44 37 29 34 42 53 48 55 74 57 57 57
11 11 10 10 10 11 10 10 10 9 8 7 6 5 5 6 5 5 4 6 12 18 20 29 35 36 38 42 49 52 53 54 58 43 44 34 34 31 35 39 54 50 56 54 61
11 11 11 10 10 10 11 10 10 10 10 8 7 6 5 5 5 9 7 6 7 12 18 25 33 35 38 37 45 46 52 49 46 41 48 45 35 30 38 36 42 54 53 52 58
9 9 10 10 10 10 10 10 11 11 10 9 8 7 7 6 13 13 9 7 5 7 14 22 30 34 38 37 38 40 40 43 51 41 46 41 40 36 38 47 38 44 44 48 54
9 9 9 9 10 10 10 9 10 10 10 9 9 8 7 9 7 10 8 6 5 5 11 21 27 34 34 35 34 33 40 42 39 35 40 47 40 39 37 45 38 38 40 43 49
10 9 8 8 8 9 9 9 10 10 9 9 8 7 7 10 9 10 8 6 6 5 9 19 26 33 33 32 31 31 32 34 33 34 32 48 44 36 36 35 37 33 34 36 42
11 10 9 9 8 8 8 8 9 10 9 9 8 7 8 7 10 10 8 9 7 9 8 14 25 30 31 28 28 31 31 31 30 31 38 39 48 34 35 30 36 31 31 32 37
15 13 11 10 9 8 8 7 7 8 9 9 8 7 7 6 9 10 10 9 10 11 9 12 19 25 27 27 24 26 29 31 31 34 31 29 45 26 37 32 33 33 29 31 31
19 17 15 12 11 9 8 8 7 7 7 8 9 12 9 7 8 9 10 8 8 9 10 11 16 20 23 24 24 25 29 29 30 38 36 25 50 49 43 35 32 36 31 28 30
22 20 17 15 13 11 9 8 8 8 8 9 10 16 9 9 11 9 9 8 9 9 9 11 14 18 21 22 22 24 29 28 28 31 33 37 41 43 44 46 37 33 33 29 28
25 22 20 18 15 13 11 10 14 16 20 14 15 11 11 11 11 14 13 12 11 10 11 11 12 15 19 20 19 24 29 26 30 39 38 41 49 41 46 46 39 33 33 32 30
29 26 23 21 18 15 14 14 14 12 10 9 9 13 12 13 13 14 11 12 10 10 11 9 9 11 18 21 21 23 29 28 29 34 42 38 44 38 53 48 39 32 29 30 28
33 30 28 25 21 22 19 16 15 13 12 9 8 7 8 12 10 10 11 13 9 9 12 9 8 8 14 19 21 21 27 28 28 33 35 34 36 42 51 45 39 32 31 27 27
34 32 30 28 25 23 21 22 16 15 14 10 9 8 8 8 8 7 8 10 12 10 9 11 9 9 10 15 19 21 22 26 27 34 37 35 37 42 44 50 39 30 31 31 28
34 33 31 29 28 24 25 24 19 17 18 12 11 10 9 8 8 8 7 8 8 9 12 9 10 9 9 10 15 19 23 24 26 30 40 43 42 42 41 47 48 39 30 32 34
34 33 33 31 34 27 25 23 21 21 18 14 13 13 11 10 12 13 9 8 10 9 12 11 9 9 9 9 12 17 24 23 24 27 33 35 41 31 43 35 41 48 47 35 33
34 33 33 33 32 32 31 27 25 22 16 14 15 16 15 14 12 14 12 11 10 10 12 11 10 10 10 10 11 13 21 25 25 26 27 28 39 33 38 41 35 43 52 47 33
30 31 32 34 36 32 30 28 27 20 19 17 16 16 17 18 15 13 15 14 10 11 11 12 12 10 10 8 11 11 17 21 28 26 26 23 26 30 38 39 38 43 50 45 39
22 25 27 33 39 39 37 27 22 23 22 20 19 18 18 18 17 16 16 15 12 11 12 12 13 13 11 12 9 10 14 14 22 22 24 23 23 23 24 34 35 37 38 36 40
21 24 21 28 34 40 37 30 24 24 24 25 22 20 19 20 20 19 17 17 17 14 12 13 15 15 14 12 10 8 11 15 19 26 26 22 23 26 25 27 37 37 34 33 30
23 27 18 27 29 40 34 29 32 30 28 26 24 21 20 21 21 22 19 18 17 18 17 15 15 15 18 14 12 12 10 12 16 18 23 25 24 23 24 26 28 31 28 30 28
33 30 28 39 39 39 36 37 37 34 35 32 29 25 21 22 22 22 23 21 19 19 20 19 18 17 16 19 16 13 10 9 14 19 18 21 22 21 23 25 28 29 27 23 21
37 29 16 34 37 37 33 35 39 41 43 43 38 31 27 24 24 23 22 20 20 20 19 19 22 21 18 19 21 17 13 13 11 13 21 21 20 19 23 29 33 29 27 28 31
50 38 29 39 40 43 39 33 33 36 41 48 50 45 36 30 26 25 25 23 21 21 23 22 23 23 19 18 21 22 15 14 13 13 13 20 23 20 22 26 30 30 29 29 29
62 51 52 51 45 73 85 68 58 57 53 64 63 57 50 42 33 28 25 25 24 24 24 26 27 26 22 23 25 23 21 19 18 12 15 11 20 24 21 24 29 28 28 27 25
72 69 71 61 47 61 73 77 70 61 67 68 76 70 69 62 62 53 38 29 26 26 27 25 28 29 31 27 26 27 24 18 17 15 12 13 15 15 21 21 27 31 30 28 26
76 76 85 75 67 57 43 61 78 73 75 73 68 75 79 79 76 62 49 38 34 31 29 30 27 32 32 28 30 30 28 24 20 15 16 15 12 15 17 20 24 31 34 31 29

GFSSW_prec_cthk_009.txt.gz
RH
11 10 10 9 9 9 10 9 9 8 8 7 6 5 5 4 4 5 4 4 13 18 24 29 33 35 37 41 57 54 65 75 59 49 44 50 50 57 54 58 56 62 57 49 48
10 10 10 10 9 9 9 10 10 9 9 8 7 6 5 5 4 4 3 3 6 16 19 26 33 39 40 40 45 48 60 61 56 49 46 47 49 43 47 49 53 58 58 57 51
8 9 9 10 10 9 9 9 10 10 10 9 8 7 6 6 4 8 8 4 5 11 17 24 29 34 38 42 45 50 53 52 50 47 47 46 45 36 37 48 46 40 48 52 47
8 8 8 9 9 9 9 9 9 9 10 10 9 8 7 6 8 12 10 7 5 6 13 21 27 30 34 40 42 47 47 46 50 47 45 46 45 40 34 41 47 46 39 45 49
10 9 8 8 8 8 9 9 8 9 9 9 9 8 7 7 6 7 8 8 7 5 8 17 23 30 32 34 37 40 40 42 45 50 43 45 47 47 40 39 44 46 44 44 45
14 11 10 9 8 8 8 8 8 8 8 8 8 8 7 8 7 8 8 8 7 6 5 11 21 27 33 34 32 32 35 36 38 43 40 41 47 49 46 41 39 37 38 44 43
20 17 14 12 10 9 8 7 7 8 8 8 8 7 7 5 7 10 10 8 6 6 5 8 18 27 32 34 29 30 34 33 34 34 37 45 53 50 47 34 36 35 33 38 46
23 21 19 16 13 11 9 8 7 7 7 7 8 8 6 6 6 8 9 9 9 9 7 7 15 24 28 31 28 28 29 32 33 30 33 37 43 51 42 36 34 37 29 33 38
27 24 22 20 17 14 12 10 8 7 6 6 7 9 10 6 5 5 8 9 10 11 11 9 13 19 26 27 27 26 26 27 30 32 36 37 38 39 49 47 36 33 29 29 36
30 28 25 22 19 17 15 11 9 11 11 10 9 14 7 8 7 6 8 11 9 9 10 12 13 16 19 24 24 24 22 25 30 31 34 40 38 36 41 39 40 30 30 26 30
33 31 28 25 22 19 17 14 13 13 17 15 15 10 7 10 12 11 9 8 9 9 10 9 12 13 15 19 20 23 22 25 28 30 36 41 42 43 40 38 36 30 33 28 23
33 32 30 29 26 22 20 18 16 14 12 11 9 10 10 13 14 12 13 11 10 12 12 10 11 11 14 18 21 22 21 25 28 31 35 42 42 41 39 32 33 32 32 28 26
32 31 31 30 27 27 24 22 20 17 14 11 10 8 7 11 13 13 13 12 13 11 11 10 12 10 12 16 20 23 20 25 30 35 36 45 49 44 44 43 48 40 38 30 22
31 31 31 32 30 27 25 25 23 18 18 13 12 10 8 9 12 12 14 12 12 11 10 11 10 10 9 11 17 21 21 24 30 33 39 41 49 52 48 50 53 49 46 32 25
32 31 30 29 33 30 26 27 22 22 26 14 12 10 10 8 9 11 11 13 11 12 10 8 11 11 11 9 13 15 22 25 28 30 36 38 46 41 49 49 44 49 50 39 31
25 28 30 30 32 32 30 28 25 26 26 16 13 11 11 10 10 10 11 10 10 12 12 10 10 9 10 10 10 12 18 22 26 28 32 35 38 44 48 49 50 48 50 46 41
20 20 23 28 32 33 33 30 29 28 20 17 16 15 13 12 12 11 12 12 10 11 10 9 9 11 10 10 11 10 15 21 27 30 30 29 36 38 35 41 39 42 50 47 47
18 15 15 19 25 30 34 33 33 24 22 21 20 19 17 15 13 13 15 14 11 10 11 11 11 9 10 9 10 11 12 17 25 25 25 23 29 28 29 32 35 42 50 47 51
16 12 10 12 18 28 35 38 27 26 25 25 23 21 20 20 19 16 16 16 13 11 13 11 10 10 10 9 10 10 11 12 17 22 25 20 22 23 25 27 33 38 44 41 43
20 16 7 16 22 25 32 32 27 27 26 29 30 23 23 23 24 22 19 17 17 16 15 12 16 11 11 12 11 10 10 14 14 19 22 18 22 21 26 27 30 33 37 38 38
25 27 8 20 27 30 30 30 30 32 35 35 33 30 26 24 24 23 21 19 19 18 19 15 14 13 14 15 13 12 11 12 13 14 19 25 19 19 24 26 31 31 30 33 32
32 33 13 25 30 34 33 31 32 33 40 41 39 37 35 30 27 24 22 20 21 21 22 20 18 16 14 14 15 13 12 11 14 15 18 18 16 15 21 24 27 27 29 30 30
41 33 13 31 38 36 38 36 37 35 38 40 46 49 43 38 36 29 25 22 22 22 22 22 20 23 18 16 16 17 16 14 12 13 15 22 12 13 19 24 30 37 41 36 34
58 47 28 38 51 57 50 45 46 44 44 44 47 56 51 48 43 36 32 25 24 23 23 24 23 21 21 17 17 19 17 17 15 12 11 11 12 14 18 22 24 28 31 32 32
77 69 65 53 56 70 79 78 64 48 46 51 60 65 71 70 59 48 44 39 31 27 25 24 25 22 21 21 19 17 20 20 18 13 14 10 11 13 14 22 23 27 27 28 32
93 86 78 66 57 65 70 67 66 61 64 50 68 72 71 88 85 73 63 54 47 35 35 30 31 27 25 23 23 19 21 24 21 19 16 13 11 12 14 18 24 27 27 29 31
96 94 92 79 68 67 62 81 83 76 70 72 77 70 78 75 78 79 67 56 50 45 39 36 35 34 28 26 29 28 19 23 26 22 20 17 12 13 12 15 20 23 24 29 28

GFSSW_prec_cthk_012.txt.gz
RH
9 10 10 10 10 9 8 9 9 9 8 8 8 6 5 5 4 4 4 4 11 20 26 31 37 36 52 63 72 71 63 55 54 54 60 66 59 55 46 50 50 54 48 49 50
8 8 8 9 9 9 9 8 9 9 9 9 8 8 7 5 5 4 5 3 4 13 21 28 32 34 47 47 64 67 61 57 53 53 57 56 55 50 46 42 40 50 49 48 47
9 8 8 8 8 9 9 9 8 9 9 9 9 9 8 7 5 6 7 5 2 6 19 25 27 31 40 43 46 48 52 53 55 51 53 50 54 53 47 42 33 36 41 48 46
13 10 9 9 8 7 8 8 9 8 9 8 9 9 8 7 7 9 11 7 4 5 15 20 26 28 33 36 46 47 46 50 55 51 53 54 48 57 42 36 39 32 32 43 42
18 16 13 10 9 8 7 7 8 8 8 8 8 8 8 7 6 7 8 8 7 6 9 17 23 27 28 36 46 41 44 46 49 51 50 51 49 47 49 39 44 41 37 38 40
25 21 18 16 13 10 9 8 7 7 7 8 8 7 7 7 6 7 8 6 8 7 7 11 19 26 31 34 39 39 38 39 41 49 50 50 51 42 54 42 44 42 31 35 42
27 26 23 20 18 16 13 10 9 7 6 6 7 7 6 6 7 8 9 9 7 7 6 8 16 24 30 31 35 34 34 32 35 37 45 51 46 45 49 43 46 40 36 31 37
28 26 25 23 20 18 17 14 10 8 7 6 6 6 5 6 7 6 6 8 8 9 6 7 12 20 28 32 32 31 31 29 30 33 42 47 47 48 46 52 57 43 37 27 32
31 28 26 24 23 20 18 16 13 10 8 7 7 7 6 5 6 5 5 7 7 9 10 7 10 17 23 28 33 30 28 27 28 32 43 39 46 48 47 47 52 54 41 27 28
32 30 28 26 24 22 20 17 14 14 14 14 12 12 6 5 8 6 5 8 8 9 11 11 12 14 19 24 28 29 28 27 29 30 35 39 40 45 51 50 48 49 45 36 23
31 29 29 28 27 25 23 19 17 16 15 14 14 11 9 10 10 8 6 8 11 10 10 10 12 13 16 20 23 29 28 27 28 31 34 36 39 43 48 51 52 47 42 34 28
31 30 29 29 28 27 24 23 23 22 18 14 12 11 9 9 12 11 10 9 11 11 9 11 11 11 14 17 20 25 26 25 27 29 32 43 40 43 46 47 46 44 46 34 32
26 27 28 29 29 29 27 26 24 21 18 15 14 12 11 8 11 11 12 11 10 11 9 10 10 9 11 14 17 20 23 24 25 29 34 41 46 46 46 49 48 47 43 33 31
19 20 22 25 29 28 26 27 25 23 22 16 15 13 12 10 10 11 13 12 12 10 11 12 10 10 10 12 15 17 19 24 29 30 38 47 52 50 50 48 48 46 41 34 31
15 14 16 20 26 29 29 28 26 25 29 17 14 13 11 11 10 11 13 14 13 12 13 11 10 9 12 11 12 12 21 25 30 31 35 35 46 43 47 47 47 45 43 47 31
14 13 13 14 18 25 30 29 28 28 30 19 16 14 14 12 12 12 14 15 14 14 13 11 11 11 9 10 10 10 17 25 29 32 37 34 37 41 44 42 43 44 41 44 44
14 12 10 11 11 19 26 29 30 31 22 20 20 16 15 15 14 13 16 17 17 17 15 14 13 10 11 12 12 11 13 21 26 32 31 30 35 31 35 35 39 42 41 42 46
16 13 10 9 9 14 23 28 33 26 26 23 22 20 17 16 15 14 14 19 17 15 14 16 15 12 11 11 11 12 12 14 22 26 27 27 31 24 26 31 37 37 40 41 41
16 12 8 10 11 19 23 33 28 28 28 28 26 24 23 21 20 18 16 14 16 16 15 15 13 9 9 9 11 11 14 11 15 18 26 22 25 19 23 30 33 34 40 38 39
22 19 7 18 27 28 31 30 26 26 29 32 32 29 32 29 27 24 21 16 16 16 16 15 15 10 8 10 11 12 11 13 14 15 17 18 22 18 18 24 28 29 30 35 35
28 29 8 21 25 30 39 33 23 19 31 36 39 41 35 35 33 32 26 20 18 18 18 17 17 12 11 12 13 13 12 13 13 13 13 18 12 11 14 23 26 28 28 32 34
39 39 14 28 29 39 40 32 28 27 20 36 40 41 43 39 35 35 31 26 24 25 24 20 19 17 14 11 13 14 13 12 13 13 13 10 9 9 10 20 25 27 29 33 34
48 40 28 38 45 53 55 50 47 47 43 36 42 45 47 50 46 38 36 32 36 34 35 28 20 22 19 16 15 17 14 12 13 12 12 15 11 9 10 15 25 27 31 35 41
61 59 43 49 58 56 57 63 61 58 52 50 42 45 54 52 55 55 49 43 43 41 35 30 25 22 20 17 15 16 15 15 14 14 12 10 12 9 10 16 24 24 26 28 39
77 77 73 68 63 69 68 67 73 71 63 56 53 52 54 62 65 60 55 55 48 44 40 38 34 25 23 19 18 16 16 16 15 13 13 10 11 10 9 16 20 23 30 27 29
86 89 88 80 73 71 75 76 83 75 69 60 61 55 60 60 66 73 63 61 59 51 48 42 40 35 29 23 19 19 18 17 16 15 14 13 12 12 9 8 16 20 20 30 33
86 92 92 86 84 79 73 82 86 87 88 81 72 68 56 51 62 61 65 60 59 60 55 50 46 42 39 30 25 27 15 18 17 18 16 16 15 14 12 9 12 18 21 27 33

GFSSW_prec_cthk_015.txt.gz
RH
8 8 7 8 9 9 10 9 8 8 9 10 9 9 8 6 5 4 4 4 10 22 28 30 39 42 49 59 75 76 71 64 57 56 55 58 59 56 49 48 51 54 55 55 57
11 10 8 8 7 8 8 9 9 8 8 9 9 10 9 8 6 5 5 4 5 13 24 32 38 47 53 54 67 72 68 57 53 51 56 60 62 62 56 43 41 54 47 49 52
17 15 12 10 9 8 7 7 8 9 8 8 8 9 9 9 7 6 7 7 4 6 19 28 36 41 47 44 52 62 60 52 50 51 54 57 59 61 54 48 37 39 41 46 46
25 22 18 15 12 10 9 8 7 7 8 8 8 8 8 9 8 9 10 8 4 4 11 22 27 35 40 42 41 45 49 53 52 52 58 55 55 59 54 38 34 34 33 42 44
27 25 23 21 18 15 12 10 8 7 7 7 8 8 7 8 8 9 10 10 5 4 6 19 24 27 32 37 36 51 48 45 46 47 50 58 52 54 56 44 38 36 32 35 40
28 26 25 23 22 19 17 15 12 9 8 7 6 7 7 7 8 7 6 8 8 6 8 14 19 23 32 35 39 45 46 43 41 44 49 57 55 54 52 50 50 39 38 34 36
30 28 26 24 23 22 20 18 16 13 10 8 7 5 5 6 8 8 9 7 8 8 7 9 16 20 29 33 39 39 41 41 39 40 46 53 54 49 52 57 59 51 38 31 36
31 30 28 26 24 22 22 20 17 15 12 10 8 6 5 5 6 8 9 9 9 9 8 8 13 18 26 31 35 36 37 37 35 34 37 40 47 51 53 55 57 59 42 31 33
30 30 29 27 25 24 23 20 18 16 14 12 10 9 7 5 5 6 7 7 9 9 9 10 11 14 22 29 33 35 33 34 34 30 32 33 43 49 53 54 53 49 48 45 30
27 27 28 28 26 25 24 21 20 20 18 18 17 16 9 7 9 8 6 7 9 10 12 11 11 13 17 25 30 30 30 33 33 29 33 40 42 52 54 52 52 50 48 46 31
21 22 23 25 27 26 24 22 21 20 20 17 17 14 10 10 8 9 8 7 10 10 12 12 14 14 14 19 25 30 30 32 31 30 30 34 42 51 54 56 56 53 51 44 34
15 16 17 18 24 27 27 26 26 26 23 19 17 14 13 12 12 11 10 7 10 10 10 12 13 11 13 16 21 26 29 30 30 31 29 32 36 44 50 50 50 48 50 46 38
11 12 13 13 18 25 26 27 26 25 23 18 18 16 16 14 12 11 11 8 10 11 10 11 10 10 11 14 17 21 24 29 30 32 31 35 38 42 52 53 54 54 51 42 38
9 9 10 11 13 16 25 25 26 24 24 18 18 15 15 15 14 10 13 10 11 12 12 12 9 9 10 12 14 18 20 28 30 33 34 34 46 42 48 55 50 53 49 44 38
10 8 8 9 11 10 18 24 25 27 32 20 16 16 14 15 14 14 13 15 14 13 13 12 9 9 10 9 11 12 19 26 30 32 32 31 37 38 43 49 49 49 47 54 47
11 10 10 10 9 11 13 21 25 28 29 21 17 16 15 15 14 15 14 17 15 16 15 12 11 11 9 9 9 10 16 22 31 34 35 28 34 32 40 41 43 42 42 46 50
14 11 9 10 11 9 11 18 24 28 22 22 21 19 18 16 14 15 16 19 18 19 18 17 14 12 12 12 11 11 14 23 26 34 25 27 33 25 32 33 35 38 39 41 45
16 12 9 15 15 10 12 20 24 21 24 24 25 22 20 20 16 16 17 19 19 18 18 21 20 14 13 12 12 13 13 21 22 26 24 25 29 21 26 28 36 38 39 41 41
16 10 11 20 21 17 17 27 20 21 25 29 28 28 27 24 23 21 20 21 20 19 18 21 20 14 13 11 12 13 15 11 16 19 22 22 21 19 23 26 30 34 37 38 39
20 12 16 19 29 25 30 29 24 24 26 29 33 34 36 32 28 27 23 20 22 25 21 18 17 15 13 14 14 12 11 13 16 19 20 16 17 18 19 23 26 31 31 34 34
23 19 22 23 24 32 39 38 28 24 27 29 33 38 39 38 34 32 30 26 26 25 26 23 20 16 16 15 12 13 13 14 15 15 14 15 12 11 14 20 23 29 28 29 30
30 32 30 32 31 45 57 54 42 34 30 35 34 36 41 45 42 37 35 33 33 31 33 28 23 19 18 16 11 10 11 14 16 15 14 12 11 9 7 12 19 21 26 24 25
38 37 39 39 52 51 56 60 60 53 41 40 42 40 44 47 48 49 45 42 39 37 40 35 31 22 18 17 16 16 13 12 12 13 13 14 12 8 8 10 12 18 22 22 24
52 53 50 60 59 62 60 60 68 68 57 49 46 47 46 51 56 56 51 48 44 41 41 37 37 31 26 21 19 17 15 13 13 15 13 12 11 9 9 9 10 13 20 23 25
64 67 72 70 77 76 70 61 71 82 79 72 56 56 54 51 58 62 58 55 47 46 45 44 44 35 32 29 25 22 18 14 14 13 14 11 12 10 8 9 9 10 18 22 22
76 77 76 80 87 89 83 74 81 81 84 85 77 69 60 60 55 63 66 64 60 52 49 50 49 43 36 29 26 24 18 15 14 13 14 13 13 10 9 9 9 9 13 20 20
89 90 88 86 89 89 92 87 76 86 91 94 84 72 70 64 58 52 57 63 63 59 55 55 55 51 46 35 33 28 18 18 16 15 15 14 13 12 11 11 10 10 9 15 19

GFSSW_prec_cthk_018.txt.gz
RH
16 13 11 9 8 8 7 8 9 9 9 9 9 10 9 8 7 5 4 4 8 15 26 30 33 39 46 58 71 75 73 68 57 60 56 57 54 53 47 44 54 56 56 58 58
24 21 18 15 12 10 9 8 7 8 9 9 8 9 9 9 8 7 6 5 5 10 22 30 36 42 51 56 70 75 70 59 50 52 53 55 55 57 52 41 46 51 52 52 54
27 25 24 22 19 16 12 10 8 7 7 8 9 8 9 9 9 7 7 7 4 5 18 28 34 41 48 50 64 68 65 57 50 48 48 53 59 58 53 43 31 38 43 44 46
30 28 26 24 22 21 18 15 12 9 8 7 7 8 8 8 9 10 10 8 8 5 9 26 37 42 44 45 50 59 55 56 50 43 44 49 57 64 54 46 44 34 31 39 38
31 30 28 26 24 22 21 19 17 14 11 9 7 7 7 7 8 10 11 9 8 6 6 15 32 38 39 41 44 47 52 56 51 42 39 44 53 58 55 56 54 47 28 35 38
30 29 28 27 26 24 22 21 19 17 15 12 9 8 6 6 8 8 8 9 8 5 6 10 21 32 32 33 36 36 42 48 46 41 38 42 51 53 60 61 65 57 36 28 37
28 28 28 28 27 25 24 22 20 19 17 15 12 10 8 6 7 9 8 7 10 7 5 7 12 21 26 29 33 37 39 43 42 37 37 41 52 54 61 62 64 65 50 34 35
23 24 25 26 27 27 26 23 22 21 18 16 14 12 10 6 5 7 9 8 8 9 8 8 11 16 21 26 31 36 36 39 40 36 36 41 48 51 58 60 63 62 59 43 32
18 18 19 19 22 25 26 25 23 21 20 18 16 13 11 8 5 6 7 9 9 10 11 12 13 14 18 24 31 33 35 38 39 37 33 38 39 42 51 59 62 57 55 48 40
14 15 15 15 17 22 25 25 24 25 24 23 23 19 13 10 9 6 7 9 10 11 13 14 14 14 17 21 23 30 31 35 37 36 36 36 39 44 52 56 60 62 57 50 40
10 11 12 12 13 19 22 25 25 25 23 23 22 19 14 12 11 10 9 9 9 10 14 13 16 14 12 15 22 30 32 34 36 36 33 34 38 47 50 58 59 60 55 52 39
9 9 9 9 9 16 20 23 27 29 27 21 20 19 19 16 14 12 12 10 10 12 14 15 15 13 10 13 18 24 29 32 36 35 33 29 29 40 46 46 52 59 51 56 46
8 8 8 7 7 10 14 20 22 26 27 21 20 19 20 19 17 14 13 11 10 12 13 14 12 12 12 12 15 20 24 29 34 35 34 34 33 34 43 49 53 58 59 51 47
9 9 8 8 8 7 11 16 18 23 24 19 19 19 18 19 18 16 15 12 12 11 13 14 12 12 12 12 13 17 20 26 32 35 37 38 36 37 43 48 51 54 56 46 44
10 10 10 10 10 8 9 12 17 21 29 19 17 17 17 17 17 18 16 15 12 12 13 14 12 12 12 10 11 12 17 24 29 34 35 36 32 28 38 50 50 52 44 47 41
10 11 13 12 9 11 8 12 18 23 30 20 17 17 18 17 17 18 19 19 15 14 13 13 13 12 10 9 10 11 13 20 28 31 34 27 31 26 34 39 45 48 43 45 45
10 11 15 16 16 13 10 14 20 25 18 21 21 21 20 19 17 19 20 21 19 20 18 16 16 13 11 11 11 12 14 22 26 31 25 25 30 21 22 25 34 40 38 41 42
10 10 12 19 18 15 12 20 24 18 19 22 25 24 22 23 20 20 20 21 22 19 20 21 21 15 13 12 12 13 14 21 25 25 23 25 24 21 20 25 33 34 37 39 43
11 10 16 18 20 18 16 25 23 23 23 26 26 27 29 27 25 22 23 20 23 21 21 24 22 17 14 13 13 15 15 11 16 19 20 22 18 19 20 24 31 32 36 37 39
17 14 18 20 20 23 27 27 28 32 33 29 30 34 35 34 30 29 26 30 28 27 25 22 23 18 17 17 15 14 12 16 18 20 21 18 16 18 17 19 25 30 33 34 35
22 22 23 24 24 27 39 42 34 36 37 36 36 36 38 39 37 34 32 35 33 32 31 30 21 18 18 20 17 16 16 16 16 17 19 18 14 12 12 14 18 24 30 32 30
31 35 33 31 35 46 46 48 52 36 40 43 40 41 39 41 41 40 40 42 37 37 39 36 33 26 20 17 17 16 15 16 17 16 16 16 12 9 9 9 13 19 25 29 27
43 43 42 43 53 54 52 51 53 62 52 47 49 47 43 43 47 50 46 45 41 39 44 38 38 31 25 23 19 18 18 17 15 16 16 16 12 7 8 9 8 12 19 26 27
59 57 54 60 63 68 66 57 57 67 77 64 56 54 51 50 48 57 54 50 44 43 42 40 42 37 34 29 29 26 19 17 16 16 15 14 11 10 9 8 8 9 12 18 23
75 75 75 72 74 76 76 68 73 68 71 87 79 64 58 55 53 54 59 55 49 47 45 45 44 40 37 34 30 27 25 22 19 15 15 12 11 11 10 10 9 8 8 10 15
86 87 85 88 82 82 83 84 82 75 76 76 95 87 75 62 56 59 58 63 60 54 50 51 49 46 42 35 30 30 26 24 21 19 17 14 13 11 9 9 9 9 8 9 10
87 92 90 87 91 90 90 86 86 85 75 88 88 85 80 72 69 59 53 51 60 63 57 54 56 53 48 39 37 32 23 22 21 19 17 15 14 12 11 11 11 9 9 9 10

GFSSW_prec_cthk_021.txt.gz
RH
26 24 22 20 17 13 11 9 8 7 8 9 9 8 9 9 8 6 5 5 7 13 24 31 36 38 47 57 63 72 74 63 56 59 55 59 57 48 43 51 57 58 60 60 61
29 27 25 24 22 20 17 13 10 8 7 8 8 8 8 9 8 7 7 5 5 8 17 30 38 38 46 54 65 72 69 59 53 48 44 51 55 55 45 41 54 52 54 57 58
30 29 28 26 24 22 21 19 16 12 10 8 7 8 8 8 8 8 7 6 5 4 11 27 35 37 43 50 62 69 64 54 49 48 45 47 54 59 50 44 37 45 48 51 55
29 28 28 27 26 24 23 21 19 18 14 11 9 7 7 7 8 8 9 8 7 4 6 26 34 38 39 45 55 62 58 53 47 44 45 44 48 54 56 48 45 34 43 48 48
26 26 26 26 25 25 25 23 21 20 18 16 12 10 8 6 7 9 10 9 8 7 9 19 30 37 36 42 47 55 53 50 46 40 39 41 40 45 55 54 50 45 34 44 45
19 19 19 21 23 25 25 24 23 22 21 18 16 13 11 8 6 8 9 10 9 13 11 15 24 33 36 34 39 46 43 42 45 42 39 44 40 45 50 55 56 53 40 35 41
17 16 17 17 18 18 22 25 25 24 22 21 18 16 13 9 6 7 8 9 9 8 11 9 12 25 29 31 34 37 37 35 43 44 41 42 45 50 48 51 57 59 53 37 37
13 14 14 15 16 16 19 22 25 25 24 22 20 17 15 13 8 7 8 8 9 11 8 8 10 17 25 25 28 32 31 31 41 42 42 38 37 49 54 54 56 59 59 47 36
9 10 11 11 12 14 18 20 24 27 26 23 21 18 17 14 11 7 8 8 9 12 12 9 11 13 17 22 24 27 28 32 40 40 38 37 38 41 46 50 52 57 57 51 39
7 8 8 8 9 10 14 17 21 25 29 28 26 22 17 15 10 8 8 10 11 12 15 13 14 14 14 17 19 22 27 32 39 38 33 38 38 40 47 49 49 56 56 53 41
7 7 7 6 7 8 11 14 17 22 25 29 28 24 19 16 17 10 8 11 12 13 14 15 14 14 12 12 17 22 28 33 40 38 35 35 36 42 45 46 50 52 59 54 48
8 8 8 6 6 8 10 13 17 19 20 20 23 23 22 19 20 16 10 10 12 13 15 16 14 12 12 12 14 18 25 29 38 35 33 32 30 33 39 46 49 50 58 57 52
10 9 9 7 7 7 8 13 15 16 20 16 18 23 24 22 21 20 16 12 12 13 13 12 12 13 13 12 11 13 17 26 32 35 32 33 29 33 36 41 45 52 48 58 51
11 11 11 9 9 7 10 13 12 16 18 13 15 19 22 24 21 20 20 16 14 14 13 13 13 13 12 13 10 10 13 22 31 35 35 32 29 35 34 40 38 47 44 47 48
11 12 12 12 11 12 13 12 13 19 14 16 15 17 18 22 22 22 20 21 15 13 15 13 14 14 15 11 11 9 11 17 26 32 34 32 31 28 36 39 39 42 44 42 43
9 10 11 14 13 13 12 11 20 20 19 17 16 16 19 18 20 22 23 22 20 17 14 13 14 15 12 12 12 12 13 16 23 29 29 27 29 23 29 32 36 40 41 38 41
10 10 12 15 14 14 12 12 21 23 16 20 20 20 20 19 18 21 23 22 22 19 18 16 15 13 13 14 13 13 13 17 19 22 22 24 28 21 24 28 29 34 34 37 40
10 11 14 16 15 12 14 13 23 19 22 24 25 23 21 22 20 21 23 24 25 21 19 19 20 15 13 14 13 13 13 13 17 15 18 22 19 18 20 25 29 32 35 34 38
13 12 17 18 16 15 18 16 23 31 33 30 26 28 28 26 24 23 22 24 26 25 22 20 18 16 14 14 14 15 15 10 12 15 15 14 14 14 17 20 23 26 35 32 31
20 17 22 20 20 21 22 26 35 43 39 33 32 33 34 32 30 27 26 31 29 31 28 24 24 18 18 17 16 14 13 15 14 15 15 12 14 11 14 15 21 28 32 33 30
29 29 31 28 29 31 33 36 35 42 44 43 40 39 39 38 36 33 36 34 33 34 32 28 24 22 21 19 18 17 17 14 14 12 11 11 9 10 10 12 17 25 29 33 34
40 42 42 39 39 42 41 41 38 39 48 47 46 46 42 43 40 40 41 40 36 37 37 34 27 24 22 21 19 18 16 16 16 18 12 11 9 8 8 9 10 17 26 32 34
49 57 56 54 59 58 54 50 46 49 55 56 54 54 50 47 46 48 47 45 41 40 40 36 34 32 26 23 22 22 20 19 16 15 17 13 10 8 9 9 9 10 16 24 32
54 61 66 67 70 67 64 58 56 57 63 74 71 56 54 54 49 53 54 51 45 44 42 39 37 33 28 26 27 25 22 21 18 19 16 14 11 10 9 10 9 9 10 16 22
60 65 75 77 78 75 72 67 67 68 64 74 88 84 69 54 50 51 56 56 52 48 45 44 42 39 36 35 31 28 25 23 22 20 19 14 14 13 11 10 9 9 9 12 18
70 73 74 78 84 84 78 77 77 78 75 69 94 93 88 85 60 58 57 59 59 53 48 47 46 46 40 35 32 31 28 26 24 21 20 17 16 14 12 11 10 8 8 9 12
78 79 82 81 78 88 84 81 81 80 80 81 90 95 88 86 77 70 57 54 56 59 56 50 48 48 42 39 36 33 27 26 26 25 21 19 17 14 13 11 10 9 9 9 8

GFSSW_prec_cthk_024.txt.gz
RH
29 28 27 25 24 22 19 17 12 10 8 7 8 8 7 8 8 7 6 6 7 14 22 35 43 47 53 63 68 71 65 58 54 55 47 47 51 46 44 55 56 60 62 63 64
28 28 27 27 25 24 22 20 18 14 11 9 7 8 8 8 8 7 7 6 6 7 19 35 43 43 50 57 62 69 66 57 52 44 42 44 51 45 43 51 52 54 60 62 62
26 25 25 25 25 25 24 22 21 19 17 12 10 8 7 8 8 8 7 6 5 5 15 28 40 40 41 53 58 61 65 58 51 48 44 44 52 54 47 45 47 50 53 59 58
18 18 18 20 22 23 23 24 23 22 20 18 14 10 8 7 8 8 9 8 6 7 12 24 38 39 38 44 54 59 59 56 50 46 43 37 47 54 53 47 37 42 49 53 56
17 16 16 17 17 17 19 21 23 24 22 20 18 15 12 10 7 7 9 9 8 10 12 19 31 38 36 38 46 57 56 51 47 44 42 35 39 50 54 49 46 31 42 47 53
13 14 14 14 14 16 17 17 21 25 25 22 21 19 16 13 8 7 8 8 11 13 14 16 22 32 37 38 42 49 54 52 42 38 40 35 38 44 48 51 50 45 32 42 45
10 10 11 11 12 13 14 17 19 22 25 26 23 21 21 15 9 7 10 12 14 15 14 15 18 28 31 36 33 42 45 44 41 38 37 38 37 47 49 50 52 53 43 36 40
7 7 8 8 9 10 11 14 17 20 24 26 26 23 22 18 14 9 11 16 20 18 18 22 21 25 26 27 27 32 32 34 37 41 39 42 44 48 51 53 52 53 53 37 33
7 6 6 6 6 7 9 11 14 18 21 26 27 28 23 19 17 12 12 13 18 18 21 22 23 20 24 25 26 27 29 31 34 39 43 46 43 45 50 46 46 54 53 50 35
7 7 7 6 5 5 6 9 12 15 20 26 32 29 23 19 18 14 13 13 18 21 18 17 17 12 16 21 22 24 26 28 31 36 40 40 42 44 46 46 46 47 55 52 43
9 8 7 7 7 7 6 10 15 20 17 21 28 26 25 21 20 15 13 15 20 21 14 13 12 10 10 12 16 21 24 26 28 36 40 39 39 40 42 47 48 46 49 52 50
10 9 9 8 7 7 8 12 14 15 14 11 13 20 28 25 23 17 14 15 14 16 14 14 12 10 11 10 13 16 19 23 29 34 38 38 36 38 40 43 46 46 47 51 55
9 9 8 9 9 10 12 14 17 16 16 10 11 13 19 26 23 22 15 16 15 15 13 12 12 11 11 13 12 12 16 21 27 35 36 38 34 35 35 37 41 45 48 47 49
10 9 8 6 13 12 18 15 15 17 17 10 11 13 14 21 24 23 17 17 16 16 14 14 14 13 12 12 11 11 11 19 24 31 34 36 35 33 32 36 36 39 43 43 46
9 9 8 8 10 16 16 15 16 22 14 15 14 14 15 17 20 22 24 17 15 16 17 15 14 14 13 10 12 10 10 13 20 25 31 32 30 29 33 33 33 35 41 41 40
10 8 7 12 14 17 14 14 18 22 16 16 15 16 17 18 19 22 24 21 20 19 18 17 15 14 13 13 12 11 10 11 14 22 26 25 27 24 28 30 33 37 38 38 38
12 9 10 10 13 13 12 17 19 17 16 22 20 19 18 18 22 22 24 24 25 21 18 19 17 16 15 15 13 13 15 14 14 15 17 21 23 20 26 28 30 33 35 35 38
15 13 14 15 15 13 14 20 21 20 28 29 27 23 22 21 19 22 25 25 26 23 21 21 19 15 14 14 14 14 14 11 15 12 13 17 18 18 21 25 28 31 33 35 32
19 20 23 22 18 18 22 21 19 44 46 36 28 27 25 26 24 22 23 25 25 25 24 22 21 17 15 14 14 15 13 9 12 14 14 11 13 15 17 20 24 28 30 30 29
23 26 28 24 24 27 31 33 44 48 46 37 35 37 39 35 30 25 24 27 27 28 30 26 25 21 18 15 14 15 12 14 12 16 16 11 12 15 13 15 19 24 27 29 29
32 33 32 29 35 41 45 46 38 39 41 44 49 46 48 44 38 33 33 32 32 33 34 30 26 25 21 16 17 16 17 14 12 10 12 13 10 11 11 13 16 20 26 27 33
39 37 36 36 48 49 49 45 41 48 52 46 48 46 49 52 46 45 46 41 36 37 35 33 31 31 23 21 18 17 16 15 13 15 11 12 12 10 8 9 14 18 23 29 34
49 46 47 46 52 59 59 57 52 54 54 57 59 54 55 55 57 54 53 46 40 40 40 38 31 33 31 27 23 20 18 17 15 13 15 13 11 11 10 10 13 18 23 26 30
63 56 55 58 60 64 66 65 62 65 59 56 77 67 54 49 59 61 57 50 46 43 40 41 34 31 28 26 26 24 20 19 18 16 14 15 14 13 10 11 11 12 18 23 30
75 66 68 63 63 66 72 69 69 67 64 60 85 90 78 55 60 61 64 57 51 47 42 41 39 38 36 35 30 26 23 21 20 19 17 15 15 14 14 11 12 11 13 21 27
84 74 74 72 71 67 70 74 68 72 72 71 75 90 91 82 69 84 72 65 60 54 50 44 46 42 38 36 33 30 27 24 22 21 20 18 17 17 16 14 11 11 10 10 15
93 84 78 76 75 70 69 68 73 69 73 79 74 79 82 87 79 69 64 69 62 60 53 50 47 44 40 35 35 34 28 27 25 23 22 20 20 18 17 16 14 11 10 9 9

GFSSW_prec_cthk_027.txt.gz
RH
26 25 25 25 25 24 23 21 20 17 13 10 7 7 8 8 8 7 7 7 8 13 23 31 36 50 57 59 59 58 77 65 53 57 57 51 47 50 56 56 57 61 60 63 66
19 19 20 21 22 22 23 23 21 20 18 14 10 8 7 8 8 8 8 7 6 8 21 36 41 47 58 59 57 56 76 78 55 48 52 48 61 42 49 51 53 57 61 63 62
17 17 17 17 17 17 18 20 22 21 20 19 16 11 8 7 9 8 8 7 6 5 14 34 49 46 53 55 56 57 71 74 48 47 44 53 60 49 45 50 51 52 56 59 59
14 14 14 14 15 16 17 16 18 20 21 20 19 17 12 9 10 12 7 7 7 6 10 28 42 44 43 52 53 55 62 68 53 45 44 50 61 64 51 54 46 48 52 57 56
11 11 12 12 13 13 14 15 16 18 21 23 22 20 17 14 9 9 7 8 9 7 9 20 31 42 38 44 54 51 56 56 54 47 45 39 45 68 57 45 34 41 46 53 57
8 8 9 10 11 12 12 12 14 16 19 23 25 22 20 17 12 9 9 8 10 11 11 17 22 36 43 39 45 52 55 55 50 45 41 36 36 43 59 49 45 26 40 46 55
6 6 6 6 7 9 10 11 12 14 17 21 25 26 25 20 15 10 10 10 12 12 14 15 18 31 39 38 36 48 52 53 50 39 38 37 39 44 57 47 49 44 30 40 45
7 6 6 6 5 5 6 8 10 12 15 19 24 27 27 23 19 12 12 13 16 17 19 19 21 24 33 36 38 38 45 51 43 39 37 35 42 47 50 51 48 50 46 34 39
8 8 7 7 6 6 6 6 7 10 12 16 21 29 27 24 21 18 12 16 20 22 22 25 23 25 28 35 32 28 33 38 44 40 38 37 41 55 50 55 56 54 53 46 37
7 7 7 7 6 6 6 7 10 12 16 19 22 28 25 25 21 20 16 17 24 25 26 26 25 24 24 29 26 27 25 32 35 37 41 41 42 49 52 55 58 55 54 53 45
7 7 7 6 6 6 7 12 16 23 24 17 21 18 22 24 24 21 19 20 24 29 25 24 24 23 16 25 24 26 30 29 32 34 35 41 45 43 46 51 56 58 49 50 50
7 6 6 6 7 9 12 14 16 18 15 11 8 12 18 22 26 21 22 21 20 26 23 20 20 16 17 16 19 20 26 29 29 32 35 39 42 39 43 47 52 57 51 51 52
7 6 5 5 8 12 17 18 15 17 17 9 8 8 9 18 22 25 20 20 20 26 22 14 13 12 12 12 12 14 19 24 28 31 32 38 39 40 38 43 52 54 54 50 45
8 7 6 5 11 10 19 14 15 19 18 9 10 10 9 12 17 23 20 21 22 25 25 17 15 14 11 11 11 10 11 19 27 29 31 33 38 38 36 37 46 46 52 47 47
8 8 7 10 11 17 14 11 13 19 16 14 14 13 13 11 12 16 21 22 20 21 23 17 15 15 13 10 11 11 13 12 18 26 31 32 36 32 36 35 37 40 45 48 43
11 11 10 16 19 18 12 10 16 20 18 16 16 16 16 13 14 18 20 23 26 23 21 20 16 15 14 13 12 13 14 14 14 17 24 26 31 32 31 33 35 39 42 45 42
14 14 14 18 19 16 14 16 23 18 16 32 27 22 19 19 17 20 20 19 21 23 19 19 18 17 15 15 13 14 13 14 13 13 16 18 21 24 29 30 33 36 38 41 41
19 21 24 23 20 18 19 23 28 22 41 43 38 33 27 23 21 22 22 22 20 22 21 21 20 17 16 15 14 14 12 13 14 12 12 14 19 18 25 30 30 34 37 44 43
25 31 32 22 21 21 27 36 35 43 54 52 41 34 25 25 26 26 23 23 21 18 21 23 21 20 18 15 15 16 13 10 13 13 12 12 13 17 23 26 28 31 34 38 43
33 37 38 22 24 32 49 49 62 68 58 54 51 51 51 44 33 31 28 24 27 23 26 27 28 23 20 20 17 18 13 14 13 17 16 14 16 16 17 20 23 26 29 32 36
45 41 40 23 37 53 55 59 63 57 55 49 53 58 67 69 58 42 32 33 32 33 30 29 32 29 25 19 17 16 19 15 13 11 16 19 15 14 19 19 20 23 26 30 32
53 50 43 31 47 54 63 51 49 45 53 57 54 56 67 73 71 57 50 53 36 35 34 30 34 34 23 21 20 18 16 18 15 16 12 14 15 15 15 15 17 19 23 26 31
68 58 51 40 50 55 54 54 67 69 56 58 49 74 81 75 80 81 74 56 44 42 45 42 38 36 34 28 23 21 18 17 16 15 17 15 17 17 15 11 15 18 24 27 32
77 67 57 51 56 58 55 61 68 65 61 56 64 57 59 68 71 74 81 64 52 46 44 45 38 35 31 25 24 23 19 18 17 17 16 17 16 18 16 14 15 20 25 28 33
83 77 72 56 59 57 58 60 77 70 64 59 76 70 63 63 75 90 86 70 58 49 50 46 46 39 35 34 30 26 23 20 19 18 17 18 19 21 18 17 16 18 22 25 28
91 89 81 68 68 65 74 71 58 65 60 60 64 76 70 69 66 86 89 80 74 61 54 48 46 46 41 39 40 34 31 24 22 20 19 18 20 23 23 18 16 16 17 20 22
97 96 95 76 72 73 74 70 59 59 61 68 68 65 69 73 68 64 80 74 69 63 60 53 47 51 47 43 44 40 30 28 28 23 21 21 22 25 25 22 19 17 15 15 18

GFSSW_prec_cthk_030.txt.gz
RH
16 17 17 18 18 18 19 20 20 19 18 17 14 9 7 7 8 7 6 7 7 11 20 28 27 41 55 67 67 76 86 83 72 68 65 57 57 50 65 56 60 58 56 64 67
14 15 15 15 16 16 16 16 17 18 19 18 17 14 10 7 7 7 7 7 7 8 16 30 29 40 53 60 62 70 90 76 66 67 64 49 60 51 46 54 56 56 59 63 64
11 12 12 13 13 14 14 14 15 15 17 18 18 18 15 10 8 6 7 7 6 5 9 28 32 38 52 55 58 63 76 62 60 56 51 56 48 57 48 48 56 53 55 58 61
9 9 9 10 11 12 12 12 13 15 15 18 20 20 18 14 12 14 8 7 7 6 7 21 38 37 47 51 56 59 72 69 62 52 48 59 63 56 57 70 53 50 55 55 58
7 7 7 8 9 10 10 11 11 12 14 16 20 21 20 19 12 11 8 7 7 7 6 13 32 40 40 50 55 56 61 63 59 45 44 46 61 61 55 45 40 47 51 55 57
7 6 6 6 6 6 8 9 10 11 12 15 18 22 23 20 16 13 10 8 7 8 8 9 21 37 44 46 47 53 54 60 64 60 47 38 40 36 53 48 32 38 44 52 54
7 7 7 7 6 6 5 5 7 9 11 13 17 22 25 23 19 13 14 10 9 8 9 8 16 27 42 40 43 51 53 52 54 51 46 43 42 40 63 58 35 35 39 45 49
7 7 6 6 5 6 6 6 5 6 9 10 14 20 22 25 21 17 12 14 11 10 10 11 17 22 32 42 42 42 44 49 50 50 43 38 38 49 52 59 39 43 40 38 44
6 5 5 5 5 5 5 6 8 9 10 9 13 20 20 22 23 23 17 13 14 15 14 16 18 19 28 38 42 37 38 38 48 45 41 36 37 43 52 64 50 45 45 43 38
6 6 5 5 5 6 6 8 10 11 18 15 18 20 15 20 24 24 22 17 17 20 19 22 24 21 24 29 34 36 35 33 40 47 40 37 38 42 50 65 62 46 41 47 41
6 6 6 6 6 8 10 11 11 18 16 23 23 14 16 18 21 23 24 20 20 26 26 25 28 20 17 23 27 35 32 28 35 35 41 35 40 39 50 67 73 58 54 42 46
7 6 6 5 7 9 14 16 14 13 13 11 10 14 14 17 18 21 24 22 22 26 28 30 23 21 23 24 25 28 30 31 29 31 32 39 31 43 49 57 63 56 75 48 47
8 7 7 6 7 11 15 15 11 13 15 10 8 8 8 13 14 16 21 23 23 26 29 25 20 23 25 25 21 26 28 26 30 28 32 39 39 39 41 47 47 54 41 55 42
9 9 8 8 11 14 14 10 10 12 14 7 8 8 9 9 11 15 16 22 27 26 29 27 24 21 24 22 21 20 22 23 32 29 27 28 32 35 38 43 41 46 55 65 44
13 12 11 14 14 18 12 11 10 13 20 15 13 14 11 9 10 12 17 19 27 24 28 26 22 19 18 18 16 13 15 19 23 29 28 28 29 29 34 34 38 40 44 52 50
16 15 16 19 23 20 15 12 14 22 19 27 28 24 19 14 13 18 18 16 24 27 26 27 28 20 16 14 12 12 13 14 14 23 27 27 28 30 32 33 34 38 43 46 48
18 18 23 23 24 18 16 18 22 29 17 34 38 32 27 24 16 18 24 22 17 26 27 28 29 26 17 18 14 14 14 17 18 16 19 22 28 28 29 34 37 36 37 45 47
19 23 28 30 27 21 23 27 33 31 51 44 42 39 32 31 29 21 28 28 17 21 27 25 24 23 17 16 15 15 14 15 20 17 16 15 17 17 27 31 38 36 37 41 44
21 31 39 40 28 29 34 36 54 59 62 54 50 48 53 54 42 40 24 27 22 18 24 26 23 21 20 18 18 18 14 13 14 15 15 14 13 15 18 25 30 30 33 37 39
31 41 47 42 29 36 46 42 50 58 51 53 54 54 64 62 56 56 37 31 29 22 24 25 30 22 21 21 18 18 17 16 15 19 18 14 15 14 15 18 26 29 30 34 37
45 51 50 50 40 50 49 46 47 52 51 58 55 54 63 80 74 68 55 42 43 39 28 26 28 26 26 23 20 19 21 19 15 13 17 19 14 14 16 17 22 24 25 33 36
57 60 56 49 48 47 50 46 55 53 53 55 51 52 72 79 82 85 83 78 59 48 41 29 25 30 31 26 24 20 18 20 17 18 16 17 17 15 16 17 19 22 25 31 35
66 64 64 58 55 51 49 46 47 61 61 51 50 58 64 72 84 90 91 88 68 55 57 50 32 32 37 31 27 22 20 20 21 16 17 17 17 17 17 22 23 19 29 29 33
79 73 72 64 64 61 57 51 57 66 66 64 51 56 57 73 76 89 87 85 72 64 52 50 40 38 35 30 28 28 26 23 22 18 18 17 20 21 18 18 19 17 23 25 28
88 83 84 75 68 61 60 68 81 69 66 59 58 69 60 66 73 74 78 79 83 68 56 53 47 42 38 34 32 26 24 23 19 20 19 19 19 24 21 19 21 22 24 29 30
92 95 90 84 76 69 66 73 71 61 58 52 58 63 57 60 76 80 82 80 91 71 64 55 49 49 47 39 41 35 27 23 23 20 23 20 19 22 25 19 22 22 25 27 31
89 97 97 84 79 76 73 68 62 64 63 59 66 57 49 64 73 69 67 67 75 74 66 62 62 59 49 48 45 42 33 28 24 23 23 21 22 23 25 25 22 18 22 25 27

GFSSW_prec_cthk_033.txt.gz
RH
13 13 13 14 14 14 14 14 14 13 14 16 16 16 14 8 6 7 6 7 7 11 20 26 26 34 47 68 72 82 94 92 82 74 73 74 65 66 61 66 60 59 57 62 64
10 10 11 12 12 12 13 13 13 13 13 13 15 17 17 14 8 5 6 7 6 8 14 23 28 29 50 62 75 78 86 89 78 76 65 76 78 61 57 55 59 58 60 62 60
8 9 9 9 9 10 11 11 12 12 13 13 13 15 18 17 13 6 5 6 6 6 8 18 28 27 44 55 62 73 78 71 66 72 72 67 65 71 68 54 47 51 55 60 59
6 6 7 7 7 8 8 9 10 11 11 12 13 15 16 19 16 13 8 6 6 6 6 13 29 31 38 53 57 69 70 65 58 57 63 68 66 66 62 60 47 42 50 55 56
7 7 6 6 6 6 6 7 7 9 10 11 12 15 17 19 17 14 11 8 7 7 5 8 25 32 35 49 55 57 61 64 51 57 55 54 50 53 65 60 47 42 47 50 53
5 5 5 5 5 5 5 6 6 5 7 10 11 14 17 22 18 16 13 9 7 7 6 5 16 33 37 46 50 53 58 59 60 55 64 56 45 47 54 54 43 36 44 46 48
5 5 5 5 4 4 5 5 6 7 7 7 10 12 18 18 19 19 15 13 9 7 7 5 9 27 38 47 50 53 61 58 64 62 56 61 61 54 54 64 55 36 39 44 45
6 6 6 5 5 5 5 6 7 8 9 10 9 10 15 13 17 20 19 17 13 10 8 8 7 18 34 40 49 52 52 58 53 54 52 57 61 56 52 54 59 46 41 42 44
6 6 6 5 5 6 7 8 8 7 9 13 13 16 12 12 17 20 20 20 16 13 11 9 11 15 25 36 42 46 50 46 47 49 53 45 46 53 59 59 66 60 50 44 45
7 7 6 6 5 7 9 10 7 12 12 14 19 19 9 8 14 21 21 20 18 15 16 12 14 16 20 28 35 38 44 40 41 42 51 46 39 53 61 63 64 75 67 56 43
8 7 6 6 6 8 10 11 8 10 9 9 8 18 14 17 16 18 24 24 20 21 20 16 19 17 15 20 27 36 39 34 34 38 50 40 38 49 65 61 57 61 72 74 49
9 9 8 7 7 10 13 12 9 10 9 6 6 7 8 18 17 16 19 25 22 23 23 23 21 16 18 18 22 31 37 36 35 32 45 42 43 55 56 54 54 55 69 70 53
9 10 9 9 9 12 13 10 9 9 10 8 9 8 7 10 16 16 17 20 21 25 25 24 18 20 23 20 21 24 30 31 33 30 35 38 40 56 56 52 54 56 69 69 57
10 11 10 10 11 12 13 10 10 11 15 18 14 14 14 8 11 16 17 18 22 23 28 29 25 27 25 25 22 24 23 28 29 36 37 32 42 44 53 52 51 52 59 49 56
13 11 10 14 15 16 14 13 13 17 19 14 25 26 21 14 9 8 19 18 19 23 30 28 28 28 28 22 24 24 22 24 27 34 36 34 38 35 43 49 52 52 53 50 57
13 14 13 18 19 16 18 18 18 22 22 17 29 32 25 23 17 15 17 20 20 23 26 31 35 32 27 24 27 26 28 26 25 31 34 30 33 33 33 36 43 49 49 55 54
14 16 18 23 20 20 24 25 26 28 22 19 34 34 38 37 32 29 22 31 23 24 25 33 31 36 28 28 24 27 27 25 23 27 25 26 30 27 30 29 32 44 50 51 47
15 20 24 29 28 26 31 35 41 32 34 25 28 41 51 53 48 41 33 25 30 21 28 33 32 32 34 24 22 19 16 18 22 20 20 20 20 21 25 29 34 34 42 49 52
19 26 30 37 35 32 35 40 41 40 35 31 28 40 53 61 64 59 51 38 28 27 26 33 28 31 32 28 22 20 16 14 17 18 20 15 12 16 18 25 29 35 42 49 48
28 36 37 43 43 39 43 45 44 44 48 43 46 53 56 66 75 73 68 54 54 58 47 29 39 32 33 38 24 21 21 17 16 22 22 17 14 11 10 15 24 27 37 42 46
38 49 48 51 44 45 47 49 43 44 45 48 56 60 55 76 77 79 79 75 77 69 60 41 33 27 35 34 27 21 24 20 16 20 24 25 18 13 14 14 20 24 30 35 38
42 56 57 56 54 48 45 42 42 45 45 52 60 55 64 65 73 75 87 93 91 83 65 55 46 34 31 29 27 25 21 21 19 18 17 18 19 19 18 15 15 23 23 34 37
40 61 69 65 59 53 46 41 46 51 62 57 61 54 55 71 77 83 83 82 90 86 74 72 51 40 33 33 32 28 23 21 22 20 18 22 23 18 18 15 16 18 23 28 35
40 57 71 68 66 61 53 49 51 61 57 61 49 57 58 59 75 80 84 80 85 87 84 73 53 50 40 30 29 30 28 24 24 22 16 20 20 23 20 18 18 19 19 21 29
41 57 86 83 75 70 64 60 65 59 70 61 53 53 61 62 69 79 77 76 75 84 81 71 52 47 40 34 33 35 30 28 23 23 19 17 23 25 23 22 24 23 19 24 28
46 66 88 93 82 75 73 74 73 58 54 54 59 57 57 66 72 75 73 73 79 82 82 69 61 53 45 37 38 40 31 28 23 21 22 17 20 23 23 23 23 23 22 25 29
59 81 96 95 88 82 79 82 81 74 64 60 57 49 54 60 71 65 60 64 69 73 79 73 65 59 49 44 46 49 41 31 27 23 21 20 21 29 27 24 22 23 22 26 27

GFSSW_prec_cthk_036.txt.gz
RH
9 9 9 10 10 11 12 12 11 11 11 12 12 14 15 15 12 6 5 7 7 11 18 21 28 34 50 58 74 80 79 77 78 87 88 87 79 84 75 72 66 64 60 59 59
8 8 8 8 8 8 9 10 10 11 11 11 11 11 14 16 15 10 6 6 7 7 14 21 24 36 54 55 75 80 77 72 71 76 83 88 89 80 66 66 66 62 56 59 56
6 6 6 6 7 7 7 8 8 9 10 10 10 11 12 14 17 13 7 5 6 6 9 17 22 26 44 59 68 72 76 72 72 72 73 75 71 74 63 57 54 52 54 57 53
6 6 6 5 5 5 5 5 6 7 8 9 10 10 13 14 19 14 10 6 6 6 7 12 24 28 36 53 59 69 68 66 63 64 69 63 63 57 59 50 56 43 49 52 53
4 4 4 5 5 5 5 5 6 7 8 8 9 11 13 15 17 17 15 10 7 7 6 7 19 30 34 42 55 65 61 61 66 61 58 56 61 57 52 54 55 44 51 51 51
6 5 5 5 4 4 5 6 7 8 8 8 8 9 13 18 16 18 18 13 10 7 7 6 10 29 34 40 51 53 57 60 65 60 58 55 57 53 58 56 44 37 46 49 49
6 6 6 6 6 5 6 7 7 6 6 7 9 10 12 11 12 17 21 17 12 9 7 7 6 21 35 38 48 53 59 56 60 64 64 62 54 55 60 62 61 54 39 45 48
8 7 6 6 5 6 7 7 7 7 8 8 11 13 10 6 10 13 21 22 19 13 9 8 6 15 30 36 44 53 53 55 54 60 63 66 66 61 65 65 66 56 45 42 46
8 8 7 6 6 7 8 7 6 7 9 6 12 15 10 8 8 14 17 23 23 18 12 10 10 10 25 35 42 49 49 48 49 57 62 61 66 63 63 67 66 59 49 37 42
7 8 9 8 7 8 9 7 5 6 8 7 15 15 9 8 14 14 17 23 26 23 18 14 12 12 18 31 34 42 46 46 47 47 55 62 60 65 58 59 60 62 58 44 39
8 8 9 9 8 10 9 7 7 7 6 9 10 10 7 12 13 16 18 21 29 25 22 18 16 14 12 20 28 38 44 43 40 42 45 52 61 67 56 58 57 59 59 54 44
9 9 7 8 8 11 12 9 9 10 8 11 11 12 10 12 12 17 20 19 23 27 26 26 19 12 13 17 22 32 38 39 42 41 40 50 60 66 52 50 52 57 58 59 52
10 10 8 8 9 11 10 9 9 10 11 11 14 15 13 13 12 17 24 22 18 22 27 28 21 18 17 17 20 24 31 33 36 40 40 50 61 67 63 63 60 61 55 57 55
9 9 9 9 11 10 11 11 12 13 16 13 14 16 19 16 13 15 24 29 26 21 26 30 27 25 22 18 16 21 21 29 33 38 41 44 57 70 65 62 63 60 54 47 56
9 10 10 13 13 13 13 14 15 16 16 14 16 16 20 23 22 14 26 28 30 27 23 23 28 32 25 19 19 16 18 27 32 39 40 42 45 58 57 60 54 56 48 48 52
9 12 15 17 17 16 17 18 18 22 25 19 18 16 13 25 28 24 25 28 27 31 25 22 30 33 29 27 25 23 21 26 33 40 49 37 40 40 57 52 49 50 42 45 48
11 16 20 20 24 20 24 24 26 28 23 23 19 18 17 19 35 32 34 35 41 36 30 29 28 35 40 38 36 33 34 36 41 44 42 31 39 31 38 47 46 39 36 43 44
15 21 24 26 29 27 31 31 34 29 28 25 23 23 24 22 25 44 44 46 48 50 37 31 33 31 40 43 39 35 35 38 44 37 32 25 32 26 30 33 39 38 34 42 44
15 24 28 31 34 35 37 41 38 31 28 28 28 33 32 35 28 55 56 62 65 70 73 39 26 31 37 41 43 35 34 30 30 24 23 22 23 24 26 25 30 40 49 48 44
13 26 31 38 41 41 41 44 41 32 34 37 45 50 48 50 38 62 66 71 78 82 75 58 43 30 33 47 41 31 28 30 30 26 24 19 19 18 22 21 23 28 38 36 44
14 25 33 42 50 47 48 47 40 40 40 42 44 55 53 55 51 74 76 77 89 89 79 69 55 30 43 45 38 35 32 27 27 26 23 22 14 12 16 21 23 27 30 32 43
17 26 32 44 61 59 56 52 48 44 43 44 50 58 65 65 60 68 76 86 82 88 94 81 72 59 40 31 42 41 32 29 24 21 21 20 15 15 14 14 15 20 30 30 39
24 24 33 56 70 71 67 61 55 48 48 47 51 55 58 66 68 72 84 82 86 88 96 94 81 67 38 40 42 44 36 24 23 22 18 17 16 17 18 18 19 18 24 27 34
29 38 54 71 78 75 76 68 63 61 60 56 55 58 57 52 64 72 80 83 84 84 93 94 81 69 60 44 43 38 36 32 23 23 19 15 19 20 19 18 18 16 18 24 30
35 53 72 84 83 81 82 75 75 75 73 66 58 56 59 55 54 60 70 75 80 89 94 92 78 61 53 47 47 42 38 33 27 21 20 15 18 20 20 24 18 17 18 26 29
53 73 82 92 91 88 82 80 85 87 88 78 81 62 54 58 67 61 75 74 79 83 90 90 81 58 47 45 44 40 34 34 30 22 21 18 19 21 23 26 19 20 20 24 26
75 85 92 95 96 96 91 90 88 88 90 85 81 71 60 59 61 59 65 64 72 78 84 85 77 64 64 53 45 44 42 38 30 26 23 23 20 24 28 34 29 25 24 25 26

GFSSW_prec_cthk_039.txt.gz
RH
8 8 8 8 8 8 8 8 9 10 10 10 10 11 11 14 16 13 7 6 8 10 17 20 24 30 48 56 64 79 82 81 78 80 81 81 81 81 81 75 70 66 60 61 65
6 6 6 6 6 6 7 7 7 8 9 9 10 10 11 11 13 14 12 8 7 8 12 17 24 34 48 54 71 80 80 73 72 76 79 78 82 77 79 73 70 62 57 61 63
5 5 5 5 5 5 5 6 7 8 8 9 10 10 10 12 13 16 14 8 7 7 9 14 21 29 45 51 68 79 80 74 71 73 73 71 78 65 65 63 57 57 57 60 61
5 5 5 4 4 4 5 6 7 7 7 8 9 10 10 12 16 17 14 9 7 7 7 12 22 30 34 46 55 72 75 78 74 73 72 71 71 70 71 59 52 48 52 56 54
7 7 6 6 5 5 5 6 6 6 5 7 7 8 10 12 12 15 18 13 8 6 7 9 14 27 32 42 51 64 73 75 74 74 68 65 66 62 63 61 50 41 50 51 53
8 7 7 6 5 5 6 7 6 5 6 5 6 8 10 13 11 16 19 18 12 9 8 9 9 15 30 37 45 63 72 71 69 64 64 63 63 57 57 62 60 43 45 46 49
8 8 8 7 6 6 7 7 6 5 7 6 5 9 12 7 8 16 21 24 17 12 10 8 7 10 26 32 41 58 67 62 60 58 56 61 61 57 62 68 63 52 40 46 50
7 8 8 8 7 6 7 7 5 5 7 8 6 12 9 6 8 8 16 24 24 17 13 10 10 10 20 32 34 46 59 58 56 59 61 59 62 62 60 65 62 58 48 40 45
7 7 7 7 6 6 7 7 6 5 8 7 11 14 11 11 11 13 11 19 27 25 18 14 12 11 15 31 35 41 49 53 57 57 60 60 64 65 60 66 61 60 55 40 42
8 7 7 6 6 6 8 7 6 7 7 9 12 14 10 10 11 16 15 15 26 30 26 19 15 13 14 25 36 36 45 48 52 54 58 61 61 64 59 62 63 62 58 56 51
9 8 7 7 7 8 8 6 7 6 7 10 12 12 11 10 11 17 19 17 23 31 29 23 20 15 9 13 25 32 39 46 49 58 58 59 56 59 57 61 65 63 62 62 54
9 9 7 7 8 9 9 9 12 12 9 10 13 13 12 11 12 15 19 22 25 26 30 29 23 15 14 12 20 30 34 41 43 54 50 50 52 55 58 51 56 56 59 63 63
8 9 8 8 10 10 10 11 12 13 12 11 15 13 12 13 14 18 20 24 25 28 29 31 26 23 19 15 16 23 32 36 38 54 50 54 54 48 59 62 67 61 63 65 63
9 10 11 11 11 10 12 12 13 12 16 15 16 14 12 12 16 17 23 26 29 29 31 32 28 32 25 20 15 19 21 32 39 52 54 51 64 64 61 61 63 62 62 63 64
11 12 14 12 13 13 14 15 15 15 18 19 18 17 16 14 14 16 20 28 32 32 30 27 28 32 34 22 18 17 18 27 36 47 54 49 48 59 59 66 62 59 59 59 59
12 12 15 15 16 16 16 17 17 21 22 23 21 20 18 16 16 16 20 25 36 38 32 27 24 32 28 33 25 20 21 23 33 44 50 44 49 44 54 52 56 54 54 52 55
10 13 17 18 19 19 20 22 25 27 24 25 24 21 19 20 19 17 20 37 49 55 45 37 27 28 36 38 39 28 28 36 38 53 40 31 46 33 36 36 44 46 49 45 50
8 15 18 22 23 23 25 28 32 28 29 25 23 21 21 22 23 20 22 30 52 55 63 62 40 30 28 39 43 36 35 42 45 42 39 31 37 32 27 29 34 38 43 47 50
8 15 20 25 26 25 29 39 39 34 32 31 26 27 28 29 25 25 28 37 52 74 70 74 52 38 34 36 44 46 39 35 33 26 31 30 27 26 26 27 31 37 41 47 48
9 11 21 26 28 31 37 45 43 42 40 37 36 32 35 32 33 36 39 39 49 82 78 76 70 42 31 41 46 47 45 44 40 38 32 28 25 27 24 24 26 31 32 38 46
12 15 25 26 31 43 51 51 47 49 48 45 44 41 37 39 42 51 52 46 49 79 88 81 75 53 42 42 39 47 49 42 41 35 32 24 19 18 20 22 24 25 25 29 38
16 19 21 30 48 61 62 62 56 57 56 54 50 44 42 47 52 56 66 66 56 86 94 86 83 76 53 38 42 48 50 48 42 37 31 29 18 12 14 19 25 25 24 24 28
21 22 30 52 72 78 74 73 70 70 66 63 56 56 52 55 60 60 54 61 63 86 94 94 88 77 48 42 40 49 49 40 38 35 31 31 19 14 12 13 24 28 27 26 24
30 43 58 67 78 83 84 82 79 77 72 71 66 63 59 60 61 60 58 64 76 80 91 96 92 79 67 58 60 57 51 43 39 37 29 22 17 16 15 14 17 26 27 23 22
52 66 80 83 85 91 92 87 83 84 81 81 74 76 77 72 60 56 57 72 82 87 89 98 92 74 65 63 59 53 52 47 41 32 26 18 18 16 17 18 20 23 21 15 17
74 80 87 92 95 96 94 91 91 90 93 92 94 89 85 78 64 61 68 65 81 89 93 96 96 71 58 53 55 53 53 50 44 34 30 22 20 20 23 24 27 24 20 16 17
82 88 94 96 97 98 97 97 96 98 94 95 94 90 83 77 74 71 70 70 77 84 92 97 94 75 66 56 58 62 60 57 48 48 38 24 23 26 28 30 31 31 22 17 18

GFSSW_prec_cthk_042.txt.gz
RH
6 6 6 6 6 6 7 8 8 9 10 10 10 10 11 11 12 14 12 9 7 8 14 20 28 33 40 58 64 75 82 84 77 78 80 82 81 82 80 73 68 67 63 64 67
6 6 5 5 5 5 6 7 8 8 9 9 10 10 10 11 12 12 12 9 6 8 10 15 23 35 46 54 62 72 80 77 71 74 74 79 79 81 78 72 68 61 57 62 64
7 7 6 6 5 5 5 6 7 7 6 7 8 10 10 11 13 17 17 16 9 7 9 13 16 30 40 47 61 75 82 71 71 74 73 72 71 73 71 69 62 58 58 60 64
8 7 7 6 5 5 5 6 6 5 5 6 6 6 9 10 13 19 18 14 13 7 9 11 16 31 41 46 55 71 78 78 75 75 75 73 68 63 59 56 54 52 54 57 58
7 7 8 7 6 6 6 7 6 6 5 6 6 6 7 8 9 14 16 19 13 9 8 10 17 22 35 42 47 65 75 80 77 76 74 71 70 66 61 55 50 50 55 55 53
8 7 8 8 7 7 6 7 6 5 5 6 7 6 7 8 8 14 16 20 17 11 11 10 14 16 23 33 44 61 64 73 76 74 69 63 61 57 55 55 53 50 53 49 50
7 7 7 7 6 6 6 6 6 5 6 6 6 8 10 8 9 12 15 23 23 15 12 11 12 13 15 28 37 57 69 65 67 66 66 57 58 56 56 57 53 44 47 48 47
7 7 6 6 6 5 5 6 6 5 6 6 8 10 10 10 9 11 12 18 25 20 16 15 15 13 13 25 33 45 55 63 63 63 60 57 58 57 57 55 59 50 39 45 47
8 7 7 7 7 7 6 6 6 6 6 8 10 12 9 10 9 11 12 14 22 24 21 17 18 14 14 21 35 43 58 58 63 59 59 55 56 58 59 61 59 56 40 38 45
8 7 7 7 7 8 7 7 7 7 7 9 10 11 11 11 11 12 14 15 19 24 25 23 18 15 15 19 38 42 42 54 60 58 57 57 58 63 64 64 59 59 53 50 47
9 8 8 8 8 8 8 7 7 8 8 10 11 11 11 11 12 14 15 18 20 26 28 27 26 19 12 14 19 33 41 47 57 57 58 59 62 65 62 66 65 65 60 56 52
11 9 9 11 11 10 10 9 12 13 11 11 11 11 12 12 14 14 17 23 23 28 29 29 27 23 18 15 15 23 33 40 47 56 57 59 60 65 59 57 60 61 62 62 57
13 11 10 12 12 12 13 13 14 12 11 11 13 12 11 13 14 16 16 20 24 28 31 30 24 26 26 20 16 16 27 33 42 54 63 58 60 64 60 57 61 64 68 65 59
15 12 13 14 14 15 15 15 15 14 16 15 15 15 13 13 14 14 13 21 23 27 32 35 28 29 31 27 21 18 14 27 37 51 61 62 58 60 56 56 54 58 61 65 60
16 12 16 16 16 17 17 16 15 14 19 18 18 16 15 15 15 14 14 15 24 29 30 34 30 33 33 29 26 19 14 16 32 45 54 55 61 46 52 56 52 51 58 61 61
16 14 16 18 18 18 17 17 16 18 22 21 21 20 20 19 19 17 15 16 21 26 32 32 31 32 33 33 35 29 24 18 23 43 52 48 56 48 54 43 45 52 57 59 62
17 13 17 18 18 19 18 19 20 21 22 24 25 24 24 23 23 21 24 27 29 26 39 36 35 32 34 35 39 38 31 42 38 44 41 38 51 43 35 38 42 46 50 52 59
16 12 18 17 21 20 19 21 23 22 25 28 28 29 28 25 24 23 22 34 34 35 38 47 33 33 36 34 39 41 37 39 46 41 31 35 45 40 32 31 40 44 45 51 59
15 9 15 20 24 23 22 27 28 28 33 35 34 35 33 30 27 28 31 40 44 40 47 49 44 33 43 38 39 45 46 34 34 30 31 24 31 34 33 32 36 40 43 43 49
15 11 19 21 23 24 29 36 37 42 44 43 44 42 42 39 37 36 33 37 43 37 38 52 55 34 39 48 40 42 47 51 43 42 37 30 22 27 26 29 30 37 39 37 42
16 14 24 20 22 29 41 47 48 50 50 49 50 49 48 45 43 45 38 39 37 40 38 45 59 41 44 53 42 42 52 50 40 38 37 34 25 17 19 22 23 26 35 34 37
17 18 21 35 44 54 59 63 58 56 56 57 57 57 54 51 48 47 44 42 40 41 49 50 69 70 47 44 50 53 48 55 54 43 38 38 28 15 17 19 21 26 32 32 32
31 36 45 55 68 74 74 73 71 70 71 70 68 65 57 55 52 50 46 43 42 45 54 59 71 79 51 43 52 54 49 50 51 52 41 40 34 18 17 16 17 24 29 30 30
56 62 64 68 78 82 83 83 82 82 83 83 78 73 69 64 60 52 51 53 50 51 58 75 82 84 67 53 67 62 58 51 55 56 47 39 31 23 21 16 14 18 25 29 30
70 73 83 86 88 91 89 87 88 88 89 90 85 85 86 79 71 70 67 62 63 71 77 85 88 94 74 70 76 67 61 58 56 50 48 37 26 24 25 21 17 16 18 25 24
78 84 90 92 92 91 92 92 91 94 96 94 97 91 96 97 91 84 76 66 64 76 90 92 85 97 81 68 69 63 55 57 54 50 45 34 26 30 24 23 25 24 25 26 24
80 84 86 87 87 87 91 92 93 96 92 96 98 98 98 94 86 77 80 73 73 73 88 90 93 98 83 69 70 70 59 64 63 61 54 35 30 34 32 38 35 30 27 26 23

GFSSW_prec_cthk_045.txt.gz
RH
7 7 6 6 5 5 5 6 7 8 8 8 10 11 11 11 12 11 11 10 8 8 12 19 30 35 40 51 61 67 79 80 76 76 77 80 81 81 81 79 75 71 63 63 68
7 7 7 6 6 5 5 5 6 6 6 6 7 9 11 11 11 11 13 12 9 8 9 16 27 36 43 52 61 65 71 74 71 70 74 80 79 81 81 76 72 63 60 64 66
7 7 7 7 6 6 5 5 6 6 5 5 6 6 8 10 11 18 19 17 14 8 11 16 20 29 40 47 54 61 71 73 69 69 76 79 78 78 80 76 67 60 57 62 64
7 6 6 6 7 6 6 5 6 5 5 5 6 6 6 8 11 19 18 18 17 10 12 14 20 27 35 43 50 61 77 74 71 68 75 78 74 76 75 69 61 54 58 60 62
7 7 7 6 6 6 6 5 6 6 5 5 6 6 6 7 7 12 19 19 17 12 15 14 18 20 25 37 43 58 79 76 78 76 77 73 72 69 64 58 56 54 57 57 57
7 7 6 6 5 5 5 5 5 5 5 5 6 8 7 6 8 10 12 17 21 18 15 14 14 17 21 34 38 48 63 76 77 76 74 67 62 59 55 52 55 56 56 53 53
7 7 7 7 6 5 5 5 5 5 5 5 7 9 9 10 10 11 13 15 21 22 18 18 16 15 16 22 31 42 56 60 69 70 72 63 62 52 53 51 54 55 53 51 50
8 8 8 8 7 7 7 7 6 6 6 7 8 11 11 8 8 10 13 14 19 23 21 20 18 19 15 18 26 33 42 52 65 68 66 63 56 48 54 52 47 50 49 49 46
10 9 8 8 8 8 7 7 7 7 8 8 9 9 10 10 10 10 12 16 21 23 21 21 21 18 16 17 25 35 33 44 59 66 64 61 56 55 57 57 50 44 45 46 46
13 12 11 11 10 9 8 7 8 8 8 10 10 9 10 11 12 11 11 14 21 23 22 20 23 21 17 15 15 29 37 41 49 60 62 59 56 60 59 59 55 54 45 42 46
16 14 14 14 13 11 10 9 10 10 10 11 12 11 11 11 11 12 17 17 18 22 20 21 20 21 19 16 14 27 40 40 52 57 61 59 57 58 62 60 58 58 56 47 40
19 17 16 15 13 12 13 13 14 13 12 11 12 12 11 12 12 11 16 21 20 22 22 21 20 20 23 19 16 14 33 40 51 54 58 59 55 60 60 59 58 57 59 56 47
21 19 17 16 15 15 14 15 16 15 14 13 14 13 13 13 14 13 15 19 23 25 24 24 21 21 24 25 19 14 17 33 47 51 55 56 56 55 62 60 59 60 62 62 58
23 21 19 18 17 17 18 18 18 17 15 16 17 15 14 14 15 14 13 18 20 25 29 27 26 26 26 26 25 19 12 18 39 50 54 56 52 55 57 58 55 57 58 61 63
24 21 20 17 18 20 22 20 17 17 16 18 18 16 15 14 14 14 13 14 17 24 26 30 25 29 31 27 31 25 19 13 18 43 50 49 51 46 57 59 54 51 53 59 62
26 21 19 19 20 22 22 19 16 17 17 18 18 17 18 19 19 16 16 16 17 20 24 27 28 29 31 30 32 34 28 22 17 19 40 43 50 37 46 54 52 49 50 57 60
26 18 19 21 20 19 18 17 17 17 17 19 19 20 22 23 23 20 24 24 22 13 20 21 20 27 33 32 33 37 40 36 30 26 19 25 44 37 37 43 45 45 46 53 58
23 20 18 19 18 19 20 19 21 18 20 21 22 23 25 24 25 22 25 28 28 28 25 21 11 23 30 35 36 36 41 38 36 26 15 15 35 32 33 33 39 43 45 55 58
21 17 19 18 19 23 21 21 21 23 25 28 28 30 32 33 28 27 29 34 31 28 25 29 24 20 27 33 43 36 41 38 37 33 26 16 16 25 29 35 39 41 48 52 53
15 16 19 18 20 23 25 28 30 33 36 39 42 41 40 38 38 36 33 36 36 33 30 33 18 20 22 25 33 38 34 53 48 40 33 26 20 16 18 25 30 38 45 50 49
17 17 21 21 29 34 40 45 46 50 51 50 48 47 46 45 46 47 39 42 43 41 36 35 29 18 18 21 25 35 49 49 48 42 33 31 25 16 12 14 24 34 43 46 43
38 32 39 45 51 58 59 64 61 58 59 57 57 56 57 57 58 53 48 43 47 45 43 42 45 37 22 15 21 34 49 46 54 50 43 39 29 19 15 11 14 25 38 41 42
56 55 56 57 65 70 73 73 71 69 70 70 70 71 70 67 64 60 60 55 52 47 49 49 50 35 18 15 16 30 34 50 45 46 50 47 36 23 19 16 15 18 27 36 38
62 62 65 68 75 75 76 74 73 74 78 82 82 80 78 74 74 72 71 69 59 52 50 48 46 38 31 25 45 47 46 49 53 51 50 51 41 27 21 18 16 17 23 31 36
65 71 75 76 73 75 75 75 78 79 83 89 90 89 91 87 80 79 75 74 70 66 65 58 49 46 45 42 46 51 50 51 60 50 51 49 49 34 24 21 19 18 19 28 32
70 74 73 73 73 75 75 78 82 87 92 92 93 94 98 94 86 82 79 78 69 71 72 61 55 61 53 42 45 58 50 52 57 48 44 48 49 40 35 26 23 22 23 28 34
68 68 70 71 71 73 77 83 88 94 89 92 95 95 97 96 95 91 84 83 74 69 67 67 73 76 58 61 72 67 48 50 54 49 43 43 43 43 38 38 34 30 27 27 32

GFSSW_prec_cthk_048.txt.gz
RH
6 7 7 7 6 6 6 5 6 6 6 7 7 9 11 11 11 10 12 13 8 9 16 30 36 42 49 52 59 62 71 73 71 73 79 78 78 80 77 78 78 77 69 68 72
6 6 6 6 6 6 5 5 6 6 5 5 5 6 8 10 11 12 11 14 10 7 17 26 29 36 43 49 58 61 61 66 71 73 75 77 83 80 79 78 77 71 62 66 72
6 6 6 5 5 5 6 5 5 6 5 5 5 5 6 7 13 19 16 15 15 7 20 23 30 32 35 48 53 60 60 64 69 71 75 81 84 82 78 76 70 60 62 67 68
7 6 6 6 5 5 5 4 5 5 5 5 5 5 6 6 11 15 19 19 18 12 20 24 24 27 35 46 50 53 60 70 73 74 74 78 80 78 78 76 66 59 60 63 63
7 6 6 6 6 5 5 5 5 5 5 5 5 6 6 8 8 12 15 18 20 19 22 19 21 25 27 36 42 49 65 76 73 77 72 76 77 76 77 71 65 59 60 61 62
7 6 6 6 6 5 5 5 5 5 5 5 6 7 8 8 8 10 15 17 23 27 24 21 20 20 22 28 35 37 53 75 70 77 77 77 76 72 68 68 60 56 58 60 59
8 8 8 8 7 7 6 6 6 6 5 6 7 8 9 9 8 10 12 15 23 26 28 21 18 19 16 22 32 36 46 58 66 74 73 69 63 64 63 52 53 57 58 58 59
11 10 10 10 9 8 7 7 7 6 7 8 9 10 10 9 8 9 13 17 20 27 26 25 21 19 16 16 19 29 31 44 55 66 67 61 67 58 53 49 54 56 55 55 55
14 13 13 13 12 10 9 8 8 8 8 9 11 12 10 10 10 9 10 18 20 24 23 24 23 24 21 14 13 23 25 35 46 62 65 63 62 58 49 48 49 52 53 52 53
19 17 16 15 14 13 11 10 9 9 9 10 10 11 10 11 10 12 12 16 22 25 22 19 21 22 21 16 13 14 24 30 37 57 64 62 62 56 53 50 45 47 51 50 49
23 21 19 19 17 16 13 13 15 14 12 11 11 10 10 11 11 13 17 17 17 27 23 19 20 17 19 20 14 15 22 29 42 54 68 64 62 57 59 54 48 45 43 46 46
28 26 23 23 21 19 18 17 16 14 14 13 13 12 12 12 13 13 18 24 16 19 22 21 18 18 20 20 21 14 22 31 40 49 58 64 61 60 60 59 57 56 53 46 45
28 29 26 25 22 21 19 18 17 16 16 14 14 14 13 14 14 13 17 19 24 19 16 19 19 19 18 20 22 18 13 22 41 47 50 60 60 61 57 62 58 58 54 53 42
32 31 26 25 23 20 20 18 18 18 17 19 16 15 14 14 14 14 14 18 20 27 24 18 19 20 20 21 20 21 15 14 25 41 47 49 53 55 56 59 60 59 57 52 51
34 35 27 25 22 22 20 20 19 18 15 20 17 15 15 15 15 15 14 15 19 22 26 26 22 25 23 23 21 22 22 14 15 26 44 51 53 54 52 55 59 58 57 53 54
29 26 21 21 20 20 21 21 18 17 17 17 16 16 16 17 17 15 14 14 15 15 20 23 27 25 27 26 25 26 28 24 16 17 26 35 47 44 51 51 54 56 56 55 55
21 20 17 19 23 21 21 20 17 14 16 18 17 16 18 18 19 17 19 18 17 13 15 17 18 23 27 31 31 26 28 33 29 19 13 19 31 38 44 50 52 53 50 52 57
17 16 19 19 19 20 21 20 20 19 17 17 17 18 20 21 21 20 21 21 19 18 18 16 15 19 26 27 35 29 27 32 36 23 14 12 18 22 34 37 46 55 51 55 59
13 13 18 16 18 20 23 21 20 21 18 20 21 23 25 26 25 25 25 27 26 21 19 21 17 24 22 23 29 32 32 24 34 34 24 18 13 13 21 28 35 47 50 50 51
27 22 20 18 18 21 24 24 25 25 27 28 30 30 32 33 35 36 33 37 31 26 22 27 16 16 18 18 20 28 29 40 37 43 35 30 23 18 17 24 28 41 48 50 48
46 45 39 39 42 44 44 46 46 44 46 45 44 44 43 44 44 44 42 42 41 36 29 28 23 19 14 11 14 22 30 48 44 37 35 35 26 24 19 16 21 29 37 40 45
49 41 52 53 54 55 57 60 57 54 53 53 53 53 52 54 55 56 55 49 48 43 40 40 36 32 20 13 13 23 35 36 47 44 36 39 36 31 27 20 15 23 30 35 42
54 52 58 56 59 59 60 58 58 58 60 62 62 62 64 65 67 63 63 59 59 50 49 49 41 35 19 15 14 15 18 28 39 45 47 44 40 37 33 24 18 16 22 33 39
54 53 56 58 60 59 59 57 57 59 63 69 73 76 75 73 68 70 67 72 72 66 58 49 41 40 30 24 38 38 27 28 39 45 42 43 50 47 35 26 21 18 21 24 36
54 57 57 56 54 55 57 59 60 65 66 71 75 78 84 82 77 71 75 74 76 75 74 66 61 47 39 35 30 28 26 28 39 40 43 43 49 46 42 32 27 24 21 26 35
55 57 57 57 57 56 58 59 62 64 67 69 72 73 81 90 85 82 84 80 76 77 75 74 68 58 49 42 35 28 22 21 25 32 35 38 42 43 41 38 26 25 26 30 34
54 58 59 57 57 60 61 64 63 63 62 64 67 77 84 84 86 91 88 88 87 81 76 78 71 67 53 38 33 34 29 24 18 26 31 33 32 45 42 44 36 33 28 30 34

GFSSW_prec_cthk_051.txt.gz
RH
5 5 5 5 5 6 6 5 6 6 5 5 6 7 9 10 10 10 14 14 8 9 15 23 29 38 52 52 54 62 69 73 73 78 77 76 76 79 79 77 75 74 74 74 75
5 5 5 5 4 4 5 5 5 5 5 5 5 5 6 8 9 13 14 14 10 7 13 29 29 39 46 49 52 58 61 73 74 67 79 74 74 73 73 76 73 74 68 68 73
6 5 5 5 5 4 4 4 4 5 5 5 5 5 5 5 12 19 14 13 15 7 17 29 36 39 40 44 51 57 57 63 65 66 70 73 72 75 83 73 70 66 65 67 70
6 6 6 6 5 5 5 4 5 5 5 5 5 5 6 6 15 15 14 15 17 11 20 31 28 32 40 41 47 54 55 54 71 67 73 80 79 76 74 79 68 63 62 66 68
7 7 6 6 6 6 5 5 5 5 5 5 4 6 6 9 9 11 12 16 17 17 23 27 24 28 31 39 46 50 56 60 66 70 71 70 78 79 70 76 66 62 62 64 65
8 8 8 8 7 6 6 6 5 5 5 5 6 6 9 11 9 9 14 14 19 20 26 28 24 26 27 35 39 39 45 61 68 68 73 66 70 71 74 75 64 64 65 61 63
10 9 10 10 9 8 7 7 6 6 6 6 7 8 11 11 8 9 13 19 19 23 32 28 27 27 21 22 29 37 40 45 66 66 78 67 76 71 77 69 66 62 62 61 61
16 14 13 12 12 11 10 8 7 7 7 9 9 14 13 8 9 9 10 16 19 25 32 26 28 24 22 19 18 30 36 45 54 60 66 68 67 62 68 62 55 58 58 59 60
22 20 19 17 16 15 13 11 9 9 9 10 12 16 14 9 10 10 10 18 21 23 26 28 25 23 24 18 17 15 26 33 40 50 61 61 71 81 57 55 47 52 57 56 57
25 23 23 22 21 18 16 14 12 11 11 12 13 15 11 11 10 11 11 18 19 23 22 26 24 23 24 22 16 12 17 25 34 46 55 58 72 88 60 53 51 50 52 51 53
31 28 28 28 25 22 20 21 24 23 15 16 16 13 12 10 10 13 17 22 24 25 19 22 22 19 21 24 19 17 15 21 30 41 52 58 67 93 54 57 52 46 48 48 50
28 28 28 29 28 26 25 25 21 22 18 14 13 12 12 11 12 15 16 21 20 25 21 19 17 19 20 20 21 18 16 21 27 40 51 59 63 62 62 51 55 46 42 46 49
29 31 29 28 26 29 28 26 22 21 19 19 15 15 14 13 14 12 15 20 23 23 24 22 18 18 19 20 19 20 17 19 28 36 44 53 60 57 72 53 55 54 48 48 46
29 31 30 26 30 26 29 24 23 21 21 21 19 17 15 15 16 13 13 16 20 24 21 20 20 20 19 18 19 20 20 16 22 35 40 46 56 56 58 67 54 56 56 51 44
26 26 25 23 20 27 24 24 22 22 19 24 22 19 17 16 19 17 14 14 16 20 27 26 20 19 20 18 19 20 22 18 14 18 27 42 50 56 53 60 61 57 56 54 47
20 19 18 22 20 24 20 21 19 20 21 22 20 18 18 18 17 15 15 14 18 20 22 25 35 25 22 22 20 21 22 22 18 16 18 23 43 43 58 54 64 55 60 56 51
13 11 13 16 31 22 21 23 22 17 24 26 22 16 16 19 17 16 18 16 14 14 13 14 19 29 27 27 29 23 24 28 28 23 16 13 28 35 40 46 56 54 55 57 53
20 10 11 12 15 17 23 26 25 25 27 25 15 15 15 20 17 15 16 18 18 19 18 17 16 16 21 22 29 29 25 25 30 26 15 12 15 21 37 44 51 69 54 56 53
35 32 27 20 14 15 24 29 29 28 23 18 18 15 16 20 17 18 17 18 25 20 18 17 21 23 24 26 24 34 36 22 28 28 24 18 14 12 20 34 43 55 54 69 55
40 42 38 30 23 22 26 27 29 24 21 20 24 27 30 30 24 25 25 24 27 22 19 23 23 21 23 22 18 27 32 38 32 36 35 28 22 17 15 18 30 41 45 49 67
45 47 44 47 45 45 46 50 46 41 40 41 41 39 42 36 39 34 37 33 31 30 23 21 23 19 18 18 13 13 16 35 44 34 32 34 26 23 20 19 18 25 39 42 50
48 44 47 48 51 48 50 49 47 45 44 45 45 47 51 52 50 49 47 48 42 39 36 30 26 23 20 16 11 13 26 19 36 43 37 29 28 27 26 25 22 25 31 38 46
48 44 44 44 52 49 46 46 46 47 49 50 53 56 58 62 64 62 59 59 52 49 46 42 37 31 28 24 17 13 14 23 32 34 41 37 31 32 34 31 31 24 23 35 42
46 48 45 42 42 42 46 48 46 45 46 49 49 53 58 66 68 70 64 64 58 63 60 52 48 40 32 36 32 27 19 19 30 39 38 42 39 34 41 42 42 32 25 27 42
44 43 44 44 42 45 45 46 46 46 47 46 47 51 54 59 63 72 72 70 65 66 66 63 56 50 42 41 41 31 30 25 24 29 39 38 46 43 44 51 44 39 34 27 32
45 47 42 44 43 46 44 47 47 51 51 48 51 55 59 64 66 67 87 87 75 69 67 67 70 71 65 52 41 35 32 27 21 18 28 41 47 48 52 55 52 44 46 35 33
47 45 46 44 44 46 49 52 50 53 55 56 56 56 59 62 65 65 63 73 79 78 80 76 71 75 69 59 51 49 37 31 26 20 17 19 25 42 49 50 55 47 44 39 38

GFSSW_prec_cthk_054.txt.gz
RH
5 5 4 4 4 4 4 5 5 5 5 5 5 6 7 9 10 9 11 16 8 11 12 16 22 37 47 53 59 56 73 74 84 74 92 84 81 79 75 79 79 77 78 77 74
5 5 4 4 4 4 4 4 4 4 5 5 5 5 5 6 8 13 13 15 13 7 11 21 23 34 46 50 54 52 67 68 72 76 75 85 74 77 79 79 80 77 75 73 72
6 5 5 5 5 4 4 4 4 4 5 5 4 5 5 6 9 15 14 13 15 7 10 25 32 39 40 49 49 51 59 62 71 76 74 68 70 72 73 77 74 77 69 67 68
7 7 6 6 6 5 5 5 4 4 5 5 5 4 5 6 19 17 15 12 15 11 13 26 28 38 45 45 45 49 52 59 58 62 68 81 83 81 78 94 75 70 66 65 63
9 8 8 8 7 7 6 6 5 5 5 5 5 5 6 9 13 11 10 11 14 15 18 26 30 34 38 43 43 43 48 51 57 73 66 71 78 80 89 74 70 66 67 66 60
12 11 10 9 9 8 8 7 6 5 5 5 6 6 7 17 12 10 8 14 14 18 21 29 33 30 28 37 36 44 46 49 55 61 70 68 75 69 72 71 69 70 68 64 60
18 16 15 13 12 11 10 9 7 6 6 7 7 9 14 18 13 10 9 16 16 16 21 30 33 28 27 29 33 34 39 37 42 62 66 70 67 72 77 82 73 68 68 64 60
24 22 21 19 18 16 14 11 10 8 7 8 9 13 22 10 7 8 11 17 18 18 21 30 33 28 28 26 22 26 31 35 38 56 65 67 69 75 75 93 70 64 63 62 56
31 26 24 21 21 21 19 16 13 12 11 10 12 18 26 12 9 9 9 17 19 20 27 35 30 29 24 26 21 19 23 31 38 47 56 66 69 81 81 93 66 58 58 58 55
33 31 28 27 27 25 22 21 18 15 14 14 13 17 16 12 10 10 10 19 21 23 26 29 28 25 24 22 21 17 15 22 30 36 52 56 67 75 74 87 55 57 54 55 52
26 27 26 25 26 28 28 26 31 35 23 22 23 19 16 15 10 13 15 16 20 25 23 24 27 25 22 20 23 19 18 16 21 31 52 52 71 70 68 71 72 53 53 50 48
22 23 25 26 25 26 28 31 29 29 27 23 16 14 13 13 14 16 17 22 24 29 22 21 24 22 18 23 24 23 20 16 18 26 41 58 65 68 61 64 60 46 50 49 51
27 25 24 24 24 30 28 27 24 25 24 21 19 15 16 13 13 16 14 21 26 23 25 20 18 17 20 19 20 19 19 18 22 26 35 41 74 71 68 66 90 53 49 48 44
20 20 22 23 30 29 30 26 26 24 24 25 22 19 17 14 16 15 13 18 21 25 24 25 22 24 18 19 19 19 19 19 17 28 33 38 47 64 68 77 91 87 61 47 45
16 17 18 17 21 31 30 23 21 23 29 26 22 21 20 18 21 19 16 13 16 22 24 23 23 24 24 20 18 20 21 22 19 18 29 39 40 40 67 67 64 91 69 58 47
18 12 11 20 21 24 22 22 20 24 24 25 24 20 18 18 20 21 17 15 17 17 20 20 29 22 21 22 21 21 20 22 22 19 18 19 27 32 49 64 62 66 79 75 56
26 20 10 15 28 24 20 25 28 24 27 28 25 22 20 24 20 17 18 17 14 16 16 20 24 32 31 21 22 22 23 24 25 23 16 12 14 15 34 50 57 61 65 65 59
31 30 25 14 17 16 18 29 32 31 30 29 25 21 18 21 21 19 15 16 17 16 19 19 14 17 26 27 27 25 25 25 27 23 19 14 13 11 14 40 55 53 55 71 63
33 39 38 31 19 13 21 34 39 39 34 31 24 16 15 17 17 23 19 16 20 23 19 20 21 22 17 22 24 28 35 23 25 26 24 22 16 12 12 27 47 63 57 72 74
37 42 42 40 29 22 25 39 41 35 30 26 22 24 30 35 33 28 21 26 21 27 24 19 24 24 28 26 25 26 29 40 32 35 34 27 25 21 16 14 28 43 46 47 65
41 47 44 44 43 42 48 59 48 42 36 33 36 35 38 36 39 43 40 37 33 31 22 18 19 19 30 27 27 25 24 37 42 40 29 33 28 24 23 19 19 28 36 36 49
44 49 39 38 47 50 54 51 45 46 42 42 42 43 46 46 47 47 48 48 42 35 33 27 19 18 24 24 26 22 20 20 33 46 38 35 27 24 26 23 21 20 23 38 47
43 41 38 38 50 51 46 43 41 42 44 43 44 43 42 42 46 48 52 55 54 48 49 40 30 28 19 20 22 20 13 14 19 17 34 38 34 25 28 30 28 25 24 25 44
45 50 45 37 38 40 44 45 44 36 39 38 36 35 37 38 41 44 44 57 59 53 51 46 43 42 36 29 39 33 25 17 18 28 26 26 38 29 32 41 41 35 33 30 40
41 38 36 46 41 40 42 43 43 40 38 39 41 42 42 44 46 46 56 59 60 62 58 57 53 49 42 40 48 37 31 25 20 17 29 27 32 33 45 46 47 45 41 38 33
45 44 40 40 39 41 38 38 38 39 39 47 50 51 48 48 47 47 56 61 62 70 67 61 59 58 57 53 49 42 35 29 25 17 17 22 30 32 41 43 50 48 47 44 38
41 43 43 38 37 38 40 38 41 47 49 50 55 57 54 57 54 51 50 52 57 58 78 77 67 67 60 56 58 54 45 36 29 24 21 20 18 35 41 43 50 51 52 50 43

GFSSW_prec_cthk_057.txt.gz
RH
4 4 4 4 4 4 4 4 4 4 4 5 5 5 6 7 9 9 9 15 10 12 13 13 17 31 43 52 58 62 70 79 84 76 90 88 85 78 75 79 77 76 77 74 66
5 5 5 5 4 4 4 4 4 4 4 4 5 5 5 5 7 9 9 13 14 9 11 14 17 28 42 47 55 63 62 69 71 74 88 78 81 71 70 75 76 76 75 73 68
7 7 6 6 6 6 5 5 4 4 4 4 4 4 4 5 8 11 9 12 14 9 8 15 22 28 38 45 51 55 60 63 74 73 78 93 95 81 75 74 75 75 76 71 70
10 9 9 8 7 7 6 6 5 5 4 4 4 4 4 6 18 16 14 16 14 13 7 17 26 32 43 42 45 52 53 54 62 76 76 88 96 83 74 81 80 79 69 67 68
13 12 12 11 10 9 9 8 6 5 5 4 5 5 6 9 10 12 11 11 12 16 9 19 23 30 37 43 43 44 48 53 59 63 76 87 76 76 80 70 82 80 74 67 67
22 18 16 15 13 12 11 10 9 7 6 5 5 6 6 14 12 11 10 10 10 17 14 22 24 28 33 39 42 39 42 47 50 65 65 74 79 78 77 72 78 75 72 66 63
32 29 24 22 18 16 14 13 11 9 8 7 7 7 11 18 14 13 11 9 13 12 16 26 29 36 31 33 36 35 32 35 41 49 58 70 75 76 79 78 79 78 71 68 59
36 34 31 25 23 21 20 17 14 12 11 10 10 12 15 11 9 8 10 14 17 16 15 24 32 34 30 29 30 32 31 34 36 39 53 62 76 74 85 90 85 76 72 68 58
27 28 29 30 27 25 24 21 18 16 14 13 14 19 21 16 11 9 9 13 17 20 17 26 29 33 29 27 28 26 26 28 32 35 47 61 81 84 84 87 85 69 60 64 58
22 19 21 25 24 26 27 27 24 18 18 16 18 18 17 14 12 9 10 15 17 19 25 26 32 32 29 26 29 24 19 20 26 36 48 57 81 78 78 77 79 66 54 59 57
23 22 20 20 22 23 25 26 32 37 28 24 27 22 19 16 14 12 14 18 20 22 25 28 32 29 24 24 22 23 23 24 19 29 40 51 76 76 74 70 70 73 68 57 56
17 19 22 23 21 20 25 28 31 30 32 27 25 24 18 16 14 15 18 16 21 23 25 26 28 26 24 24 23 23 22 20 20 21 29 49 68 77 70 68 74 73 67 49 60
11 14 15 21 25 26 26 27 26 26 26 23 24 21 17 15 13 17 18 23 26 25 30 24 21 19 22 22 21 23 24 21 21 22 29 50 64 70 70 72 82 94 71 64 49
14 11 10 15 25 30 32 30 25 27 27 25 23 22 21 19 15 17 17 17 22 26 26 25 21 23 24 21 20 22 22 21 18 21 29 45 69 68 64 73 71 73 75 73 58
18 20 8 10 22 30 30 29 23 23 38 27 23 24 22 21 21 19 17 15 18 21 24 25 21 23 25 21 18 19 21 21 21 21 21 26 33 56 63 72 69 65 71 65 60
24 26 18 13 14 22 25 24 24 30 37 27 25 24 21 19 21 22 20 19 16 17 19 20 23 23 25 24 26 21 19 20 22 24 26 21 28 35 61 57 60 60 54 58 57
29 29 23 23 23 18 16 24 33 36 31 28 26 23 22 22 22 20 19 20 18 17 18 20 20 22 23 23 23 24 23 25 27 27 23 19 25 22 39 46 48 54 56 63 61
29 33 31 24 18 16 18 30 48 43 35 32 29 26 25 26 25 24 19 19 21 18 19 19 18 19 25 27 26 24 24 29 30 27 22 20 20 16 16 32 42 57 63 69 69
33 39 36 27 20 13 22 43 53 46 40 36 33 26 22 19 21 22 21 19 19 25 24 24 22 19 19 24 28 25 28 21 24 21 28 23 20 18 17 21 34 46 61 66 69
37 41 41 42 25 17 41 50 47 45 44 39 36 30 32 37 35 33 29 24 26 25 26 26 25 23 24 21 24 26 28 36 30 32 35 27 22 25 27 23 30 39 47 55 59
38 43 42 44 38 39 52 62 57 47 40 39 38 35 30 39 43 45 46 42 31 29 25 26 26 23 27 25 27 28 26 32 35 36 38 33 24 19 29 33 31 32 38 43 50
43 45 35 41 49 54 59 52 52 51 47 45 43 40 40 35 43 44 45 47 38 34 32 27 25 24 27 27 27 26 28 30 36 38 39 41 27 24 33 36 35 37 35 37 43
45 47 36 40 47 51 47 45 40 40 42 39 40 39 40 40 41 43 45 46 42 39 43 39 34 31 20 27 31 29 28 28 30 27 28 35 27 32 34 36 48 53 53 58 63
45 47 43 38 37 42 43 41 39 34 34 32 36 36 37 38 36 36 33 34 40 44 41 42 42 41 35 37 46 40 32 28 29 28 25 29 25 26 34 38 41 47 45 56 69
43 37 37 38 36 36 37 37 32 34 33 33 37 36 36 37 40 41 43 42 41 40 42 40 45 47 42 38 37 40 39 31 28 26 27 23 25 32 34 37 42 43 43 45 47
40 43 39 38 40 35 34 35 36 37 38 38 41 44 44 43 47 48 47 48 46 44 48 51 53 47 44 47 42 43 38 36 29 22 22 21 19 27 30 34 38 45 41 47 49
47 50 49 44 40 38 38 40 42 43 46 47 47 49 50 49 53 50 47 44 44 48 49 56 65 70 55 54 55 55 42 39 34 27 23 22 21 26 31 31 36 43 44 43 47

GFSSW_prec_cthk_060.txt.gz
RH
6 5 5 5 5 4 4 4 4 4 4 4 5 5 6 6 8 8 9 12 12 12 16 19 20 27 49 51 61 69 83 82 76 74 84 85 92 89 88 87 85 86 76 71 70
7 6 6 6 6 5 6 5 5 4 4 4 4 4 5 5 6 8 9 10 14 11 13 14 15 30 42 53 61 63 77 74 73 80 83 78 82 80 83 86 83 84 80 76 70
10 9 8 7 7 6 7 6 6 5 4 4 4 4 4 4 6 11 9 9 14 10 11 13 15 26 34 46 55 53 69 66 66 79 81 75 71 77 78 83 78 77 71 70 69
19 15 12 11 9 8 8 8 7 6 5 5 4 4 4 5 13 13 11 12 12 15 8 12 18 31 35 43 46 55 58 57 60 77 80 77 68 73 78 77 78 77 74 68 66
31 28 24 17 14 12 10 10 9 8 6 6 5 5 5 6 6 12 12 11 15 16 9 11 18 25 34 41 46 52 54 57 56 63 68 73 73 76 78 82 79 84 79 69 65
33 32 29 27 23 18 15 13 11 10 8 7 6 6 6 11 9 8 10 11 12 14 14 12 18 23 30 40 46 47 48 49 58 60 72 74 77 80 78 82 83 81 76 69 64
25 26 28 29 27 24 21 19 15 12 10 9 9 8 10 9 11 12 11 10 12 10 16 16 24 29 33 38 42 45 43 38 46 58 68 63 81 82 77 76 80 80 77 70 64
22 20 19 22 26 28 25 22 21 16 12 11 13 13 10 12 11 10 9 12 14 15 15 21 34 37 35 34 36 36 36 37 43 57 61 60 76 81 79 81 80 79 76 72 66
20 19 18 17 17 23 25 26 24 21 18 15 15 19 17 16 11 9 9 12 14 18 15 27 38 35 34 30 30 32 36 35 40 42 52 67 77 78 80 78 80 78 73 68 66
16 16 19 19 17 18 19 23 25 26 21 20 19 20 15 14 13 10 10 13 17 20 19 26 30 31 31 31 32 28 29 30 36 43 49 59 67 74 78 79 78 78 60 60 58
8 9 11 17 21 20 19 22 26 32 30 23 24 22 21 17 15 13 14 15 18 20 23 27 30 32 30 30 27 26 25 25 33 37 39 49 63 71 76 84 78 76 66 52 56
10 9 7 8 19 25 23 26 27 28 28 29 28 27 24 22 18 18 17 19 21 23 27 31 33 29 29 28 27 26 27 23 27 29 30 46 56 70 72 77 78 76 75 61 52
14 14 11 5 11 23 29 29 26 26 28 25 27 28 24 20 17 18 19 21 23 23 25 30 26 24 30 28 28 26 28 24 27 29 39 49 68 77 80 77 78 79 79 61 53
16 17 18 8 14 22 34 34 30 25 30 25 23 25 24 21 18 19 23 22 25 29 25 28 22 25 24 26 25 28 24 24 25 28 33 43 78 76 80 83 80 73 65 56 58
21 23 23 16 21 20 26 33 31 27 35 26 24 23 23 23 22 22 20 20 24 24 26 28 22 23 25 22 24 21 23 23 23 26 27 32 34 59 69 83 79 65 60 55 61
25 28 25 21 25 20 16 26 30 39 39 28 27 25 23 23 24 24 21 20 18 19 23 20 23 18 20 22 24 22 22 23 25 25 28 28 30 59 61 61 65 63 69 61 60
28 29 25 26 25 21 16 23 41 43 34 33 29 26 23 22 22 22 21 21 22 20 19 20 20 21 21 21 23 23 24 26 26 28 29 28 30 26 42 47 54 61 66 68 66
31 33 28 27 18 17 23 43 49 40 41 35 31 27 27 26 26 25 22 21 23 22 21 19 18 20 21 22 25 26 25 27 26 27 28 25 31 27 30 38 43 46 63 70 67
34 37 37 26 18 20 35 53 52 47 42 39 34 33 34 30 28 26 25 26 25 24 25 26 21 19 21 21 23 27 27 25 26 25 28 24 24 26 34 34 35 36 48 55 62
33 37 39 29 21 36 42 57 53 52 46 42 42 38 39 35 32 30 34 32 27 26 25 25 23 20 20 22 27 29 30 33 31 32 33 27 25 28 36 36 35 33 33 39 44
37 36 35 38 40 44 51 54 51 50 51 46 45 47 48 44 37 39 41 36 32 28 25 26 25 24 24 26 26 30 30 33 34 37 39 36 31 36 41 42 38 34 32 39 44
40 39 40 41 41 46 44 46 44 49 48 50 48 50 46 47 48 46 48 42 35 33 32 27 26 29 27 29 27 29 32 32 36 36 40 41 36 35 39 42 40 43 40 43 54
44 40 38 43 49 44 39 39 41 34 42 44 46 43 43 44 45 46 50 46 39 37 39 33 35 32 26 32 34 35 35 34 32 31 32 35 34 35 40 41 44 42 46 45 59
44 44 40 35 37 42 42 38 36 34 31 31 33 31 35 40 41 42 43 43 41 39 35 30 34 36 40 42 41 40 39 37 35 35 34 33 38 34 34 37 41 42 53 64 71
38 42 40 42 38 37 39 36 31 36 34 35 38 37 35 34 37 39 38 39 39 37 37 35 35 34 33 36 43 43 42 41 39 38 37 33 37 33 33 35 37 44 44 52 65
46 46 46 46 40 36 33 36 36 34 37 39 39 39 40 43 43 41 40 39 39 39 40 44 45 42 38 32 37 45 46 45 39 39 38 37 36 31 36 34 36 38 47 48 55
48 48 47 46 42 38 39 39 41 41 40 42 45 45 44 42 41 41 42 42 42 42 43 45 50 54 55 43 36 37 35 43 44 43 43 42 36 33 36 36 37 38 54 52 52

GFSSW_prec_cthk_063.txt.gz
RH
6 6 6 6 5 5 5 5 5 4 4 4 4 5 5 6 7 8 9 10 15 11 18 23 26 29 46 54 67 80 87 83 76 77 81 86 91 92 92 87 81 82 74 73 70
13 10 8 7 7 6 6 6 6 5 4 4 4 4 5 5 6 7 8 9 15 11 13 16 21 31 44 53 63 76 83 80 74 73 76 82 85 90 88 86 84 81 78 77 71
27 23 19 13 10 8 7 6 7 7 5 5 4 4 4 4 5 11 10 8 14 13 13 14 18 34 43 47 56 67 74 69 66 73 75 77 78 79 83 86 86 80 79 78 70
32 30 28 25 20 14 11 9 8 7 7 6 5 4 4 4 9 12 8 9 14 15 11 14 17 28 35 44 50 55 71 61 55 64 74 75 72 75 79 80 79 75 75 77 72
28 29 30 28 26 23 17 14 11 10 8 7 6 5 5 6 4 12 12 11 14 17 12 10 15 21 29 41 47 61 67 57 51 51 63 74 73 80 80 81 83 79 80 77 75
22 21 21 24 26 26 23 19 17 13 10 8 7 6 6 8 8 9 11 12 12 16 17 11 13 18 23 42 48 62 55 47 45 42 52 68 70 78 80 83 89 85 82 72 73
22 19 17 16 17 22 25 22 20 20 15 11 10 9 8 8 10 10 11 12 13 13 19 14 17 25 31 40 48 54 49 40 41 42 55 66 70 76 81 83 89 87 81 73 69
18 17 16 15 15 15 18 20 23 22 20 16 13 13 9 12 12 12 11 13 15 16 18 16 25 28 32 39 42 42 44 40 45 48 58 67 74 76 82 82 85 87 80 72 66
9 9 11 14 17 16 16 16 17 23 23 20 19 18 14 15 13 10 10 14 15 19 18 18 29 33 34 37 37 37 45 42 42 50 57 64 69 74 76 76 83 83 75 70 68
7 6 7 7 12 19 16 17 21 19 22 24 23 23 16 18 14 12 11 13 17 22 21 19 28 35 37 36 41 35 37 43 39 51 56 61 64 69 75 80 78 81 76 64 61
10 11 11 7 5 15 19 21 23 26 24 23 25 22 22 19 15 14 13 14 20 24 23 22 29 34 36 37 33 33 32 37 44 38 34 49 51 62 70 79 76 80 75 59 56
12 13 13 9 5 10 21 28 26 25 26 25 25 25 25 23 21 19 17 17 21 23 22 28 33 34 35 35 34 31 28 31 39 39 40 37 48 58 66 75 78 77 77 72 61
15 15 15 11 11 13 17 26 30 27 27 27 28 28 27 25 23 22 22 20 22 26 27 31 32 35 35 34 33 31 27 32 38 39 43 51 57 62 67 72 75 76 75 74 62
19 18 20 15 19 20 18 20 32 34 32 26 32 31 26 25 22 20 25 27 25 27 29 32 32 31 31 33 32 33 26 36 35 33 32 42 58 66 68 75 74 73 71 71 54
22 20 22 19 25 23 20 20 30 36 39 29 27 31 29 25 24 23 24 26 28 27 28 31 26 30 29 24 28 25 26 32 38 32 29 30 40 48 72 73 67 65 69 66 59
24 24 24 22 26 22 21 24 34 44 41 30 26 27 27 24 25 27 25 22 22 26 26 27 23 20 22 24 24 24 26 27 31 33 32 28 28 42 61 49 55 61 66 67 66
25 26 24 23 25 21 18 25 44 50 40 37 33 30 27 27 27 26 25 24 23 21 22 23 25 25 22 21 22 24 26 30 28 32 32 28 30 26 42 39 43 51 59 64 66
27 26 27 25 17 24 32 43 52 47 44 38 33 30 29 27 28 27 26 30 28 24 21 19 19 23 24 21 23 24 27 29 28 32 31 29 30 30 33 32 39 46 47 66 63
33 32 29 23 28 35 39 52 56 51 45 39 34 38 38 34 32 30 32 32 31 28 26 26 21 21 23 23 23 27 28 25 30 29 28 31 30 31 37 34 36 41 38 52 65
35 32 23 28 38 36 42 57 53 50 44 41 42 42 44 39 36 34 35 35 32 30 27 28 26 22 22 26 26 28 32 33 31 34 31 27 32 45 42 39 36 38 35 37 53
37 36 35 35 37 38 40 54 56 51 46 45 45 46 45 44 39 39 41 34 33 31 29 29 27 24 24 29 30 35 37 37 36 35 37 36 40 37 37 37 39 37 34 30 40
38 42 39 34 35 40 43 45 51 54 55 51 50 49 48 48 46 40 44 39 37 33 33 29 29 29 31 32 31 34 39 39 41 39 41 40 43 36 30 30 36 40 32 31 37
40 37 40 39 42 44 42 40 38 30 39 50 51 49 47 48 48 48 46 41 39 39 39 33 34 32 32 34 34 35 38 39 39 38 39 37 38 28 26 26 32 47 47 45 47
43 44 40 38 38 38 39 38 31 34 30 33 38 38 38 45 48 49 47 43 41 38 36 32 38 37 40 44 42 42 41 40 41 46 45 37 38 31 27 25 32 34 48 61 65
43 44 44 45 40 40 42 34 32 35 34 34 34 33 33 39 40 47 44 41 38 38 37 36 42 38 34 38 43 43 45 44 44 44 45 40 40 36 31 28 28 37 37 44 61
41 42 42 44 39 36 37 41 37 36 35 39 39 37 36 40 41 41 39 38 37 35 33 35 41 35 33 31 32 38 40 43 44 44 42 39 40 40 39 35 33 29 38 43 48
32 33 30 34 35 36 37 36 37 36 39 39 40 41 42 40 40 40 40 38 38 38 38 38 42 42 42 36 29 28 35 42 45 47 44 45 44 45 44 44 41 38 35 42 45

GFSSW_prec_cthk_066.txt.gz
RH
17 15 12 8 6 6 6 5 5 5 4 4 4 4 5 6 7 8 8 10 15 12 20 28 30 34 54 62 75 84 84 83 76 76 82 87 89 92 87 85 83 80 74 73 66
29 26 23 19 15 10 7 7 6 6 6 5 4 4 4 5 6 7 8 9 15 10 13 20 27 33 50 58 68 79 82 76 73 71 76 80 88 95 90 84 83 81 74 72 67
30 29 28 27 25 20 13 10 8 7 7 6 5 4 4 4 5 10 11 9 14 12 12 16 21 34 46 54 63 75 75 71 70 69 75 79 79 84 87 87 87 82 76 73 67
28 26 25 26 26 25 23 17 12 10 8 7 6 5 4 4 8 10 7 8 15 15 13 14 19 28 40 48 58 70 63 63 61 65 69 76 75 82 82 85 84 79 75 71 68
24 22 21 20 20 24 25 22 18 15 12 9 7 6 5 6 5 11 9 7 15 18 14 12 18 27 34 42 46 58 59 56 55 55 66 72 74 81 80 84 83 82 78 76 67
22 20 17 15 14 15 19 23 22 18 16 13 10 7 6 7 7 10 12 11 11 17 18 12 15 20 24 36 48 55 49 49 47 44 58 71 72 79 83 83 85 83 78 74 69
17 17 15 14 14 14 14 16 18 21 19 18 14 11 8 7 11 10 12 13 13 13 20 17 14 18 22 32 47 54 47 44 40 45 50 62 75 77 83 84 84 89 82 74 70
8 7 7 9 11 14 15 14 16 15 18 21 19 15 11 10 12 13 11 16 16 15 18 20 20 23 25 35 45 49 43 45 43 47 57 62 73 75 84 85 85 86 82 77 72
9 8 8 7 7 8 14 15 15 16 16 18 22 20 17 14 14 14 14 16 20 15 16 19 25 28 29 33 39 41 47 44 41 53 56 64 73 75 85 84 81 84 81 75 73
11 10 11 11 8 5 9 16 19 18 17 17 20 24 21 21 18 14 14 17 20 20 18 18 25 30 33 35 42 36 41 42 40 54 57 63 66 69 75 83 81 81 78 70 70
16 12 12 12 8 6 10 16 20 23 23 20 19 20 26 26 18 16 16 17 21 25 22 19 24 30 34 37 35 32 35 41 37 39 40 42 51 55 62 75 84 84 76 65 62
16 15 13 14 10 11 16 17 19 22 23 24 22 19 26 25 23 19 18 19 25 28 24 22 25 30 38 40 38 34 34 40 41 37 38 39 49 57 59 68 75 79 79 74 63
17 17 14 15 16 17 19 18 18 22 27 24 27 24 27 27 25 24 21 22 24 28 26 24 24 34 39 40 38 35 33 38 42 36 39 51 55 61 62 72 72 77 77 75 73
19 19 18 18 21 23 21 19 18 22 30 27 31 28 29 30 27 28 29 26 28 29 30 29 29 35 39 38 38 39 34 32 37 36 33 43 51 56 61 66 71 74 75 74 77
20 20 23 21 26 23 23 21 21 24 39 32 33 34 32 30 28 27 31 32 30 31 31 30 32 35 37 35 33 36 35 36 37 37 32 31 47 37 59 63 67 72 73 70 65
21 22 24 25 25 25 24 24 26 38 43 33 34 35 35 31 30 27 27 31 32 30 29 29 25 32 33 31 30 33 32 34 37 36 35 30 35 27 54 60 60 63 67 71 69
22 23 24 24 24 22 18 24 39 52 44 37 35 40 38 33 30 31 29 27 25 27 28 28 28 27 25 23 23 26 31 37 38 40 37 32 27 26 36 40 46 53 60 69 71
30 26 21 23 29 30 31 36 54 53 49 41 37 36 36 32 33 33 33 33 29 24 23 29 30 29 25 22 23 25 27 34 31 39 36 33 30 28 33 34 36 42 53 60 68
32 26 25 30 34 34 35 46 59 57 50 44 39 39 39 37 35 36 38 40 34 32 27 25 23 26 27 24 25 26 27 27 32 32 32 33 32 28 28 33 34 38 40 50 65
30 27 32 33 31 33 40 49 56 56 49 44 45 42 40 40 38 38 40 39 39 34 31 30 26 24 24 27 26 30 30 32 33 34 32 33 41 44 32 29 38 42 40 43 55
37 36 34 35 30 35 48 51 54 55 53 48 47 46 46 45 42 44 46 39 37 33 31 32 29 28 27 31 33 32 36 35 36 34 36 42 45 32 29 30 35 48 47 40 53
40 43 40 33 35 37 43 52 51 51 51 50 49 50 46 47 48 47 46 42 39 37 35 31 33 36 34 33 32 35 37 39 42 38 36 43 42 28 28 28 39 48 52 48 54
40 40 41 43 41 43 40 40 43 50 52 52 52 49 50 51 52 49 45 43 40 41 42 36 36 36 38 34 35 36 36 38 40 39 41 45 36 29 26 28 36 48 49 53 54
43 45 41 39 42 42 40 35 30 32 30 38 50 49 49 52 51 51 48 46 43 42 41 40 45 37 35 36 38 39 39 38 41 46 44 41 38 34 31 32 33 39 46 51 56
34 38 41 42 42 41 38 35 33 34 33 32 32 33 36 45 49 53 50 46 41 41 39 39 48 43 42 39 38 40 41 38 39 41 42 41 40 36 39 38 38 35 42 44 55
28 29 31 36 38 34 34 37 38 35 34 37 38 38 37 40 40 42 42 43 41 38 35 35 42 35 36 38 35 35 37 38 37 39 41 41 41 45 43 42 38 35 39 40 42
25 28 29 36 37 33 34 34 32 33 38 40 40 41 43 43 41 41 39 39 37 35 33 35 38 37 35 38 30 35 36 34 36 41 47 44 46 49 47 45 43 39 35 42 41

GFSSW_prec_cthk_069.txt.gz
RH
28 26 23 21 17 14 8 6 6 5 5 5 4 4 4 5 7 8 8 10 15 15 23 27 30 41 59 68 82 86 80 77 71 74 87 90 91 91 87 86 82 76 75 67 62
29 28 27 26 25 22 18 12 8 6 6 6 5 4 4 4 5 6 8 9 15 12 17 23 30 42 54 62 78 81 80 73 69 71 78 85 92 92 87 86 84 77 74 64 60
28 27 25 25 25 24 23 21 15 10 8 7 6 5 4 4 4 9 9 8 12 13 14 18 25 40 50 58 72 76 73 69 70 69 75 78 85 89 89 85 83 77 73 62 60
24 24 24 22 21 20 23 23 22 16 12 9 7 6 5 4 6 11 8 7 12 13 12 15 21 33 44 52 65 74 68 66 68 65 69 74 77 81 83 86 84 79 71 62 60
21 19 18 16 14 14 15 19 23 22 16 13 10 8 6 5 6 11 7 6 12 16 14 15 18 25 35 45 56 68 66 61 55 58 65 71 76 79 82 85 85 78 72 66 62
12 12 14 13 12 13 13 14 15 20 21 17 14 10 8 7 7 10 8 7 11 17 17 15 17 20 27 42 48 53 56 53 48 50 61 73 76 82 83 84 87 82 77 74 66
10 9 7 7 9 11 12 14 14 15 17 19 19 15 10 9 11 11 11 11 12 15 19 17 15 19 24 33 39 47 47 46 50 49 56 72 73 75 82 87 87 86 80 75 68
14 12 11 10 8 6 6 13 14 14 16 16 18 19 15 13 14 12 14 14 15 14 18 19 18 18 22 28 37 43 43 43 47 47 56 63 68 71 80 86 87 92 88 76 68
19 16 12 12 12 7 5 8 14 15 16 16 17 19 20 18 17 15 15 17 16 17 17 19 23 21 23 26 36 42 46 43 41 51 55 62 65 77 79 83 88 89 85 79 69
18 17 13 12 13 8 7 10 13 16 17 18 18 19 20 22 22 19 18 20 18 17 18 19 24 24 27 26 32 37 42 42 42 51 54 57 61 65 75 80 84 90 85 80 73
17 16 15 12 13 10 10 13 15 19 20 20 19 19 22 23 23 25 20 21 23 16 18 19 22 23 30 30 29 31 38 41 40 44 45 40 42 57 62 78 81 86 82 75 76
16 16 16 13 13 14 15 16 16 17 20 21 23 20 25 25 24 24 26 23 23 21 18 19 19 23 31 37 34 31 33 39 36 39 40 40 44 62 58 66 77 80 79 73 70
16 16 15 15 16 17 17 17 17 17 19 20 25 21 25 26 24 26 27 25 25 27 21 18 18 23 31 37 38 35 32 36 37 33 40 51 53 62 64 63 75 81 80 79 75
15 16 16 17 20 21 20 19 18 19 19 21 25 25 27 27 26 27 28 29 31 30 27 23 22 26 35 36 37 39 34 35 38 33 31 38 40 55 63 69 75 78 78 77 78
15 17 19 22 26 24 24 23 22 21 27 25 28 30 32 27 28 33 32 31 31 30 29 28 26 28 37 35 38 40 37 35 36 37 29 31 38 44 54 67 72 77 79 76 77
16 20 21 23 25 26 25 26 25 31 35 30 33 34 35 31 32 37 35 34 36 35 32 29 29 33 35 39 37 37 35 32 31 32 30 26 32 36 42 52 55 68 75 74 70
23 23 23 24 25 25 22 27 35 40 35 38 42 41 38 36 35 35 37 38 34 37 36 29 27 31 34 34 37 34 34 34 34 33 31 26 27 39 39 43 46 48 57 71 67
29 24 23 29 31 28 28 35 45 48 47 42 48 45 43 41 39 38 38 36 35 31 33 34 33 30 28 27 26 30 30 29 34 31 26 28 27 35 33 42 48 52 53 60 65
30 29 28 32 35 36 36 42 55 56 50 47 43 47 48 45 38 40 42 38 33 30 27 34 33 30 30 28 26 25 28 28 28 29 27 28 30 34 30 34 44 56 55 59 64
30 32 32 33 38 41 43 52 57 60 54 50 47 44 43 42 40 39 42 43 41 35 28 28 33 32 32 28 26 26 27 28 30 33 31 34 40 35 32 36 46 51 51 49 62
37 39 32 31 36 43 52 58 57 60 55 54 51 47 46 46 45 44 45 44 43 40 37 30 27 29 31 35 32 28 30 30 30 30 30 32 37 29 34 45 50 50 52 53 54
35 39 40 29 31 37 47 51 55 55 56 56 55 53 48 47 48 47 45 44 44 42 41 40 34 32 32 31 33 32 32 32 30 37 33 32 34 28 34 42 46 55 54 55 62
36 38 36 36 39 40 39 41 43 45 50 54 54 53 56 53 53 51 48 45 43 43 41 39 39 40 35 32 31 33 32 32 30 32 37 32 31 31 36 36 41 49 53 56 58
28 31 33 37 40 40 38 31 30 33 40 43 47 51 51 53 52 52 50 46 43 45 42 40 36 34 32 34 34 34 33 32 30 31 33 35 34 34 37 37 38 40 52 54 55
20 25 27 36 35 33 31 34 33 32 31 31 32 39 44 48 51 52 50 48 45 44 43 43 44 43 40 38 38 37 36 33 32 34 35 37 36 39 41 40 37 36 38 47 52
22 25 27 31 30 27 27 30 31 34 33 35 36 36 32 36 38 42 43 47 48 43 41 42 46 43 42 38 36 34 36 37 35 34 36 36 41 45 45 44 40 39 35 36 39
22 23 25 29 24 25 30 28 27 30 34 36 36 38 39 40 38 38 37 36 37 36 34 34 34 33 33 33 30 27 30 32 36 41 40 39 49 50 47 45 43 40 37 39 37

GFSSW_prec_cthk_072.txt.gz
RH
28 27 26 25 23 21 18 12 7 6 5 5 4 4 4 5 6 7 9 12 16 18 25 33 34 49 66 67 79 76 76 68 69 77 85 83 85 89 86 82 78 76 72 64 57
29 28 26 25 24 23 23 21 16 8 6 6 5 4 4 4 5 6 7 9 15 14 24 28 35 43 58 69 78 77 77 67 69 72 82 86 84 86 86 80 77 74 72 60 56
27 26 25 25 23 22 22 23 22 18 11 7 6 5 4 4 5 7 8 8 13 13 19 25 36 44 53 63 72 73 74 66 69 73 78 84 83 85 83 81 78 74 69 58 56
20 19 18 17 17 18 19 19 23 22 18 12 9 6 5 4 8 10 8 7 12 15 18 19 32 42 48 55 69 70 67 65 68 68 74 80 80 83 89 85 80 75 69 58 56
10 9 10 13 14 12 12 13 17 22 22 17 12 9 6 8 6 10 7 7 11 19 16 18 21 32 42 47 62 70 64 61 62 60 62 74 81 83 87 86 84 74 71 63 61
10 9 8 7 7 9 10 12 13 14 21 21 17 12 10 9 8 9 8 9 12 20 18 17 17 23 33 44 53 61 60 56 51 53 58 75 81 82 85 84 83 76 71 65 63
16 14 11 10 10 8 6 7 13 14 14 17 20 17 14 12 13 12 11 12 13 18 21 18 18 19 25 36 45 54 54 52 49 51 60 73 78 76 78 85 84 81 74 70 64
20 19 17 13 14 12 7 5 9 14 14 15 16 19 21 12 16 15 15 16 14 18 19 21 20 21 21 31 37 43 46 47 49 49 55 69 77 79 78 83 85 86 79 73 68
19 19 19 16 15 14 9 7 9 12 14 15 17 20 23 18 20 17 17 16 15 16 18 18 22 22 21 22 31 36 41 45 48 48 54 60 70 77 77 80 84 88 85 76 71
18 18 18 16 13 12 10 12 12 13 14 16 18 20 19 22 24 21 21 20 17 16 17 18 23 23 19 18 24 30 39 47 43 50 51 56 62 68 74 79 83 89 88 79 72
18 17 15 14 12 12 12 15 17 22 19 20 19 21 22 22 25 25 26 23 20 19 17 17 20 19 20 20 28 29 36 46 40 51 50 47 40 59 65 76 82 87 86 81 76
15 15 16 14 14 16 16 18 16 17 18 19 20 20 24 22 24 27 28 29 22 18 18 18 18 19 24 26 29 26 32 41 38 38 45 40 36 53 51 65 80 85 86 79 77
13 15 15 15 16 17 17 17 16 16 18 18 22 20 24 23 23 29 29 30 26 21 18 18 17 21 29 33 31 25 27 40 40 38 40 43 44 53 64 66 81 82 84 79 74
12 14 16 18 20 20 21 18 16 18 19 19 21 21 25 26 24 26 28 31 30 30 22 18 20 21 26 33 29 32 27 33 34 31 36 36 48 51 65 67 77 84 80 82 80
16 13 17 22 22 25 24 23 21 21 27 21 24 24 28 27 25 29 31 34 37 35 31 24 19 21 27 33 34 43 33 30 30 30 36 28 40 57 53 71 71 78 83 83 82
21 17 18 22 24 25 25 25 23 26 33 24 24 27 28 28 28 30 33 32 40 37 30 36 23 23 29 39 37 43 33 30 30 32 33 29 32 44 50 54 60 74 79 79 81
24 18 20 22 25 23 21 27 31 37 29 29 28 34 35 33 32 34 33 35 40 42 37 34 30 32 36 41 37 40 33 31 31 31 29 29 28 50 40 46 56 58 60 77 74
25 25 27 27 26 24 27 34 45 40 40 35 37 40 40 39 41 42 41 41 38 35 44 33 33 33 32 37 36 36 35 30 33 28 29 29 27 36 38 48 55 58 53 62 74
24 31 33 31 34 33 38 46 49 48 48 46 46 44 43 42 40 45 47 43 41 38 40 39 36 27 25 25 27 35 37 35 32 32 28 27 35 30 33 48 54 55 53 63 73
30 36 32 33 34 38 43 50 56 52 50 51 56 52 47 46 42 44 44 43 40 38 35 37 42 32 28 27 25 27 31 36 28 33 30 32 33 37 37 46 51 56 65 68 72
35 43 32 31 34 39 47 51 55 57 54 51 50 53 57 52 51 49 49 44 41 36 31 30 34 32 34 32 31 26 27 28 31 31 28 35 39 32 43 49 50 52 62 67 73
32 40 35 31 33 36 44 48 48 52 57 55 53 50 53 49 49 49 46 48 45 45 38 30 32 35 37 33 30 27 29 30 30 36 30 31 40 40 40 49 52 52 54 60 60
26 31 33 35 40 36 35 36 41 44 49 52 53 54 49 53 54 52 49 49 47 46 47 44 34 34 32 32 34 32 29 27 28 33 38 30 41 45 39 43 54 52 52 59 60
21 27 31 34 37 36 33 31 31 33 40 45 50 49 55 55 53 53 50 47 45 44 43 42 47 42 37 35 32 34 32 29 29 30 40 39 42 44 43 39 43 53 54 54 59
21 21 24 26 24 24 26 29 31 31 29 32 37 40 50 52 52 54 51 48 46 42 41 42 43 45 48 37 34 32 30 31 32 34 37 44 40 45 43 38 39 41 49 53 55
21 23 23 20 23 23 21 25 27 30 33 32 32 28 31 48 51 53 52 51 51 45 43 40 45 40 40 41 42 37 33 30 30 32 35 39 43 46 43 43 40 39 40 43 50
20 21 25 22 22 24 25 24 26 29 30 30 32 37 34 33 33 34 36 40 44 47 45 43 43 41 38 36 32 30 31 31 33 32 35 39 46 43 44 44 42 41 41 41 43

GFSSW_prec_cthk_075.txt.gz
RH
28 27 26 25 24 22 21 18 13 7 5 5 4 4 4 5 6 7 11 15 18 19 27 37 47 59 69 71 76 75 82 72 72 75 76 81 84 83 83 80 81 77 69 58 54
28 28 27 26 24 22 22 21 20 16 8 6 5 4 4 4 5 8 10 11 16 16 26 39 37 48 65 68 74 75 81 70 66 70 78 80 82 82 82 80 77 73 66 57 54
19 19 20 22 23 22 21 20 21 21 17 9 6 5 4 4 8 8 9 8 13 12 30 32 38 45 56 67 75 74 78 67 67 70 76 77 81 82 77 77 74 70 64 55 55
9 8 9 11 13 13 16 18 19 21 21 16 10 7 5 4 14 15 7 7 11 11 25 29 37 46 51 58 70 76 71 66 64 67 72 79 77 80 80 81 75 71 64 56 56
13 10 8 7 7 9 10 11 14 18 22 21 14 10 7 8 10 10 8 6 11 14 19 23 30 44 49 53 67 67 64 60 60 58 62 73 79 86 85 76 72 70 65 59 57
20 18 15 10 9 8 7 9 11 12 15 22 19 14 11 11 13 7 8 6 10 20 20 20 25 35 42 47 58 63 63 56 57 52 57 72 77 80 87 82 76 72 66 60 57
20 19 18 16 11 12 11 6 7 13 13 15 19 18 19 15 15 12 11 9 11 22 21 18 22 23 31 40 49 54 57 53 49 46 58 71 78 79 82 80 78 75 69 65 62
20 20 19 18 14 14 13 9 8 11 14 14 15 18 25 17 17 14 17 14 15 18 21 18 19 23 24 34 39 47 51 56 50 47 55 65 79 79 73 77 80 79 73 69 66
19 19 18 17 16 15 14 11 11 11 14 14 16 22 22 17 18 20 18 15 14 18 19 22 20 21 23 28 35 38 47 48 56 43 53 63 77 76 73 75 79 83 80 74 69
20 19 18 17 15 14 12 14 13 12 13 16 22 23 24 21 21 20 21 19 17 18 19 19 19 23 23 26 29 30 38 43 53 47 50 57 89 79 72 74 80 83 84 79 72
15 15 15 16 13 12 12 17 23 25 17 23 22 25 20 23 26 22 21 22 18 17 17 17 18 21 21 19 21 33 33 45 46 49 51 55 74 64 68 73 79 79 85 83 79
10 12 13 12 13 14 15 24 20 23 21 19 19 22 24 28 27 25 23 22 19 18 17 18 17 20 21 21 23 28 33 40 47 50 51 50 42 50 60 72 76 83 85 83 83
10 12 13 13 15 15 19 21 17 17 22 20 19 19 23 27 27 27 25 27 22 21 18 20 15 19 20 24 30 33 38 41 46 37 42 42 45 49 51 60 76 81 83 83 82
13 10 13 16 21 22 23 19 18 18 25 24 19 21 23 23 26 29 30 30 28 23 19 20 20 19 21 30 31 31 28 40 43 40 37 35 43 52 48 56 77 76 83 80 78
16 13 15 18 23 29 24 22 23 24 36 31 25 22 24 24 26 30 29 31 31 29 27 21 21 21 25 30 32 37 29 36 46 35 35 41 38 60 66 56 69 70 84 83 77
21 15 16 21 23 24 23 25 24 30 45 35 25 21 27 29 28 32 29 32 34 34 32 28 23 22 20 26 35 42 46 35 33 35 34 35 28 56 64 64 67 63 69 79 82
20 21 26 24 28 26 26 31 38 44 42 34 31 24 31 32 32 33 35 34 33 39 38 32 38 26 23 32 38 47 46 38 41 36 32 31 29 52 59 49 51 63 69 74 83
22 27 30 29 24 23 34 42 55 46 45 33 26 34 34 31 34 37 38 34 34 40 43 33 33 27 26 36 47 46 44 32 35 29 27 29 31 46 51 59 54 62 62 75 77
26 29 34 33 27 32 46 62 60 42 37 33 29 35 34 34 38 41 40 39 42 42 44 41 38 36 35 44 49 46 41 33 27 23 22 30 40 49 55 48 50 59 64 59 78
30 41 31 31 28 37 54 49 43 42 43 44 42 37 39 36 38 43 49 52 49 40 44 47 43 36 31 35 42 46 42 41 35 31 25 28 38 42 52 50 47 53 56 70 74
32 50 35 29 30 49 59 46 48 46 44 53 57 48 52 50 41 42 52 47 42 37 43 41 48 42 34 27 30 33 36 39 35 28 26 31 47 49 51 49 45 53 53 56 67
30 51 31 28 47 37 41 39 42 54 49 47 50 53 56 55 52 58 55 49 39 35 34 35 40 42 36 34 30 32 34 35 37 35 29 26 52 59 57 48 47 52 56 60 66
26 28 29 38 57 39 33 34 38 44 50 54 57 52 52 54 57 52 47 43 42 41 41 33 32 43 40 35 30 30 31 31 34 32 31 30 55 62 61 55 50 54 56 59 61
24 34 26 29 32 34 30 30 28 28 39 46 51 53 54 53 57 53 51 44 46 43 40 36 40 49 46 39 32 29 31 30 33 37 35 34 55 57 57 54 50 56 58 56 58
23 18 23 30 21 22 24 25 28 29 24 30 41 48 58 59 56 53 54 50 46 45 42 45 45 44 46 38 38 42 35 29 28 29 35 51 59 56 52 49 49 53 54 57 55
25 25 18 23 23 26 22 24 25 30 32 31 31 30 39 57 63 60 57 55 54 48 45 43 57 53 45 43 40 39 36 30 30 33 39 55 64 57 50 49 46 45 50 52 52
21 20 25 21 26 29 21 21 22 25 25 26 29 33 34 37 46 51 52 53 53 51 48 45 45 51 51 48 45 41 36 32 30 32 42 52 54 52 51 48 46 46 44 46 48

GFSSW_prec_cthk_078.txt.gz
RH
28 27 26 25 23 22 20 19 17 14 9 5 4 4 4 4 5 7 11 18 22 24 25 29 44 60 72 74 73 76 76 73 76 72 76 80 80 79 84 83 79 81 70 54 52
21 21 23 25 24 23 21 19 19 18 15 9 5 5 4 4 4 7 9 13 17 19 26 37 47 62 67 70 69 88 81 66 66 67 74 78 78 77 79 81 79 77 67 55 56
10 10 11 12 15 18 21 20 18 18 19 15 8 6 5 3 6 9 9 9 13 14 26 39 44 51 67 64 69 91 81 66 66 68 75 80 82 80 88 79 74 73 64 55 56
15 13 10 8 7 9 11 13 17 18 19 19 13 8 6 4 20 18 10 9 9 11 30 39 37 43 59 66 67 75 70 63 66 67 69 75 76 75 89 84 75 69 62 54 56
20 20 19 15 10 7 8 10 10 14 18 21 19 11 7 10 10 12 10 7 8 10 25 33 36 45 50 60 67 80 79 67 61 65 69 74 74 78 77 77 74 71 63 55 56
21 20 19 18 15 12 10 8 9 10 12 18 21 16 10 13 14 10 7 6 10 14 20 25 32 43 50 57 61 65 67 63 57 59 61 71 82 78 77 71 75 71 64 58 55
20 19 19 19 19 14 13 11 6 8 13 13 17 19 19 16 16 14 7 7 9 17 19 20 26 38 42 43 54 52 67 59 53 50 56 66 77 78 75 73 79 71 66 61 56
18 18 18 18 18 16 15 12 9 8 12 15 14 16 22 17 17 16 10 9 9 18 24 18 22 26 31 36 44 53 54 62 50 46 51 59 79 83 76 76 78 76 70 64 60
16 16 16 16 16 15 14 12 13 12 12 15 15 16 23 21 19 17 15 12 12 18 22 21 19 22 26 29 39 43 51 48 58 51 51 55 72 86 82 73 78 75 75 67 65
12 12 13 14 15 13 13 14 14 13 14 16 25 25 22 20 20 24 21 17 16 17 19 21 20 19 23 28 32 35 41 51 53 55 55 61 61 91 79 70 75 74 76 73 69
9 10 11 11 10 11 11 21 27 36 19 21 24 22 22 22 22 25 24 18 16 19 18 18 20 19 18 22 25 33 33 46 51 49 51 60 65 64 76 75 71 71 73 74 73
10 9 11 11 11 11 12 25 20 24 22 21 21 21 25 24 23 23 24 21 19 17 17 18 17 18 22 20 22 28 34 36 56 59 61 62 69 70 66 64 71 68 71 76 78
11 9 12 12 13 13 17 21 18 18 18 26 19 20 25 29 27 25 25 25 21 19 16 18 13 15 24 24 23 23 26 32 44 58 63 55 66 70 58 57 65 66 69 72 77
13 10 12 19 23 23 25 21 19 18 21 30 19 18 23 27 30 26 27 26 27 23 21 16 18 16 19 24 22 22 28 35 50 52 43 46 49 58 63 61 61 69 66 73 75
17 12 14 14 20 30 32 23 24 21 46 35 27 25 21 22 25 28 28 31 37 26 23 19 19 21 19 22 26 28 32 39 44 47 38 31 38 52 59 84 66 71 66 74 70
15 17 18 23 24 25 25 28 27 34 51 37 35 25 26 24 28 35 30 33 34 35 30 22 18 21 20 23 32 36 38 35 40 48 38 36 38 64 65 71 85 72 75 81 73
17 20 24 22 28 32 31 32 43 48 51 37 30 24 25 29 38 38 35 32 34 38 36 34 27 18 21 24 31 35 41 37 41 45 39 33 40 46 62 66 82 67 68 67 75
21 23 26 25 24 33 41 51 71 69 61 39 33 28 34 36 35 39 38 33 34 36 40 42 35 34 24 20 27 36 40 38 39 35 31 30 30 52 60 58 63 62 56 74 80
21 32 26 30 30 40 50 66 66 67 49 39 24 32 31 31 31 36 42 43 37 36 44 50 40 34 25 19 26 41 43 41 32 28 26 29 46 61 68 64 60 62 58 69 85
27 39 42 22 32 48 53 57 55 36 39 37 40 35 35 33 32 39 38 43 44 43 40 47 47 40 31 25 32 48 40 40 40 40 36 36 39 53 59 57 53 50 53 56 69
34 53 42 24 40 62 61 49 43 42 39 45 48 47 48 44 40 46 55 53 48 46 40 45 47 47 43 33 33 42 53 42 39 37 36 47 62 57 71 60 53 50 48 55 64
34 52 42 25 49 43 45 29 31 43 39 41 43 48 53 49 43 45 65 60 44 43 36 44 43 56 40 34 31 41 43 40 37 41 35 52 76 69 71 60 53 49 48 51 59
33 29 26 36 58 54 33 31 28 40 45 46 48 46 47 47 57 54 62 49 39 43 47 44 40 45 45 39 32 30 32 37 37 37 37 49 58 60 64 62 59 53 49 49 56
30 44 30 24 27 34 31 31 32 22 31 42 47 46 51 47 48 49 44 42 35 37 36 38 43 49 62 51 40 32 27 28 31 36 37 47 65 64 63 62 62 60 53 50 52
25 17 21 28 23 23 25 26 26 36 23 26 37 48 61 58 47 52 50 40 38 36 33 33 37 46 52 46 40 38 31 29 30 30 44 67 68 67 65 62 62 63 59 52 51
28 33 19 19 24 34 26 24 30 31 35 32 32 27 43 73 71 64 58 51 45 45 39 39 45 47 44 44 40 37 38 37 32 31 42 57 63 64 57 57 61 59 56 50 50
22 20 30 20 31 32 19 19 22 27 21 27 30 32 33 42 48 66 63 62 63 58 50 49 53 53 49 45 46 43 39 38 34 32 65 69 67 58 56 56 60 56 53 47 46

GFSSW_prec_cthk_081.txt.gz
RH
20 20 23 25 24 21 20 18 16 15 14 10 5 4 4 4 6 8 17 22 26 28 28 33 37 61 71 76 78 82 84 79 77 75 78 78 79 88 85 75 79 70 50 50 56
13 12 13 13 16 20 21 19 18 16 16 14 9 5 4 4 4 6 10 18 24 25 26 31 45 59 67 70 86 93 83 73 69 73 76 77 77 83 87 77 81 72 57 51 62
17 16 13 10 8 9 12 18 19 17 16 16 14 7 5 4 4 6 9 11 18 21 23 32 47 56 66 71 84 75 85 72 65 67 74 75 81 91 89 83 73 69 53 51 58
19 19 18 17 14 9 7 9 12 16 17 18 17 10 6 5 17 16 11 9 11 15 23 40 45 54 61 65 77 74 83 73 67 67 73 76 83 85 83 84 74 68 53 50 56
20 21 20 20 18 15 11 9 9 10 14 17 20 15 8 9 9 11 10 9 9 12 24 37 41 43 55 64 68 74 67 77 69 67 70 72 76 80 83 84 73 67 56 53 60
19 19 19 19 20 19 14 12 10 8 10 14 18 19 12 10 13 11 9 7 8 11 22 30 36 44 50 57 67 69 69 65 74 67 66 72 76 73 78 75 69 68 60 55 52
17 17 17 16 17 18 18 15 12 8 9 13 15 19 17 12 17 14 10 7 6 11 17 24 33 40 49 52 60 66 64 70 74 70 61 71 82 77 74 74 73 71 63 60 52
13 13 14 16 16 15 15 16 13 10 9 13 15 15 19 16 16 16 10 7 7 12 16 20 29 37 41 44 46 65 68 66 54 55 54 57 75 85 77 75 76 73 67 64 62
10 9 10 10 12 14 12 13 15 14 11 13 15 15 19 20 17 18 13 9 7 15 21 19 24 28 36 36 40 47 53 56 62 63 56 54 74 93 82 80 79 75 71 68 69
9 8 9 9 10 9 11 13 19 21 15 15 25 24 18 18 21 20 18 12 9 16 21 21 18 21 28 31 36 42 44 50 57 60 62 68 70 71 85 77 75 75 72 74 67
10 7 9 9 9 8 8 23 26 34 23 21 24 22 26 22 19 22 21 18 16 17 20 19 20 19 21 25 27 34 43 49 54 61 74 73 80 64 67 70 72 69 68 72 72
10 8 10 10 10 11 12 23 20 21 21 19 23 24 26 29 21 25 26 21 19 18 18 20 21 19 16 19 25 27 36 44 51 64 63 76 73 64 52 64 67 64 65 68 71
13 9 10 13 13 14 17 19 16 18 18 19 16 22 26 24 24 23 27 21 19 22 20 20 14 16 18 20 22 26 31 40 49 56 56 78 82 70 68 66 65 63 64 68 73
15 10 13 17 23 25 26 21 20 20 19 23 20 18 28 32 32 26 25 26 22 22 20 18 16 17 16 20 21 28 29 32 48 55 60 65 68 71 70 63 58 56 63 70 77
13 14 13 13 20 28 26 26 23 25 49 38 28 24 19 23 31 30 27 28 30 23 21 19 17 18 18 19 21 24 30 34 52 54 54 64 68 60 64 74 77 70 68 70 77
14 16 17 23 24 28 28 25 27 52 56 46 34 29 22 21 28 36 30 31 33 34 26 20 18 19 21 18 21 23 32 40 44 50 58 46 53 62 64 58 73 92 82 79 74
16 19 21 21 23 30 33 36 45 68 64 43 37 29 28 30 28 34 34 34 37 37 34 27 22 21 21 19 22 22 41 50 46 58 55 44 46 69 69 76 76 67 67 72 81
18 22 24 23 27 34 42 52 78 64 62 47 41 33 24 33 34 44 38 36 38 37 40 34 31 27 21 21 23 28 39 51 47 48 51 43 60 65 62 67 69 60 55 61 72
19 24 25 27 28 39 46 57 57 50 51 47 40 35 31 37 36 35 37 37 37 38 44 48 39 32 26 21 21 32 32 38 43 35 37 49 60 61 59 65 62 58 54 67 74
26 35 31 28 40 51 52 57 49 38 36 44 53 43 43 42 39 38 42 47 45 45 45 45 46 38 37 32 21 25 31 40 44 49 43 63 65 75 81 72 69 65 62 62 66
35 47 35 33 35 49 58 49 49 41 34 44 47 49 49 52 49 54 51 50 50 41 40 42 45 47 40 32 26 33 39 39 42 46 52 66 80 84 85 76 68 65 62 65 64
33 41 30 27 50 56 60 42 31 38 42 37 43 47 53 56 52 56 52 52 45 41 40 43 45 52 47 40 30 39 45 45 47 47 58 72 79 82 86 76 67 64 65 68 67
30 33 28 36 49 56 43 32 27 34 39 47 46 45 48 55 56 49 45 41 47 45 42 42 47 53 53 43 37 39 46 44 41 42 51 71 80 76 78 77 71 62 66 69 68
33 40 38 32 30 34 32 35 32 24 22 40 50 46 44 48 49 48 45 40 39 41 40 42 47 50 59 56 43 39 44 34 42 40 57 62 74 73 73 72 69 66 64 63 58
28 20 29 28 18 22 22 26 27 33 29 21 35 45 53 59 55 55 53 42 41 39 37 37 42 49 55 55 44 37 38 36 36 38 53 70 68 71 70 70 67 65 66 66 61
24 26 23 24 29 36 27 22 29 25 30 35 33 31 46 61 56 57 57 56 41 39 35 35 47 46 51 50 46 39 35 31 38 47 56 64 72 68 66 69 70 67 67 66 62
20 25 31 30 31 31 24 17 20 26 23 25 27 36 39 40 51 54 57 62 55 48 44 38 44 49 48 49 52 47 43 41 51 52 55 62 59 63 61 63 65 63 64 64 62

GFSSW_prec_cthk_084.txt.gz
RH
15 15 15 15 18 20 20 19 17 15 14 12 9 5 5 5 7 10 20 23 27 31 31 34 51 71 76 76 80 84 86 84 81 76 81 86 84 83 73 67 62 53 47 43 55
15 14 13 12 11 11 15 18 18 17 15 14 12 8 5 5 5 7 16 22 26 28 31 34 54 72 71 72 74 79 79 76 75 70 78 84 87 87 78 73 72 58 54 52 54
16 16 16 15 14 11 9 10 16 17 16 15 14 12 6 5 4 7 12 19 24 27 28 34 57 68 67 71 68 73 77 70 72 70 76 81 86 87 89 91 75 60 56 54 53
16 16 17 17 17 17 12 10 9 14 16 16 16 15 9 6 13 12 12 14 21 25 25 34 49 60 62 67 69 71 77 75 68 70 74 77 84 84 85 85 77 64 56 57 55
16 16 16 17 18 18 19 13 11 9 11 15 17 18 12 8 6 12 10 11 14 21 22 39 46 60 61 61 70 76 74 81 75 71 72 78 84 81 84 81 76 67 58 56 52
16 17 16 16 16 16 18 17 14 11 8 10 16 18 17 11 10 11 11 10 10 15 20 38 46 57 58 56 67 72 72 84 84 78 76 79 82 80 85 77 75 67 60 57 65
12 11 13 14 14 14 15 16 16 13 8 9 12 17 19 13 14 14 11 10 8 13 21 32 46 50 49 50 52 63 72 74 79 81 75 79 86 82 80 77 75 68 65 66 66
10 9 9 10 10 12 14 13 15 15 13 10 13 14 18 16 17 13 12 9 7 12 19 30 44 46 45 41 47 67 69 70 78 73 68 71 86 89 83 79 74 69 68 64 55
11 9 8 9 10 9 9 11 14 16 16 14 12 14 14 18 17 15 13 8 6 12 18 26 35 41 40 41 41 54 70 67 69 71 72 72 83 83 86 79 78 72 70 68 66
12 8 9 9 9 8 8 14 21 24 18 16 19 20 15 16 20 19 16 9 7 12 22 21 25 35 39 40 41 42 52 58 67 80 84 78 75 70 70 79 79 75 72 77 74
13 10 10 10 9 9 12 20 20 25 22 19 22 23 22 22 22 23 19 13 13 18 21 22 19 26 34 34 40 42 46 56 65 74 80 81 77 70 65 76 77 72 69 72 74
13 9 10 11 11 11 18 18 17 19 17 17 18 25 27 24 24 23 24 19 16 19 20 21 20 16 28 32 35 40 46 50 66 68 72 81 83 81 70 72 75 74 68 70 77
13 10 14 16 15 17 19 18 19 18 16 14 16 24 26 25 22 23 27 25 19 19 21 21 16 19 16 25 31 35 41 44 53 70 72 78 77 72 69 69 75 76 69 73 74
12 12 9 14 23 22 22 20 20 19 20 19 17 23 25 25 25 27 28 28 23 21 21 19 18 19 21 20 23 29 36 38 48 52 63 65 64 71 68 68 75 74 66 70 76
13 15 14 19 22 24 25 23 22 25 45 37 27 22 25 25 29 28 29 28 26 22 22 19 18 18 20 20 18 21 36 37 38 47 65 69 67 66 70 78 73 72 71 68 73
15 16 17 21 22 27 29 28 29 41 50 47 38 32 25 29 33 34 29 30 30 29 25 20 19 19 18 18 20 23 37 39 46 53 62 60 66 72 66 60 70 78 73 69 73
17 19 24 28 29 31 32 31 39 67 56 52 46 40 30 26 33 34 36 34 36 36 33 25 21 21 20 18 20 26 39 45 50 60 59 55 68 59 65 58 60 68 65 68 71
15 21 28 30 31 33 34 39 46 56 58 52 46 37 32 30 38 33 40 39 36 38 39 33 26 23 23 20 19 26 37 48 48 60 49 56 68 69 66 71 73 77 64 71 73
16 20 26 29 35 39 38 49 40 53 53 50 47 43 42 43 43 36 41 43 47 46 40 36 31 25 24 22 21 22 34 40 48 48 46 72 75 73 74 73 72 73 66 61 60
23 30 31 36 41 42 42 40 44 45 50 50 54 51 50 47 48 46 50 43 48 44 41 37 34 29 27 26 20 18 31 46 53 49 47 74 75 74 71 68 65 62 64 63 60
36 38 29 28 38 46 52 43 39 36 39 43 53 51 52 49 53 59 51 45 40 42 41 38 34 37 36 32 26 23 30 42 51 51 51 73 81 78 75 69 69 67 70 68 69
30 34 34 31 41 52 53 43 39 40 39 39 45 52 50 51 59 57 53 46 43 43 44 43 39 42 41 38 32 29 38 46 51 54 63 73 81 75 76 79 78 77 75 73 70
29 29 27 34 36 42 36 35 32 36 31 43 44 44 51 58 60 58 53 47 46 50 44 45 42 50 49 48 39 37 38 43 46 51 59 60 78 72 74 82 82 80 73 73 71
31 34 28 25 24 29 32 29 27 27 27 41 46 46 44 55 59 55 50 42 46 46 48 46 44 50 59 59 48 42 38 44 46 50 59 65 72 73 71 73 76 80 75 75 74
27 29 31 28 21 24 26 24 24 30 33 28 41 47 49 48 57 54 51 45 37 35 39 47 48 44 57 53 46 41 43 40 40 43 51 61 61 64 68 69 74 74 72 72 73
25 24 25 29 30 32 31 28 22 23 26 33 35 34 41 53 54 56 53 45 46 44 42 40 51 47 46 63 55 46 42 46 50 53 53 57 63 63 66 68 67 68 68 67 68
25 28 30 34 27 28 28 22 21 22 26 26 29 31 34 44 57 62 56 50 43 45 42 46 49 52 52 55 56 55 50 48 58 58 52 63 55 58 63 65 65 65 66 67 66

GFSSW_prec_cthk_087.txt.gz
RH
14 13 12 12 12 16 17 17 17 16 13 13 11 9 6 4 6 10 16 23 28 33 34 34 59 67 77 80 85 90 90 88 85 82 84 89 88 80 73 59 51 49 46 46 48
15 15 15 15 13 11 10 15 17 16 15 13 12 11 8 5 5 7 16 23 27 31 34 35 57 68 77 76 81 85 85 82 76 78 81 86 87 81 72 66 60 50 49 50 51
14 14 14 15 15 15 12 9 11 17 16 15 13 12 11 6 5 8 14 21 26 30 30 36 60 71 72 72 75 81 80 77 72 74 80 81 84 83 74 77 65 53 49 52 59
15 15 14 15 16 16 16 14 10 10 16 16 15 14 13 7 8 11 13 20 25 30 29 38 58 65 70 71 74 74 77 75 71 76 79 78 83 85 84 84 76 56 49 50 55
15 15 15 16 16 15 16 17 14 12 9 13 16 15 15 10 8 12 11 16 23 28 28 40 57 64 70 70 73 76 77 78 73 80 82 82 83 85 85 86 77 63 53 51 52
13 12 12 13 14 15 15 16 16 15 12 7 13 17 17 13 6 11 10 12 19 26 25 40 50 63 66 66 75 78 76 76 71 78 81 86 85 86 84 82 78 66 56 54 52
12 10 8 9 10 12 13 14 14 15 14 10 9 15 18 18 12 12 12 12 13 21 21 33 51 59 57 56 55 67 70 72 77 74 80 82 90 86 87 83 76 69 59 60 63
14 10 8 9 9 9 10 10 11 14 15 14 10 12 18 19 19 14 12 11 10 15 18 39 55 55 54 49 53 66 70 79 78 82 82 83 88 87 85 81 79 72 67 63 71
15 10 10 10 10 9 9 8 12 15 15 17 14 12 14 19 20 16 13 10 9 14 20 38 49 53 46 44 51 64 74 72 81 86 84 82 83 75 83 81 76 73 72 77 61
16 12 10 10 10 9 11 16 19 18 18 16 19 20 16 18 21 18 16 11 7 13 22 30 41 47 45 42 47 52 69 72 76 82 84 83 76 70 77 79 80 76 75 75 67
16 12 11 12 12 11 15 17 18 21 18 19 19 21 22 20 23 22 19 12 8 14 24 25 32 42 44 41 42 46 51 50 65 73 85 86 81 74 80 83 82 77 74 73 75
16 10 12 13 12 16 17 17 18 18 14 15 17 23 23 22 21 25 22 15 11 15 23 25 23 32 42 43 42 44 50 53 69 75 82 84 81 78 75 79 77 75 74 72 80
13 11 12 14 15 19 19 19 18 16 15 14 16 26 27 24 23 23 25 20 16 18 23 24 20 19 31 41 42 43 49 48 61 70 77 83 84 80 78 76 80 81 79 74 73
12 12 9 15 20 18 20 20 19 18 21 22 23 29 27 24 25 23 27 26 22 23 24 20 21 21 21 35 41 41 50 48 56 62 70 71 74 75 71 74 77 85 80 71 71
14 13 13 20 20 23 25 25 22 23 39 32 27 30 30 25 25 28 29 32 27 22 24 21 18 20 21 23 35 35 44 46 50 55 57 63 66 64 66 71 71 77 74 63 72
14 15 18 20 22 26 29 30 29 35 47 47 39 33 32 29 32 33 32 34 33 27 23 21 19 19 18 17 21 31 36 47 48 50 59 54 60 63 72 63 64 69 73 71 65
14 20 23 25 30 31 33 35 40 52 46 48 45 46 38 35 42 36 37 34 34 35 29 23 22 18 18 20 20 22 37 52 62 62 59 51 65 61 72 65 62 69 72 77 76
13 20 27 28 31 35 38 38 44 46 50 47 45 41 37 33 47 43 40 40 37 36 34 30 25 21 18 20 22 22 31 46 54 64 51 53 59 68 70 67 63 71 74 76 80
13 20 25 31 36 38 37 43 38 48 49 48 47 43 40 38 42 46 47 44 42 36 37 33 28 24 23 20 22 24 31 35 47 48 46 66 67 67 70 69 69 71 74 71 75
22 26 31 34 40 40 40 41 39 47 52 50 51 50 50 47 46 50 53 49 41 37 37 33 32 28 27 24 23 24 29 37 46 52 50 73 71 71 72 71 73 77 79 73 69
28 34 28 31 41 47 47 47 37 33 49 44 49 54 54 56 55 53 54 50 44 43 41 38 34 31 32 32 26 25 32 41 45 51 58 78 69 68 71 71 72 73 74 74 68
31 35 35 34 42 42 43 39 31 37 35 41 42 50 55 56 59 54 50 51 48 48 46 43 40 38 39 37 31 27 30 40 47 55 65 67 69 68 70 69 68 68 73 76 76
30 31 31 29 32 34 30 26 25 30 36 37 44 46 52 53 53 54 56 52 45 46 50 44 43 49 46 46 40 35 31 30 42 53 61 61 63 68 69 69 69 70 72 78 76
30 30 28 27 27 27 28 27 24 26 31 35 45 44 46 47 53 54 58 51 47 48 51 50 46 49 60 56 50 41 36 31 34 45 55 56 65 66 64 63 67 73 76 77 76
31 33 31 27 29 26 24 23 27 25 30 32 39 47 47 48 52 55 58 52 48 48 48 49 49 50 57 56 51 43 39 41 37 38 45 51 62 63 61 59 62 66 73 77 72
31 34 35 32 25 27 26 27 23 23 23 31 33 36 46 52 52 53 61 52 51 45 44 46 55 46 52 58 58 55 43 43 46 50 54 58 66 62 60 57 62 65 67 69 72
26 26 30 29 24 25 25 20 22 23 23 27 29 30 29 44 52 52 49 46 48 44 40 41 43 44 50 52 62 70 52 49 56 55 58 58 56 61 61 58 61 66 69 67 66

GFSSW_prec_cthk_090.txt.gz
RH
14 14 14 13 12 11 12 16 16 15 14 13 11 10 9 6 5 8 11 15 22 32 35 36 55 69 80 82 86 87 91 89 86 83 87 88 83 77 61 55 51 50 49 49 48
13 13 13 13 14 14 12 9 12 17 16 14 12 11 10 8 5 6 10 15 23 33 35 35 57 71 78 82 82 80 87 81 81 79 86 84 80 75 59 54 52 47 49 50 48
14 14 14 13 13 13 14 13 9 10 17 16 14 12 11 10 5 6 10 16 23 32 33 34 53 71 81 76 80 80 81 78 77 80 82 86 82 74 68 62 51 45 47 49 48
15 14 14 15 14 14 14 14 13 11 10 16 16 14 13 11 6 10 11 14 24 31 32 35 50 74 79 76 78 76 76 76 74 79 83 82 83 77 75 70 58 44 43 49 53
15 14 12 12 13 14 14 15 16 13 12 11 14 16 15 13 7 12 10 13 23 30 30 37 53 76 77 77 79 77 79 77 75 81 83 82 87 78 86 80 66 49 53 50 53
14 12 10 9 11 12 14 14 15 14 14 11 10 15 18 16 8 12 10 11 20 29 29 37 57 73 74 70 77 76 81 78 81 83 83 82 88 86 88 87 74 56 53 52 53
15 13 10 10 10 10 10 12 13 13 14 14 11 12 18 18 12 13 11 10 16 27 26 35 58 68 69 62 64 76 82 78 76 83 87 87 90 87 86 87 77 63 55 53 52
17 15 11 11 10 9 9 9 9 11 13 14 14 13 15 20 17 13 12 12 13 22 26 39 56 61 61 56 70 77 77 85 81 82 83 85 92 82 87 84 75 67 59 51 51
17 16 13 13 11 10 9 11 14 12 11 14 16 15 16 18 22 17 14 12 11 18 21 34 46 58 53 51 58 74 77 79 84 81 87 85 85 85 86 86 78 71 66 62 62
18 17 15 13 13 12 15 17 18 16 12 13 16 20 19 21 23 23 17 13 11 14 18 31 47 53 51 48 54 66 73 76 79 76 80 83 83 83 85 83 80 74 72 69 67
19 16 15 14 13 17 15 14 15 15 14 14 17 19 21 21 23 22 19 15 10 13 18 31 42 49 50 47 49 54 64 67 70 76 81 83 88 76 81 82 81 79 78 78 59
20 17 14 12 15 16 18 19 19 19 15 12 15 19 24 21 23 23 23 16 12 15 24 31 34 42 49 47 47 49 53 68 76 75 83 95 90 82 78 80 78 78 73 77 70
19 16 10 11 16 18 18 20 19 18 18 17 15 20 24 25 21 23 26 19 13 16 23 29 24 36 44 44 47 46 50 55 67 80 84 84 88 88 81 80 79 74 69 70 72
17 14 11 14 19 18 21 21 19 21 27 25 24 23 28 28 25 23 28 23 17 17 24 26 25 28 41 43 46 47 49 50 63 71 81 83 88 82 77 75 74 77 74 68 67
16 13 13 20 18 21 23 25 24 28 42 33 33 33 27 28 31 26 28 28 24 20 22 25 25 24 25 36 41 48 48 49 56 61 74 77 71 61 72 74 72 70 76 68 66
14 13 16 21 23 25 28 29 29 36 41 40 35 32 31 31 33 33 30 32 30 25 22 22 20 23 22 20 31 45 47 50 62 59 68 62 59 59 74 66 65 69 76 70 66
12 16 18 24 30 31 30 36 41 50 45 39 36 34 31 35 40 40 39 37 35 33 28 23 21 20 21 21 20 37 44 49 66 69 68 55 58 51 69 69 62 64 71 75 72
12 20 25 30 32 34 36 37 42 44 46 44 43 39 35 30 43 44 48 44 38 35 33 28 23 20 18 22 21 27 40 48 59 66 59 59 55 50 66 70 65 63 69 77 79
14 20 27 31 34 33 34 41 36 41 42 48 46 45 44 37 39 47 50 49 42 37 36 33 26 21 20 20 22 23 31 36 45 47 54 64 57 54 63 72 69 66 70 76 76
18 21 30 32 35 37 35 40 37 36 46 50 52 51 49 45 48 54 51 48 43 39 37 36 30 25 24 24 25 24 23 36 41 49 48 71 61 50 63 73 70 66 73 75 76
29 30 31 31 35 39 41 45 44 37 43 50 54 54 53 51 58 58 56 52 48 44 42 42 36 32 31 29 29 27 31 33 38 44 61 72 59 53 57 67 72 71 73 77 76
32 30 32 33 38 38 36 33 26 32 39 50 49 52 54 54 61 55 53 54 51 49 48 46 42 40 37 33 30 28 30 36 39 45 58 61 52 56 56 64 70 72 78 80 79
31 32 31 31 28 26 28 24 26 25 32 36 45 50 56 59 60 55 53 51 52 49 50 50 50 49 44 40 35 34 31 32 38 44 57 54 50 58 59 64 68 70 70 71 73
30 29 25 25 26 29 27 25 23 22 26 36 36 44 52 58 60 58 55 52 54 54 52 51 51 52 52 46 41 37 36 35 31 38 45 47 56 63 61 61 64 67 69 68 69
30 31 29 25 25 27 26 26 24 24 23 33 38 44 49 53 51 58 52 50 55 54 52 52 56 53 53 50 45 43 38 39 42 30 37 41 51 57 63 61 59 60 67 71 70
33 33 33 32 29 26 26 24 23 24 23 27 36 36 47 50 52 54 53 55 56 50 52 55 61 56 56 56 54 52 45 46 48 47 47 50 52 56 63 65 63 59 59 62 70
31 33 34 31 26 24 25 22 21 24 23 26 31 32 31 45 49 51 55 52 53 49 47 52 52 53 57 55 58 58 54 51 53 56 53 51 53 59 62 64 63 60 63 62 64

GFSSW_prec_cthk_093.txt.gz
RH
13 12 12 12 12 12 11 11 15 16 15 13 11 10 9 8 6 6 8 10 15 24 37 38 55 65 82 84 86 87 90 91 85 84 85 80 72 64 58 55 52 52 49 51 53
14 14 13 13 12 12 12 12 10 12 16 16 13 11 10 9 7 6 8 10 14 25 37 39 57 70 82 79 83 82 83 82 80 79 84 78 75 62 53 51 49 50 49 55 53
16 15 14 14 14 13 12 12 12 10 10 17 16 13 11 10 7 6 8 9 13 27 34 36 49 66 80 78 82 79 80 79 81 78 80 81 77 63 52 47 43 44 44 53 54
16 15 13 13 13 14 14 13 14 12 10 11 17 16 13 12 6 10 9 9 13 27 35 38 46 68 81 74 81 79 77 77 79 81 83 85 76 66 57 51 42 46 48 48 50
16 14 11 10 11 12 13 14 14 15 13 11 11 17 16 14 9 11 9 8 16 27 34 37 44 72 80 80 79 78 78 75 78 80 83 85 79 70 68 59 49 48 52 51 48
16 16 13 11 11 10 10 11 13 14 14 14 10 12 18 17 10 11 9 9 16 26 33 36 46 71 78 76 78 77 78 78 80 85 82 83 83 75 80 66 54 46 48 51 48
16 16 13 13 12 11 10 9 9 10 13 14 13 11 17 19 14 13 10 9 13 24 30 35 52 70 73 69 71 80 77 81 81 84 85 89 88 85 89 77 61 51 51 50 51
17 17 14 13 13 12 11 9 8 8 9 12 13 13 15 20 18 16 11 7 11 22 29 35 59 66 67 66 74 83 81 83 83 85 92 93 89 88 89 89 71 59 53 54 53
18 17 15 15 16 14 15 16 14 12 10 10 13 14 16 20 22 20 14 12 11 18 25 36 56 61 59 62 74 81 79 81 83 85 89 91 90 90 93 91 71 63 55 51 48
20 18 15 17 17 19 17 16 16 16 14 12 11 17 19 23 24 22 18 14 12 14 24 31 53 60 53 52 61 76 74 76 80 83 85 90 90 91 96 91 75 69 61 51 53
20 17 16 18 18 17 17 16 16 14 14 13 14 15 20 24 26 26 22 14 13 13 20 29 48 54 52 50 53 64 69 70 71 75 82 84 89 90 94 90 81 75 71 65 61
19 18 17 17 15 17 18 18 18 18 15 13 14 13 21 23 26 26 23 19 12 12 19 25 37 44 55 50 49 54 62 61 75 78 79 85 91 93 91 89 84 77 75 72 62
17 18 17 12 16 18 19 20 19 20 21 19 16 15 20 24 25 24 24 23 15 14 19 21 27 39 49 51 48 48 53 69 70 85 85 85 90 91 87 89 88 85 74 77 64
16 18 15 12 18 18 22 22 23 24 26 26 25 24 26 29 28 26 26 25 20 15 18 26 25 34 39 48 50 49 48 57 64 69 82 82 90 83 86 84 84 80 77 74 77
16 18 15 16 19 21 22 25 27 28 35 33 29 33 30 29 32 29 29 27 24 19 20 23 26 27 36 42 49 51 48 49 60 68 74 76 80 75 76 81 75 76 78 73 71
16 19 15 19 21 25 28 29 31 32 37 35 33 30 30 30 35 33 31 30 30 26 21 24 24 27 28 39 46 51 51 53 58 57 61 68 61 62 70 67 68 76 79 77 71
17 18 18 24 27 27 30 33 33 36 37 40 37 32 35 32 29 36 34 34 36 32 28 27 24 24 24 27 38 46 50 54 57 60 49 54 62 52 63 67 65 66 73 74 74
18 19 24 27 29 30 32 33 35 35 38 39 41 38 33 33 34 36 38 38 38 34 30 28 27 23 23 23 24 35 44 48 52 58 49 60 50 48 60 62 64 61 66 69 71
18 24 25 28 29 29 31 34 34 35 37 44 44 42 40 36 36 37 41 41 40 39 35 30 26 21 19 21 22 22 31 42 48 49 44 55 54 54 55 63 62 59 63 68 74
18 23 26 29 30 31 29 34 35 40 42 44 53 51 49 42 39 47 47 43 43 40 40 37 30 26 21 21 23 23 21 34 41 50 46 53 51 41 48 56 64 68 68 72 76
24 29 30 28 31 31 31 33 35 35 36 44 51 56 52 49 45 56 54 48 44 42 39 42 36 33 28 27 22 25 26 27 40 41 38 44 42 43 45 48 62 70 68 71 75
30 29 29 29 32 34 30 27 21 24 31 38 49 56 57 54 54 46 56 54 48 47 41 43 41 42 34 30 27 25 27 27 25 42 45 41 41 46 48 50 58 71 71 70 74
31 28 31 31 31 26 25 22 27 23 25 36 46 50 56 59 60 53 55 53 53 51 51 48 47 46 42 36 31 31 28 29 31 34 39 36 40 52 51 54 56 65 72 74 77
32 29 26 26 23 24 25 26 29 22 22 32 37 40 52 61 61 62 58 52 56 53 54 52 53 49 43 41 35 36 35 29 28 29 38 35 44 54 54 53 58 64 71 71 71
31 28 26 24 23 25 25 24 26 25 23 30 39 38 47 59 60 64 64 62 53 54 52 54 55 51 47 47 42 39 39 38 30 31 32 36 36 46 56 59 60 61 68 70 71
33 29 29 30 25 25 27 26 23 23 23 23 37 34 47 54 57 54 55 58 56 56 56 53 61 52 56 51 47 42 43 45 42 41 40 39 40 45 53 60 64 62 64 66 67
33 32 30 29 25 25 25 24 23 21 23 26 31 32 33 47 50 52 49 49 52 49 54 56 56 67 61 57 54 53 47 44 45 43 41 39 43 45 48 55 62 66 66 65 65

GFSSW_prec_cthk_096.txt.gz
RH
13 12 11 11 11 11 11 11 11 14 15 14 11 10 9 8 7 6 7 8 11 20 27 38 50 63 73 83 82 84 86 89 83 77 74 72 63 59 59 59 57 57 47 49 50
15 14 13 13 13 12 11 11 11 9 12 15 15 11 10 9 8 7 7 8 10 19 28 40 55 65 73 78 79 81 81 84 78 75 74 67 62 57 56 54 54 50 51 52 50
17 16 15 13 13 14 13 12 11 11 9 11 16 15 11 10 9 6 7 8 10 18 29 37 49 66 80 76 77 78 81 80 77 77 71 67 59 54 53 53 49 49 49 52 51
13 13 10 10 11 12 13 13 13 13 10 9 12 17 15 12 9 11 8 8 10 19 29 39 48 65 75 72 75 75 75 78 77 79 75 74 62 53 51 49 46 48 48 51 52
13 13 10 10 10 10 10 11 12 13 13 12 10 13 17 17 11 10 8 6 9 21 30 38 43 64 77 77 75 75 75 75 78 80 80 77 67 57 53 45 44 48 50 53 55
14 14 11 11 11 10 10 10 10 11 12 13 13 9 18 19 14 10 9 6 13 20 30 37 41 61 74 78 76 74 74 75 79 81 84 80 72 67 62 49 47 50 52 52 53
16 14 12 12 12 12 11 11 10 9 9 12 13 11 15 21 17 14 12 13 13 22 30 36 44 60 73 77 77 78 75 78 81 82 83 84 81 78 70 55 49 50 53 50 50
17 15 14 14 14 13 11 12 13 11 10 9 12 13 15 19 20 18 13 14 14 20 27 35 50 60 66 73 83 82 78 82 84 84 90 87 86 84 76 65 52 50 54 51 52
18 15 15 16 15 16 18 19 19 16 13 11 11 15 16 19 23 21 14 10 11 17 24 33 54 60 61 72 78 86 79 80 86 87 89 92 92 91 89 80 64 53 52 55 52
18 16 16 16 16 18 19 17 15 16 13 12 11 14 18 24 25 24 18 13 12 15 23 32 54 57 55 62 73 84 79 76 80 89 86 91 93 95 93 83 72 58 54 54 54
16 17 15 15 18 19 18 16 20 21 17 14 16 16 18 24 26 27 22 17 13 12 20 27 45 56 51 54 58 73 76 74 78 87 95 90 93 95 98 96 73 64 51 54 53
16 17 16 16 19 18 17 19 19 19 19 17 13 13 16 21 28 29 23 19 15 12 19 25 35 50 59 48 55 65 72 71 76 80 83 93 94 94 93 92 79 71 64 61 59
16 16 15 17 18 17 18 19 20 23 24 19 16 15 16 20 27 29 26 21 17 13 18 19 25 51 52 48 48 55 63 63 74 81 83 88 89 90 93 95 85 76 74 71 65
15 16 15 17 18 18 19 20 22 25 32 28 26 25 24 23 26 28 27 26 19 16 15 17 24 37 44 50 48 49 50 65 73 72 84 81 87 80 86 95 88 79 77 76 67
15 16 17 18 18 19 22 24 27 27 37 31 30 32 29 28 31 27 27 27 24 18 19 21 23 29 33 45 53 53 48 58 62 70 71 79 73 75 84 84 90 83 75 78 73
15 17 18 20 21 23 23 25 28 35 39 35 34 34 31 29 31 30 30 29 30 25 20 30 27 26 29 39 46 50 49 52 57 63 63 64 62 71 75 72 73 80 79 75 74
16 17 21 24 26 24 24 28 35 35 31 36 36 33 36 37 33 32 31 31 31 30 24 27 26 28 29 32 40 51 53 54 53 55 49 62 57 56 65 68 65 73 77 79 76
18 19 24 25 26 25 25 29 35 29 32 34 36 35 33 34 39 37 35 32 36 31 31 30 28 27 23 25 31 46 48 50 58 52 48 47 57 52 57 63 65 69 70 73 77
19 22 26 25 24 25 28 32 30 31 30 33 40 40 39 32 36 39 38 39 38 33 36 33 31 29 24 24 24 32 48 47 48 52 44 50 46 51 51 57 58 60 66 71 76
20 26 28 26 25 26 31 29 31 29 29 33 43 43 49 39 39 44 42 47 52 40 41 40 33 30 25 23 24 26 30 47 43 50 45 48 50 47 52 51 59 58 65 69 73
21 27 29 24 27 29 37 32 30 28 27 33 40 49 49 47 43 46 55 45 44 43 38 42 33 34 26 21 21 23 22 26 38 39 37 41 47 51 51 51 50 55 68 70 75
26 36 28 26 34 29 31 26 18 21 23 32 42 54 56 50 47 52 53 55 43 42 40 42 42 44 28 28 23 24 23 24 24 40 39 39 47 54 44 46 47 52 67 71 77
33 33 28 28 37 30 24 22 23 25 23 29 40 51 56 57 59 52 52 59 53 48 47 46 41 48 44 33 25 22 23 28 31 29 40 40 37 50 43 45 50 54 70 74 74
32 33 29 28 25 23 25 27 29 24 22 23 38 41 52 58 58 57 53 52 59 57 48 49 47 48 40 33 33 34 28 22 27 31 32 38 44 55 52 48 53 56 64 75 76
33 30 27 23 22 22 22 22 24 27 23 22 37 38 43 52 52 56 58 58 59 59 56 56 52 48 49 47 40 40 34 26 27 29 34 36 40 55 51 51 51 59 64 68 74
36 31 27 26 23 23 24 26 22 22 21 26 36 35 40 55 57 54 58 63 61 63 66 59 59 50 46 46 44 46 42 36 33 30 33 38 45 43 47 51 53 58 62 63 68
34 29 30 26 24 25 26 24 22 19 21 24 28 33 37 44 49 55 51 55 61 59 58 62 58 61 56 50 50 45 45 45 43 38 40 35 44 39 40 45 52 55 60 62 64

GFSSW_prec_cthk_099.txt.gz
RH
14 13 12 11 11 10 10 10 10 12 13 13 12 10 9 8 7 6 8 9 10 16 23 31 46 55 67 78 80 81 93 87 81 69 64 57 57 61 59 59 57 57 47 49 51
15 14 13 12 12 12 12 11 10 10 9 13 14 12 10 9 7 8 8 7 8 14 21 32 46 61 69 77 77 81 84 84 82 68 68 62 53 57 62 59 55 49 48 48 51
12 11 10 10 11 11 12 12 12 11 10 8 13 14 12 10 10 11 7 6 8 12 25 33 47 64 68 73 74 76 84 82 78 75 68 59 59 53 60 54 52 50 48 47 50
13 12 10 9 9 8 10 11 12 12 13 9 8 14 14 13 14 14 6 7 8 12 26 32 43 63 71 77 72 73 76 79 76 73 68 61 55 55 53 56 53 52 50 48 50
14 14 11 10 10 9 9 8 9 11 13 12 10 9 15 18 15 10 8 6 8 13 26 32 40 58 72 74 72 72 76 77 78 75 71 64 54 54 60 50 50 51 54 53 55
15 15 12 11 11 10 10 9 9 9 10 12 12 9 13 20 17 13 9 5 9 16 24 29 38 49 66 76 74 77 77 76 81 81 76 71 59 54 49 45 49 50 54 56 57
16 16 13 12 11 10 10 10 9 9 9 10 12 12 14 21 19 18 11 8 11 17 24 28 36 45 68 72 71 75 78 78 81 77 77 78 66 68 54 48 48 52 52 56 60
18 16 13 13 12 13 15 16 13 12 12 11 9 13 21 16 21 21 16 15 13 18 24 27 38 49 66 68 75 78 79 86 87 76 80 81 85 73 60 54 50 55 58 56 55
19 16 13 13 15 15 16 16 16 17 18 15 12 12 20 15 20 24 18 16 14 17 23 30 45 57 59 68 85 83 86 82 85 79 85 84 90 84 74 58 54 55 58 56 56
17 16 13 13 15 16 16 16 16 16 14 13 12 14 12 21 24 23 18 15 12 15 20 26 44 55 58 61 82 74 92 80 83 86 83 91 95 88 82 73 58 55 55 57 52
17 15 14 14 15 16 16 22 26 34 20 23 22 19 21 22 25 25 22 17 12 13 17 26 38 53 52 53 69 81 82 93 85 87 86 89 87 93 88 81 73 61 56 57 55
17 14 14 13 15 16 17 23 20 18 21 19 13 13 17 21 26 26 25 20 15 12 17 22 33 45 57 54 54 64 80 91 92 84 78 86 88 92 97 86 83 67 59 58 57
15 13 14 13 15 16 19 20 19 20 30 24 17 16 16 16 25 28 24 23 19 12 14 19 23 36 54 57 47 53 67 76 95 90 86 86 94 96 97 93 91 80 66 54 56
14 14 14 14 18 21 21 19 20 30 42 36 31 26 18 19 24 31 26 25 20 16 16 19 23 29 58 53 46 51 62 69 95 75 86 89 93 91 93 94 93 87 70 63 60
13 14 14 15 19 24 21 21 22 33 51 35 35 28 26 28 36 27 28 29 24 18 16 16 20 28 41 46 51 55 57 72 88 77 69 76 74 84 83 88 95 78 82 83 59
13 15 14 18 21 21 21 24 31 47 50 41 35 36 29 25 32 33 25 29 28 23 18 21 24 25 30 34 51 55 49 49 61 63 74 62 58 73 70 79 88 81 90 76 79
13 15 18 22 28 22 22 29 53 41 27 42 43 34 39 40 42 31 27 29 32 27 24 22 31 29 26 31 42 52 48 51 53 86 57 58 56 58 63 69 80 81 75 81 79
14 16 20 24 22 21 22 36 47 26 40 31 33 37 33 41 41 36 36 35 29 30 31 23 25 28 22 30 36 40 42 49 54 50 52 60 56 61 53 53 61 69 74 83 76
16 18 24 26 20 21 34 52 40 35 29 32 42 38 39 36 47 41 43 38 36 35 34 29 29 32 28 27 30 35 44 47 49 47 62 55 59 60 48 54 60 62 63 69 73
19 25 30 25 20 22 37 34 34 24 23 30 40 51 45 40 29 38 40 40 40 40 37 41 33 34 31 24 24 28 35 45 43 52 56 57 55 52 53 54 57 61 67 66 68
21 29 32 23 22 31 50 42 26 24 17 26 39 42 46 54 38 43 49 43 52 51 41 47 37 36 34 26 22 22 26 39 39 36 40 50 54 54 56 47 55 63 68 67 72
29 39 35 21 31 37 42 28 17 22 20 25 29 36 53 48 46 41 59 53 40 53 52 41 45 38 36 31 23 27 25 29 34 43 33 37 61 67 55 62 53 55 60 71 77
33 50 34 20 46 41 37 24 20 26 25 24 39 38 47 53 56 53 54 62 48 36 47 46 38 38 45 32 30 24 26 21 24 26 29 29 51 56 66 59 52 49 53 63 76
36 38 31 24 34 34 33 32 30 25 21 19 31 37 49 55 49 50 49 46 39 41 39 47 46 37 43 38 33 28 25 25 24 25 23 36 57 55 59 51 46 43 50 58 71
33 48 39 31 28 28 26 29 26 29 28 23 33 37 47 56 52 53 55 53 46 56 49 43 45 45 42 46 39 31 23 30 31 30 29 24 39 59 51 50 46 46 53 59 71
47 46 29 37 27 22 26 36 27 25 21 31 26 36 37 52 58 66 48 59 64 59 58 58 62 51 45 50 39 38 36 34 32 27 27 36 42 71 56 53 53 48 56 62 69
42 37 34 35 24 30 42 29 25 17 21 23 29 34 43 44 44 47 48 54 58 57 59 58 58 62 59 43 50 47 45 40 36 32 31 36 63 52 59 53 49 48 54 59 62

GFSSW_prec_cthk_105.txt.gz
RH
11 12 12 11 10 10 10 9 9 9 9 11 10 9 9 8 7 6 5 5 8 11 17 22 40 47 61 68 74 86 89 91 87 63 48 59 81 57 57 53 48 52 47 45 53
11 11 10 8 8 9 9 10 10 9 8 9 9 11 10 9 8 6 4 6 8 10 15 21 35 47 58 71 77 85 99 90 85 78 66 54 64 52 53 59 59 58 48 44 51
13 12 11 9 9 8 7 7 9 10 10 9 8 8 12 11 8 9 7 5 7 8 13 21 35 49 58 65 75 86 95 94 81 74 77 61 52 53 76 66 63 55 42 46 50
14 14 12 11 10 10 9 8 7 7 9 10 9 7 8 13 17 15 11 8 7 7 11 23 33 40 64 69 74 79 86 82 86 86 87 64 50 63 58 61 50 49 43 53 48
15 14 12 12 11 10 10 9 8 8 7 8 10 10 8 15 14 14 12 8 5 6 10 21 32 40 59 66 69 78 79 90 87 81 89 69 51 50 66 52 52 48 49 46 48
16 15 13 12 12 12 11 10 9 8 8 7 7 9 9 14 17 16 14 9 5 6 10 20 29 37 46 61 67 76 77 83 93 88 92 70 71 57 66 65 57 46 40 54 54
16 15 13 13 14 14 14 13 11 10 9 8 7 8 8 10 17 18 17 13 5 5 11 19 28 34 38 49 61 83 81 75 91 90 86 68 64 58 66 61 56 45 45 60 55
16 16 13 13 14 13 12 11 11 11 10 9 8 8 8 12 15 18 21 16 7 7 13 18 26 31 33 42 65 67 70 83 85 92 82 87 70 68 64 74 66 45 47 58 51
17 15 14 12 14 12 12 14 15 16 11 10 12 16 15 14 14 15 20 19 13 10 15 20 25 27 34 41 56 75 78 78 87 84 94 79 78 77 65 51 47 46 48 59 50
16 14 14 12 13 11 13 17 19 23 15 21 20 24 21 20 17 15 22 23 21 14 15 19 23 26 34 48 61 73 79 78 89 98 92 85 78 78 75 73 53 47 48 58 46
16 15 13 12 11 10 12 19 19 26 17 20 18 18 17 22 21 20 22 24 26 19 17 17 23 28 35 51 55 65 78 83 88 97 95 93 84 81 82 74 64 52 50 64 52
16 15 12 11 10 10 15 16 18 19 24 24 22 21 12 19 20 19 19 24 25 21 16 17 19 21 34 58 71 70 79 88 89 81 85 94 92 86 86 81 79 75 66 69 52
16 13 12 10 10 13 17 17 22 28 32 30 28 22 19 15 13 23 19 22 22 19 15 16 15 22 32 56 65 72 77 81 83 88 86 90 98 91 86 86 81 78 69 59 51
15 12 11 10 15 20 20 21 27 34 44 37 30 26 23 15 18 20 23 25 24 22 16 14 16 22 28 47 55 71 76 80 82 79 87 95 99 96 92 85 84 81 75 66 61
15 11 11 11 18 21 21 24 30 43 53 32 33 30 25 26 28 25 25 26 28 26 21 14 16 21 27 31 52 77 73 84 77 79 78 91 99 95 92 87 80 78 74 73 58
15 11 11 12 15 20 24 32 41 49 45 40 39 30 29 24 30 36 28 26 27 28 26 18 16 24 28 31 46 67 81 85 85 85 87 86 93 91 86 69 68 73 79 76 63
15 11 11 13 19 20 24 33 48 53 43 39 31 35 32 37 33 33 33 28 28 31 28 21 17 20 27 38 56 55 71 89 91 88 84 78 89 88 73 69 63 67 76 72 68
13 11 12 14 19 20 29 45 59 45 44 34 29 35 36 39 41 41 38 27 24 29 33 33 22 19 27 28 53 54 54 70 79 88 84 81 89 83 70 61 64 72 76 80 65
12 12 14 16 17 19 33 50 55 46 32 26 22 38 45 39 44 40 42 33 23 25 31 38 34 28 22 24 24 39 48 45 66 71 78 90 88 81 63 60 64 74 76 76 80
12 13 15 17 19 21 32 46 46 35 22 11 20 35 50 48 46 47 46 44 37 38 29 35 40 36 33 28 28 37 40 44 56 71 78 85 93 90 68 65 65 67 72 74 73
14 21 21 18 22 22 34 48 44 29 15 13 14 22 42 48 46 52 54 49 45 43 40 38 38 39 36 35 29 35 33 43 47 46 62 80 81 65 70 68 72 65 64 65 71
24 33 31 25 20 30 43 48 43 29 20 18 15 18 24 46 35 50 56 58 53 48 46 42 42 45 41 33 32 27 30 34 39 38 50 50 77 68 62 62 57 67 69 63 63
29 36 35 35 26 31 55 49 40 33 21 16 12 20 29 41 51 42 45 52 50 51 47 43 45 50 44 40 38 32 26 25 27 26 33 44 69 64 56 56 52 53 65 63 67
26 45 42 37 21 40 49 45 43 33 24 20 17 16 26 46 50 53 57 58 51 50 47 47 44 48 55 50 47 44 32 26 24 23 25 33 53 56 52 48 59 72 74 74 67
39 47 53 48 30 26 35 40 38 32 31 24 22 30 41 49 58 58 55 54 50 51 42 41 45 44 51 48 50 43 40 31 27 23 26 44 52 57 55 55 65 76 78 82 78
41 46 51 51 47 39 33 28 23 27 22 20 24 27 37 45 44 55 42 51 58 47 41 37 45 49 48 52 52 50 45 42 32 22 42 52 67 71 65 59 66 70 69 69 81
43 44 57 51 47 43 34 34 40 28 22 19 15 17 39 47 41 34 38 36 39 39 42 43 47 55 56 53 52 59 58 55 51 43 37 53 60 65 60 53 54 57 57 60 65

GFSSW_prec_cthk_108.txt.gz
RH
10 10 10 9 9 9 9 10 9 8 8 8 10 9 8 8 7 6 5 4 7 11 18 21 40 53 63 71 78 84 89 92 80 64 58 60 60 57 58 58 52 51 44 47 57
12 11 10 9 9 8 8 8 10 10 9 8 8 8 10 9 7 6 5 4 6 10 16 24 45 53 61 67 78 83 88 87 82 71 62 67 78 57 56 58 54 51 49 52 53
14 13 11 11 10 9 8 8 7 8 9 9 9 7 7 11 9 9 8 4 5 8 13 19 38 48 51 63 78 85 90 83 83 77 66 74 72 59 57 61 59 59 49 50 48
15 14 12 12 11 10 9 9 8 7 7 7 10 9 7 10 15 14 11 8 6 7 10 17 37 44 48 60 71 92 84 84 84 80 76 69 60 57 68 73 61 51 42 45 46
16 15 13 13 12 11 10 9 8 8 8 7 6 8 9 10 13 15 13 10 7 7 9 17 30 41 44 56 69 76 84 88 86 86 79 72 65 55 65 67 57 48 49 43 47
16 15 14 13 13 13 13 12 10 9 9 8 7 7 7 11 16 16 15 13 8 5 7 16 29 40 43 52 62 78 76 86 88 85 85 84 72 59 60 62 56 52 46 46 50
16 15 14 13 13 12 12 12 12 11 10 9 8 7 6 8 15 19 16 16 11 6 7 15 30 36 38 42 49 66 86 92 86 88 94 88 83 60 70 66 61 57 47 54 50
16 15 14 12 12 12 13 15 16 12 10 9 8 10 7 9 12 15 17 18 12 6 8 17 26 33 35 36 43 74 77 86 88 90 88 95 84 70 59 66 64 59 51 54 52
15 13 12 10 11 12 16 17 17 15 15 17 13 14 14 15 13 12 14 18 17 9 13 19 22 28 33 35 46 65 80 81 99 97 97 94 86 67 69 74 67 62 51 64 59
14 13 12 11 11 12 15 16 17 20 15 18 19 19 17 17 16 15 12 22 21 16 19 18 19 24 31 36 53 65 74 87 96 98 97 95 92 84 76 63 57 56 52 59 62
13 13 12 11 11 11 15 16 16 17 16 19 18 17 16 15 19 19 19 23 25 21 21 20 20 23 27 35 54 66 78 89 96 91 87 97 97 90 84 78 65 49 55 70 65
14 14 12 11 11 12 14 15 21 23 23 23 21 19 17 16 16 19 20 23 27 26 20 20 20 19 27 46 56 70 79 91 89 88 83 88 94 92 90 86 77 73 54 52 62
16 15 12 11 11 15 17 22 26 28 29 26 24 22 19 14 13 17 18 21 25 27 22 19 15 19 30 43 62 72 80 87 85 89 87 90 95 92 91 90 82 81 74 63 59
17 15 12 11 14 19 19 24 25 31 34 30 25 22 17 16 21 21 20 20 21 23 20 16 18 20 30 40 59 73 73 73 86 82 83 85 90 93 94 92 84 80 77 76 69
23 14 12 12 19 20 20 24 29 31 43 31 29 26 27 25 26 23 24 23 25 28 26 18 20 26 30 33 45 69 67 68 80 86 87 87 87 87 96 91 83 82 82 79 68
35 15 11 11 16 19 21 31 34 41 49 34 30 27 31 30 27 30 31 27 30 29 26 20 24 22 26 33 47 56 63 70 80 87 90 83 79 90 95 88 83 82 82 80 79
33 14 10 12 17 19 29 37 41 48 41 31 31 30 35 36 36 33 35 33 29 31 28 22 22 30 38 55 65 68 60 79 87 89 87 88 87 83 86 85 82 84 85 84 83
29 12 10 13 18 22 29 38 46 45 36 28 27 33 44 38 45 43 40 38 28 30 32 27 26 27 38 45 52 60 56 66 75 89 86 92 91 76 76 77 75 73 80 83 82
21 11 12 15 17 19 31 47 49 45 26 23 28 28 37 41 43 46 48 43 34 28 36 33 27 31 32 38 46 56 52 56 69 73 80 87 83 71 65 70 64 67 72 80 83
17 13 14 16 17 20 34 43 43 35 25 11 14 23 31 42 45 46 48 48 51 38 35 36 33 30 32 30 37 34 36 53 61 73 80 86 83 79 64 63 65 71 75 75 85
17 18 18 19 19 21 34 37 39 36 26 14 14 18 28 33 41 48 53 51 52 49 44 44 34 37 37 32 28 30 33 39 47 55 68 83 77 58 53 52 60 68 75 79 82
22 30 28 24 21 24 30 41 43 36 26 24 16 16 24 41 43 41 50 50 55 51 47 49 44 46 42 42 27 30 33 42 45 42 56 61 63 47 48 49 57 61 70 75 74
24 34 34 29 25 26 33 37 45 44 34 30 21 14 25 37 40 38 35 38 46 56 53 45 44 51 47 46 39 38 37 38 39 38 42 45 54 41 48 49 52 58 68 75 78
28 37 43 36 30 29 34 38 44 43 38 26 22 20 27 33 34 36 40 36 41 47 55 48 46 51 57 56 47 43 41 41 38 35 34 36 38 47 48 52 52 57 63 73 75
26 36 45 43 39 35 44 46 43 39 34 28 25 23 26 35 40 39 38 46 45 47 49 53 49 49 52 57 51 51 49 44 42 32 27 29 41 49 50 49 54 55 63 73 76
22 40 47 46 46 44 39 34 29 33 32 27 25 26 27 36 35 35 41 51 58 48 51 52 58 55 58 55 56 58 56 53 50 43 42 40 43 47 53 50 55 52 60 68 67
38 43 51 54 52 51 43 40 33 27 29 28 27 19 26 30 31 29 31 46 53 52 49 53 54 61 61 64 61 72 66 61 56 52 48 44 46 47 52 57 60 64 62 67 68

GFSSW_prec_cthk_111.txt.gz
RH
11 11 9 9 9 9 10 10 10 9 8 8 9 10 8 7 7 6 5 5 6 12 18 26 38 48 59 69 76 74 80 85 79 64 63 61 57 56 60 55 46 48 43 46 65
13 12 11 11 10 9 8 8 8 10 10 9 8 8 9 9 7 7 6 5 5 8 16 31 38 50 57 63 79 79 83 85 78 76 76 68 59 59 58 55 49 46 48 52 55
14 14 12 12 12 10 9 9 8 7 8 9 10 8 7 9 11 10 7 5 5 8 12 22 37 45 50 59 71 80 87 82 81 79 75 69 77 60 56 59 53 52 47 51 55
16 14 13 13 13 12 10 9 9 8 8 7 8 9 9 8 15 14 11 7 5 8 10 27 33 42 48 49 65 80 83 88 86 81 73 70 77 63 59 64 56 55 46 49 50
16 15 14 13 13 13 13 11 10 9 8 8 7 7 9 9 14 16 15 10 8 7 9 16 28 39 47 50 60 73 82 90 86 84 75 76 81 67 65 70 58 52 48 44 46
15 14 13 13 14 12 12 11 11 11 10 9 8 7 6 9 17 17 16 14 10 7 8 12 30 38 40 40 51 65 70 83 82 83 81 76 70 76 69 70 68 52 49 44 45
15 15 14 13 13 12 13 15 13 10 10 10 8 8 7 9 15 17 17 16 13 8 7 13 29 35 36 36 43 60 71 84 95 87 92 83 78 76 57 78 64 54 53 47 47
14 13 12 11 10 11 14 16 17 13 14 14 11 9 8 8 10 12 16 18 14 8 9 15 28 31 34 31 36 56 67 89 94 95 96 93 89 77 71 73 61 60 57 50 50
13 13 12 10 9 12 15 15 17 16 14 15 17 15 15 15 14 14 13 16 15 10 11 16 25 26 28 30 37 58 71 83 94 98 96 97 91 85 69 69 77 64 56 52 54
12 12 11 10 9 12 16 16 16 16 16 17 17 18 16 17 16 16 11 16 19 15 17 21 21 25 27 27 38 62 75 90 97 92 97 97 94 86 79 74 71 68 60 52 58
13 13 12 11 10 12 15 15 17 17 19 20 17 17 15 14 14 18 15 18 21 20 21 22 22 23 23 27 38 61 70 85 93 91 93 92 94 93 86 85 80 67 66 51 53
15 13 11 11 11 16 17 19 21 23 23 21 20 18 16 16 16 17 20 19 21 23 24 23 21 20 24 30 39 60 77 84 91 92 92 93 94 98 96 90 82 71 56 53 57
21 13 11 11 13 17 19 20 23 25 26 24 22 19 17 17 15 13 18 21 22 24 25 24 19 20 24 29 51 67 74 78 78 88 87 87 92 96 97 93 85 79 73 63 55
30 18 11 10 16 18 18 22 27 26 31 26 24 23 19 20 22 20 16 20 21 24 24 22 19 19 22 28 48 68 72 73 76 82 87 85 87 94 97 95 86 85 82 78 67
31 28 14 12 16 17 20 26 28 29 35 27 25 25 26 23 28 30 25 18 20 22 23 22 22 22 25 30 45 59 67 73 73 78 84 87 90 83 91 96 86 87 85 82 76
33 32 14 11 16 18 22 31 32 37 41 32 25 28 30 29 29 32 31 23 25 25 25 23 23 25 31 38 38 50 65 71 72 75 83 83 85 78 83 77 83 89 88 85 77
31 31 14 11 15 21 30 34 40 41 34 27 25 27 30 33 34 36 37 31 28 30 28 25 27 38 38 48 53 54 67 74 68 79 84 84 86 75 70 74 80 86 88 87 81
28 26 13 13 14 22 30 38 41 36 34 27 25 29 30 35 35 36 40 39 34 33 32 29 29 43 41 48 53 65 60 63 65 81 83 86 88 78 73 80 85 87 89 88 85
29 17 12 13 16 21 30 42 41 39 28 21 23 25 29 39 41 39 44 43 38 33 37 35 36 32 41 47 48 66 63 57 69 77 78 77 75 72 70 79 87 86 86 90 87
21 15 15 16 16 21 35 42 38 32 26 20 13 17 24 32 47 46 48 51 46 38 38 39 37 33 35 41 46 51 52 58 66 76 83 76 77 75 71 71 73 73 76 80 89
14 17 17 19 19 21 34 38 33 27 28 23 20 16 18 27 38 51 51 49 49 50 42 44 37 35 37 37 41 39 49 47 52 59 73 76 66 56 55 56 64 66 70 72 74
16 23 22 24 22 21 30 34 31 29 28 23 23 20 17 29 35 31 32 39 46 50 43 48 47 44 38 42 37 36 42 44 45 41 57 61 54 51 52 53 57 62 70 75 78
19 26 28 30 30 22 27 32 35 35 37 32 31 21 22 27 31 33 30 28 42 45 48 48 50 48 43 44 42 43 44 35 36 40 43 45 40 47 47 49 56 60 68 74 80
24 34 36 38 32 28 33 36 38 37 37 35 25 24 23 27 33 32 30 34 30 40 45 50 54 52 57 54 52 53 53 44 37 42 34 32 28 35 47 49 52 54 62 71 75
23 35 44 46 41 38 39 43 40 41 33 30 31 27 25 29 32 33 35 32 36 44 43 50 54 54 53 61 58 59 57 53 47 53 31 28 28 40 47 54 54 54 60 62 70
32 39 45 48 44 41 42 44 40 36 31 31 31 29 31 26 24 26 35 41 51 56 55 53 54 58 59 61 63 63 56 53 53 58 51 52 49 54 53 55 61 60 61 66 69
45 38 43 51 51 47 47 44 37 34 32 30 35 39 30 20 23 24 29 36 50 59 60 61 58 60 64 61 62 60 63 57 57 61 61 56 56 55 60 61 64 68 68 75 78

GFSSW_prec_cthk_117.txt.gz
RH
14 12 11 11 10 9 8 8 9 9 9 7 7 9 8 6 6 6 5 5 6 11 15 20 27 39 46 53 64 70 76 76 76 73 70 66 62 61 58 51 47 47 44 52 56
14 13 13 12 12 11 10 8 8 7 9 9 8 7 8 8 7 7 6 5 5 8 12 18 30 39 47 59 71 74 70 78 84 83 84 75 67 64 58 52 52 48 44 50 58
15 14 14 14 14 13 12 11 9 8 7 7 9 9 7 8 10 10 8 6 5 7 10 20 33 39 49 58 70 88 80 76 85 87 87 81 72 66 59 56 52 41 44 49 57
15 15 14 14 14 13 13 12 12 11 10 8 7 8 9 9 14 13 10 8 5 7 9 22 33 41 44 53 62 78 79 76 82 80 88 83 75 66 65 58 52 43 46 47 51
14 13 13 12 12 12 12 12 12 11 11 10 9 7 8 10 15 15 12 8 6 8 9 21 31 39 43 42 53 61 76 80 81 87 85 81 77 71 63 61 57 48 47 48 50
13 12 12 11 11 11 13 14 12 11 11 11 10 9 8 11 17 17 15 11 8 9 9 16 29 39 41 35 44 55 62 68 80 83 84 83 76 83 65 63 57 52 45 46 47
11 11 10 10 9 10 12 13 12 13 13 12 11 9 8 13 16 18 17 16 12 9 9 14 25 36 37 32 36 54 61 67 79 83 88 84 79 81 71 71 65 57 47 44 48
11 10 10 9 9 10 12 12 13 13 14 14 12 9 8 13 15 16 17 18 15 9 8 11 23 28 34 28 39 50 56 66 79 81 88 84 86 84 81 74 76 61 49 46 48
12 10 10 9 9 10 12 12 14 15 15 15 15 14 14 12 13 14 15 17 16 10 9 10 16 26 32 29 34 46 47 58 68 76 84 84 88 87 84 77 71 61 54 48 48
15 12 10 9 9 10 12 13 16 17 17 16 17 17 16 16 16 15 13 15 17 10 10 13 17 24 28 30 34 44 49 57 67 72 79 86 88 87 88 80 72 72 60 53 51
21 17 13 11 9 10 13 18 19 19 19 19 18 17 16 14 15 15 12 14 16 13 13 15 20 25 27 30 33 35 44 51 68 71 71 80 84 87 91 87 80 72 73 58 50
25 24 18 12 11 12 16 20 22 22 22 20 19 18 16 15 15 18 16 18 17 18 15 16 22 23 26 27 34 37 41 54 66 70 65 75 76 81 88 91 82 81 85 67 58
27 27 20 12 13 15 19 22 23 24 24 23 22 21 21 19 16 15 18 19 19 19 18 18 19 22 25 29 33 37 35 53 60 67 68 68 69 78 90 92 88 80 84 66 59
25 28 24 13 14 16 19 24 25 24 25 25 26 26 25 24 22 17 16 18 18 18 19 20 21 22 22 22 27 30 34 54 68 66 64 68 67 73 77 84 85 80 75 65 58
22 28 26 14 15 18 18 24 25 25 27 28 25 24 25 24 23 23 18 17 19 19 19 20 19 22 21 21 23 25 38 56 64 67 68 67 75 62 69 82 83 74 73 70 57
18 25 28 21 13 17 21 24 27 29 28 26 24 25 25 26 25 24 24 19 20 21 20 21 21 20 20 29 26 35 43 58 66 67 67 62 69 58 66 64 71 74 74 70 63
18 21 27 27 13 15 21 27 31 30 26 23 22 23 25 29 29 28 26 24 24 23 23 22 22 26 28 35 41 39 41 52 60 64 57 70 76 57 56 56 60 65 71 69 59
20 19 25 21 12 18 24 32 34 28 26 22 24 25 25 29 33 32 31 29 28 26 27 27 25 31 33 34 37 42 41 38 45 49 59 69 70 55 54 54 58 72 76 76 65
22 22 20 16 12 20 29 36 32 26 24 23 23 25 26 25 26 32 36 34 32 28 28 29 28 28 38 41 43 52 49 42 50 59 61 63 61 54 60 62 65 70 80 77 74
25 19 18 16 16 21 30 37 36 27 23 21 21 19 23 26 26 25 36 39 38 38 33 33 35 31 35 44 48 51 52 60 58 58 54 54 65 61 61 65 72 70 75 76 75
25 20 18 17 22 25 29 37 35 27 25 24 21 19 21 20 23 30 33 35 37 39 40 36 37 39 36 42 46 53 51 54 61 61 57 56 52 58 57 62 68 76 74 76 76
23 21 20 21 28 27 28 35 35 31 28 24 21 22 28 29 28 28 27 32 34 32 34 40 38 40 41 39 41 49 50 48 55 62 58 59 50 58 54 58 68 72 77 76 76
26 22 22 26 29 26 23 32 38 35 32 25 21 25 31 28 21 23 24 23 24 24 25 31 40 40 43 47 46 48 53 49 47 53 53 47 47 52 53 62 67 76 77 76 77
31 25 29 35 32 26 23 31 38 37 33 28 25 29 36 36 29 23 23 20 22 22 23 23 26 39 46 55 57 57 57 58 52 42 40 37 40 47 55 58 61 71 75 78 78
39 31 43 41 34 28 26 30 37 41 37 30 31 34 38 34 29 25 24 23 24 27 27 29 29 31 46 56 60 59 59 60 56 53 39 37 45 60 62 61 61 67 69 77 78
48 45 50 51 44 37 35 32 35 41 40 31 32 38 36 32 29 24 23 26 26 30 35 37 37 45 46 58 56 60 61 66 68 68 59 52 49 63 65 67 64 67 73 71 73
55 53 50 53 50 47 42 35 35 39 37 34 34 35 35 36 33 26 22 23 26 30 36 42 50 58 56 52 58 67 61 65 68 68 63 56 60 66 66 67 68 69 73 71 70

GFSSW_prec_cthk_120.txt.gz
RH
13 12 12 12 12 10 8 7 8 9 9 8 7 9 8 6 6 6 6 6 6 9 15 20 26 36 44 52 60 66 75 73 69 61 69 59 59 59 52 45 46 47 55 56 57
14 13 13 14 13 13 11 10 8 7 8 9 8 7 8 8 6 6 6 5 5 9 12 19 28 37 45 54 68 72 70 75 77 80 81 70 60 61 55 53 48 46 50 56 59
15 14 14 14 14 13 12 12 11 9 8 7 9 9 7 8 11 11 8 6 5 8 11 17 30 37 45 53 67 79 83 72 78 80 79 79 64 60 59 56 52 44 44 56 55
14 13 12 12 13 12 12 12 12 11 11 9 7 8 9 9 16 13 9 8 5 7 10 18 31 38 44 49 58 76 75 72 77 84 84 79 70 63 56 58 53 43 47 53 56
12 12 11 11 11 11 12 13 11 11 11 11 9 7 8 13 14 15 10 8 6 7 10 20 32 39 43 40 48 57 69 72 74 79 86 76 68 67 59 58 53 45 48 53 55
11 10 10 9 9 9 11 13 11 12 12 12 11 9 9 13 17 15 12 9 9 9 9 19 31 36 36 33 44 53 56 63 67 80 82 72 73 69 62 63 55 48 46 51 54
10 10 9 9 8 8 10 12 11 12 12 12 10 7 10 15 18 17 16 13 10 10 10 13 24 34 33 32 42 48 53 59 69 74 80 84 82 76 66 62 59 56 48 47 55
11 10 10 9 8 8 10 11 12 12 13 12 9 8 12 16 18 17 18 18 13 10 10 11 20 32 31 27 44 49 49 60 64 76 77 85 83 87 74 67 68 62 50 48 56
15 13 11 9 9 8 10 11 13 14 14 13 14 14 13 11 14 14 15 18 14 11 9 11 22 29 31 28 36 40 49 52 63 67 71 78 84 84 86 78 75 79 52 49 55
19 17 14 11 9 9 12 13 16 16 15 15 16 19 16 18 16 14 14 16 14 11 10 11 16 22 28 30 33 42 40 43 53 68 65 70 81 84 84 79 74 69 58 50 53
22 22 17 12 11 12 15 18 19 20 19 18 18 18 18 17 15 16 14 13 14 11 11 13 16 20 28 30 30 33 36 39 48 64 63 60 73 83 85 82 77 67 64 56 56
23 24 21 13 11 13 17 22 21 19 20 20 18 17 16 15 18 17 14 17 15 14 14 14 16 22 28 23 27 32 34 39 47 58 58 56 58 68 77 82 84 73 66 58 55
21 23 24 15 11 14 19 22 22 21 23 22 22 22 22 19 17 17 18 21 18 18 15 15 21 24 22 22 23 30 31 40 44 57 60 54 50 54 67 73 84 79 72 65 56
16 21 24 17 13 14 20 23 22 22 26 24 25 25 24 25 22 17 18 20 17 20 18 19 21 19 20 23 26 26 30 31 45 57 58 55 48 51 55 69 79 85 76 74 71
16 18 24 22 16 16 19 23 23 22 28 25 25 24 23 22 21 21 17 17 21 19 17 21 18 17 20 20 20 26 29 35 45 51 59 59 56 42 52 62 70 79 79 75 73
17 16 22 26 16 15 18 24 25 25 30 24 23 24 23 23 23 21 19 18 19 18 16 21 17 18 19 22 19 26 31 40 47 51 52 50 56 45 51 49 58 67 75 73 75
14 17 18 24 20 14 19 24 27 29 24 22 22 22 24 27 25 23 23 22 24 21 20 19 19 19 18 25 24 30 35 43 45 49 44 56 52 51 55 53 52 63 76 74 66
13 17 17 23 20 12 20 27 32 26 23 19 20 23 28 27 31 27 26 26 23 22 25 25 27 22 23 28 37 33 36 38 44 36 41 57 48 56 54 54 54 60 73 73 74
14 19 19 20 16 16 21 29 29 26 23 19 21 25 28 25 27 29 26 30 29 27 28 27 27 26 30 34 34 45 40 37 42 40 47 44 45 54 59 61 63 57 63 69 72
17 20 20 17 13 19 25 31 34 26 21 20 23 22 26 28 27 22 33 31 33 32 29 32 30 32 35 38 40 44 61 46 39 50 47 40 49 58 60 63 68 67 67 72 73
20 21 20 16 15 22 26 32 33 26 22 20 20 18 19 21 22 29 36 35 34 35 34 34 30 47 32 37 44 47 43 46 51 53 50 55 49 52 49 57 67 71 72 76 82
21 21 20 16 20 21 25 33 32 29 24 22 20 19 21 24 28 28 32 34 31 29 30 34 34 42 41 48 35 38 52 50 50 46 50 45 68 54 49 58 67 73 78 80 84
32 23 22 20 22 24 27 32 36 31 27 24 22 22 25 28 27 22 24 24 23 25 30 30 28 37 39 41 35 38 49 47 49 53 76 56 52 51 56 54 65 69 76 81 81
40 29 28 23 25 26 27 33 37 31 31 28 23 23 29 33 29 32 25 19 18 20 20 19 16 23 33 44 61 64 50 47 47 48 44 45 46 53 55 59 59 68 73 79 82
51 36 42 29 25 26 33 30 34 37 34 33 28 25 31 37 36 32 26 26 21 21 21 23 26 28 28 31 52 64 65 56 53 54 52 41 51 50 54 64 67 66 76 77 82
67 52 47 48 39 35 37 37 34 37 41 32 30 30 33 38 35 35 33 27 25 29 28 30 35 33 32 37 40 51 57 63 59 57 55 52 46 50 51 62 70 65 74 75 79
75 60 57 53 52 47 37 35 31 37 42 39 32 35 35 36 34 35 31 26 24 23 33 32 40 47 50 49 54 51 51 57 56 54 54 55 59 49 58 62 68 68 73 74 79

GFSSW_prec_cthk_123.txt.gz
RH
13 13 13 13 12 11 10 8 8 9 9 8 7 8 7 6 5 5 7 8 7 9 15 22 25 33 43 55 61 67 78 81 71 62 67 59 56 53 46 46 50 55 59 58 47
14 14 14 14 13 12 12 11 9 8 7 9 8 7 8 8 6 7 7 5 5 8 13 21 25 34 45 53 66 70 84 78 78 76 72 64 62 60 52 50 48 55 61 55 49
14 13 12 13 13 12 12 12 11 10 9 8 9 9 7 8 12 14 8 5 5 7 13 19 25 38 47 55 67 64 77 72 70 73 78 73 67 59 53 62 50 47 55 57 55
12 11 10 10 10 10 11 12 11 11 10 9 8 8 9 9 20 18 8 6 5 8 10 17 28 41 48 61 54 70 76 69 71 72 77 75 77 59 56 77 54 44 51 56 59
10 10 9 9 8 9 11 12 10 11 11 11 10 7 8 14 16 14 10 8 6 8 10 20 32 42 54 47 49 62 63 65 70 72 75 77 70 62 57 50 50 47 51 57 63
10 9 9 8 8 8 10 12 10 11 11 11 9 7 10 17 16 16 12 10 9 9 9 19 34 42 49 37 50 72 51 57 60 67 74 62 64 73 56 53 50 48 52 58 62
11 10 9 9 8 7 9 11 11 11 12 10 8 6 13 22 18 16 14 12 11 10 10 15 30 34 43 32 42 49 50 54 61 67 74 73 74 73 63 61 55 51 54 56 59
14 13 12 10 8 8 10 11 11 11 12 9 7 10 16 15 19 16 17 15 12 11 12 11 18 30 34 34 42 43 57 60 69 64 74 78 84 77 75 58 56 60 54 55 56
18 16 14 11 8 7 9 11 13 14 12 12 12 17 16 12 13 15 17 19 15 11 10 10 15 24 33 26 40 43 57 67 55 61 67 70 94 82 86 69 72 69 54 54 57
20 20 18 13 9 8 11 15 15 15 14 14 14 24 15 21 16 15 14 17 14 12 10 10 16 25 29 33 37 43 42 44 53 62 61 61 72 78 79 78 86 69 71 52 56
21 21 21 15 9 10 16 19 25 23 17 23 22 21 19 20 14 15 15 14 14 12 12 11 13 19 24 32 36 37 47 41 56 45 55 59 58 70 74 76 78 75 63 51 56
17 20 22 18 10 11 19 21 19 19 22 17 16 17 16 18 19 16 14 15 14 12 12 14 14 18 23 31 32 31 34 39 53 41 46 50 49 50 63 70 73 89 69 59 54
13 16 20 21 10 12 19 21 19 19 26 20 21 22 22 19 20 18 15 19 16 17 16 16 19 20 27 24 22 28 32 44 49 54 47 44 43 48 45 58 68 74 80 64 54
12 14 18 21 12 13 21 21 20 21 29 26 23 25 22 24 22 16 18 20 20 21 18 17 21 23 23 22 23 26 30 32 38 45 56 75 53 70 49 50 54 63 69 76 62
11 13 16 21 16 15 21 22 20 22 39 30 25 22 23 23 21 20 16 17 22 17 20 21 22 18 19 22 23 24 29 30 34 43 49 54 56 40 52 46 53 55 65 85 70
13 11 14 20 22 13 15 22 23 23 34 29 21 21 22 20 21 19 16 18 22 19 16 23 21 19 20 21 18 21 24 28 39 48 52 42 49 47 55 61 49 52 65 72 74
14 11 14 16 23 15 14 22 26 28 28 26 22 21 24 27 24 22 21 20 26 23 22 18 18 15 15 18 25 18 26 38 44 42 39 42 50 43 51 67 50 50 55 68 79
14 13 14 14 21 16 15 22 30 30 28 22 19 22 24 26 27 26 27 27 20 23 31 26 29 21 18 16 30 26 27 35 41 34 56 56 46 45 47 48 49 49 57 66 75
17 16 16 16 20 16 17 22 27 31 26 21 20 22 25 25 27 27 27 35 34 26 30 32 28 25 28 26 26 40 35 33 35 31 29 39 45 40 42 56 55 57 60 63 75
20 18 20 18 21 16 18 21 27 33 26 21 22 24 34 34 27 26 37 31 29 26 25 34 31 32 28 27 35 34 53 44 36 39 40 34 40 48 45 48 55 64 67 65 77
24 22 23 19 19 18 19 20 27 35 24 22 21 25 24 28 25 35 34 37 32 36 26 32 30 42 35 34 39 42 37 49 54 52 48 40 51 67 59 48 56 69 64 73 66
48 26 25 19 17 19 21 24 30 37 26 22 21 19 20 23 24 24 36 42 39 32 30 35 29 37 36 43 38 42 50 47 39 46 52 52 61 53 54 49 65 72 64 72 77
62 51 29 19 18 19 21 24 31 34 32 22 21 21 22 24 27 26 27 35 31 22 29 32 30 29 33 30 36 38 31 37 47 48 57 54 54 57 64 57 53 70 78 70 74
67 57 48 25 22 27 29 27 31 31 37 29 23 23 26 28 29 30 27 31 25 18 21 18 16 21 24 31 39 48 44 46 53 45 49 48 46 57 53 62 52 57 72 78 79
75 63 68 45 23 25 33 31 30 38 35 31 28 25 26 30 40 36 32 32 33 24 16 20 25 26 22 20 30 32 52 58 63 56 42 49 52 58 58 56 49 57 67 74 78
83 80 74 68 48 28 30 32 30 38 45 35 36 32 27 36 43 41 42 41 37 39 29 28 32 27 30 30 30 31 33 52 63 58 50 46 55 73 82 55 45 54 70 76 85
82 85 79 63 56 49 38 33 34 38 46 47 41 37 40 39 41 41 36 37 39 34 32 38 36 46 47 41 47 44 37 38 49 47 52 54 49 62 82 58 52 58 69 80 85

GFSSW_prec_cthk_126.txt.gz
RH
13 13 13 13 12 11 11 9 8 8 8 7 6 7 6 5 5 5 6 8 8 8 15 19 23 25 35 49 64 71 86 85 88 83 82 60 56 44 46 39 59 67 56 53 52
14 13 13 13 13 12 11 11 10 9 8 9 8 7 7 7 6 6 8 7 6 7 12 21 21 29 37 51 53 70 86 82 75 76 74 65 63 51 50 44 51 62 57 50 51
12 12 11 10 10 10 11 12 11 10 9 8 8 9 7 8 10 14 9 5 4 6 11 20 22 33 42 54 65 62 70 82 70 68 72 71 74 62 55 53 56 50 54 51 49
10 9 9 8 8 9 11 11 9 10 11 10 8 8 9 11 24 20 12 5 4 6 11 17 21 28 48 75 71 60 72 66 68 70 72 74 78 65 67 75 64 48 50 51 51
9 9 8 8 7 7 10 11 10 10 10 10 9 7 8 17 20 14 9 6 5 6 11 16 24 36 52 58 63 56 59 54 61 62 68 70 75 69 72 70 56 45 51 51 60
11 10 9 8 7 7 8 10 10 10 10 10 8 6 8 19 19 14 11 8 7 8 10 17 31 42 57 59 40 60 76 48 51 54 69 63 71 72 58 51 50 50 52 55 50
14 12 11 9 8 7 8 10 11 11 11 8 7 6 14 20 20 14 12 12 11 9 10 12 32 42 40 39 39 57 55 47 44 52 66 65 71 81 70 59 49 52 54 57 52
17 15 14 11 8 7 8 9 11 12 10 7 6 9 20 15 17 14 15 14 11 10 11 11 19 33 42 43 34 46 55 73 77 59 61 65 87 81 69 70 54 54 57 58 52
19 18 17 14 9 7 8 10 12 13 11 9 12 20 24 10 11 15 17 19 16 12 10 10 11 20 34 34 32 47 47 67 79 69 56 58 78 88 84 74 69 51 63 55 54
18 19 19 16 9 8 10 14 15 13 13 15 17 27 21 18 14 14 15 17 16 12 10 9 10 16 27 34 36 44 53 47 69 69 56 61 68 72 73 81 76 73 69 54 53
12 16 18 18 10 9 15 20 27 28 17 22 23 20 18 19 16 14 14 14 16 12 11 10 13 19 28 34 39 40 49 60 56 58 52 47 59 61 60 69 84 80 76 70 58
11 12 16 18 10 10 17 19 21 22 19 21 16 17 17 18 18 17 15 14 14 12 12 13 11 14 21 25 32 38 39 39 43 45 42 40 55 50 50 54 66 74 71 71 67
11 11 13 18 11 9 15 18 18 19 24 23 18 20 19 16 21 20 13 16 18 15 13 15 17 14 17 24 32 30 29 39 50 55 43 38 46 44 56 53 58 71 77 68 69
12 10 12 17 13 16 16 19 18 22 30 27 26 24 20 21 19 18 13 20 20 20 21 16 19 20 23 27 23 22 28 30 40 39 40 48 60 56 57 54 54 56 70 64 73
11 12 10 13 18 14 21 18 18 26 41 29 26 22 23 24 23 20 15 21 23 21 21 18 19 22 22 22 22 25 31 32 31 32 34 48 51 44 54 53 50 50 53 66 66
15 12 11 13 17 13 15 17 18 25 33 28 26 21 21 20 23 20 15 17 21 23 19 23 23 22 17 19 20 20 22 22 27 32 38 41 46 38 51 58 71 64 55 58 66
17 15 12 11 16 20 15 18 21 28 29 29 24 21 22 25 23 19 18 17 22 23 21 16 18 16 18 20 20 16 19 26 34 38 46 45 40 41 51 47 52 74 61 50 62
20 16 12 11 13 19 16 19 25 24 26 27 22 22 22 31 25 24 25 25 21 24 31 29 28 22 18 14 20 25 20 28 38 42 44 45 49 57 55 47 39 59 59 50 56
29 19 16 13 13 20 16 20 20 26 34 32 22 22 22 31 29 29 24 33 34 24 31 34 28 27 21 20 17 26 33 25 33 33 32 33 51 50 51 44 42 48 56 51 53
49 34 17 21 18 21 17 16 18 26 35 30 24 22 29 32 27 26 34 31 35 28 25 33 35 31 27 25 23 24 39 46 34 40 37 32 53 63 63 57 62 62 53 63 68
45 51 43 23 20 22 17 15 19 27 34 28 23 27 29 31 32 32 31 37 32 33 23 27 30 33 34 32 30 35 27 33 41 46 50 48 68 57 54 49 50 61 56 76 69
50 52 51 42 22 21 17 16 21 28 38 30 22 24 26 25 28 27 32 35 36 33 31 29 26 34 36 35 38 31 41 47 49 43 46 48 52 51 54 52 53 55 51 68 63
58 60 58 51 34 19 18 19 23 28 39 35 25 21 24 25 26 31 32 36 36 32 24 27 29 26 24 28 31 34 33 35 43 46 52 60 59 51 52 53 55 58 60 48 61
65 64 63 60 45 26 20 22 24 30 40 43 27 23 26 26 29 33 26 28 28 25 22 23 28 27 26 30 30 39 41 38 43 45 45 59 59 63 62 55 58 61 63 48 50
70 71 70 70 62 38 26 28 33 32 34 41 37 27 27 32 37 34 30 30 30 29 23 16 19 16 19 21 29 26 27 31 44 42 40 47 57 57 69 61 58 62 65 51 50
71 75 77 74 72 61 41 33 40 42 39 39 42 35 29 32 38 42 42 37 34 38 36 26 25 28 26 21 22 25 29 27 34 32 39 39 60 80 72 58 54 54 65 58 53
75 75 76 76 75 66 57 36 38 37 39 46 42 40 35 33 36 40 42 40 40 41 39 39 35 38 40 39 43 41 38 44 47 44 37 46 56 72 73 58 61 63 69 67 67